[[{"header":{"parameterUnit":"m.s-1","parameterCategory":1,"la1":30.6,"la2":28.766,"lo1":-90.7593,"lo2":-88.6598,"dy":0.0162,"dx":0.0183,"nx":116,"ny":114,"refTime":"2024-05-22T18:00:00:Z","depth":0,"parameterNumber":2,"parameterNumberName":"U-component_of_WINDS"},"data":[0.0,0.0,0.0,0.0,0.0,0.0,0.0,0.0,0.0,0.0,0.0,0.0,0.0,0.0,0.0,0.0,0.0,0.0,0.0,0.0,0.0,0.0,0.0,0.0,0.0,0.0,0.0,0.0,0.0,0.0,0.0,0.0,0.0,0.0,0.0,0.0,0.0,0.0,0.0,0.0,0.0,0.0,0.0,0.0,0.0,0.0,0.0,0.0,0.0,0.0,0.0,0.0,0.0,0.0,0.0,0.0,0.0,0.0,0.0,0.0,0.0,0.0,0.0,0.0,0.0,0.0,0.0,0.0,0.0,0.0,0.0,0.0,0.0,0.0,0.0,0.0,0.0,0.0,0.0,0.0,0.0,0.0,0.0,0.0,0.0,0.0,0.0,0.0,0.0,0.0,0.0,0.0,0.0,0.0,0.0,0.0,0.0,0.0,0.0,0.0,0.0,0.0,0.0,0.0,0.0,0.0,0.0,0.0,0.0,0.0,0.0,0.0,0.0,0.0,0.0,0.0,0.0,0.0,0.0,0.0,0.0,0.0,0.0,0.0,0.0,0.0,0.0,0.0,0.0,0.0,0.0,0.0,0.0,0.0,0.0,0.0,0.0,0.0,0.0,0.0,0.0,0.0,0.0,0.0,0.0,0.0,0.0,0.0,0.0,0.0,0.0,0.0,0.0,0.0,0.0,0.0,0.0,0.0,0.0,0.0,0.0,0.0,0.0,0.0,0.0,0.0,0.0,0.0,0.0,0.0,0.0,0.0,0.0,0.0,0.0,0.0,0.0,0.0,0.0,0.0,0.0,0.0,0.0,0.0,0.0,0.0,0.0,0.0,0.0,0.0,0.0,0.0,0.0,0.0,0.0,0.0,0.0,0.0,0.0,0.0,0.0,0.0,0.0,0.0,0.0,0.0,0.0,0.0,0.0,0.0,0.0,0.0,0.0,0.0,0.0,0.0,0.0,0.0,0.0,0.0,0.0,0.0,0.0,0.0,0.0,0.0,0.0,0.0,0.0,0.0,0.0,0.0,0.0,0.0,0.0,0.0,0.0,0.0,0.0,0.0,0.0,0.0,0.0,0.0,0.0,0.0,0.0,0.0,0.0,0.0,0.0,0.0,0.0,0.0,0.0,0.0,0.0,0.0,0.0,0.0,0.0,0.0,0.0,0.0,0.0,0.0,0.0,0.0,0.0,0.0,0.0,0.0,0.0,0.0,0.0,0.0,0.0,0.0,0.0,0.0,0.0,0.0,0.0,0.0,0.0,0.0,0.0,0.0,0.0,0.0,0.0,0.0,0.0,0.0,0.0,0.0,0.0,0.0,0.0,0.0,0.0,0.0,0.0,0.0,0.0,0.0,0.0,0.0,0.0,0.0,0.0,0.0,0.0,0.0,0.0,0.0,0.0,0.0,0.0,0.0,0.0,0.0,0.0,0.0,0.0,0.0,0.0,0.0,0.0,0.0,0.0,0.0,0.0,0.0,0.0,0.0,0.0,0.0,0.0,0.0,0.0,0.0,0.0,0.0,0.0,0.0,0.0,0.0,0.0,0.0,0.0,0.0,0.0,0.0,0.0,0.0,0.0,0.0,0.0,0.0,0.0,0.0,0.0,0.0,0.0,0.0,0.0,0.0,0.0,0.0,0.0,0.0,0.0,0.0,0.0,0.0,0.0,0.0,0.0,0.0,0.0,0.0,0.0,0.0,0.0,0.0,0.0,0.0,0.0,0.0,0.0,0.0,0.0,0.0,0.0,0.0,0.0,0.0,0.0,0.0,0.0,0.0,0.0,0.0,0.0,0.0,0.0,0.0,0.0,0.0,0.0,0.0,0.0,0.0,0.0,0.0,0.0,0.0,0.0,0.0,0.0,0.0,0.0,0.0,0.0,0.0,0.0,0.0,0.0,0.0,0.0,0.0,0.0,0.0,0.0,0.0,0.0,0.0,0.0,0.0,0.0,0.0,0.0,0.0,0.0,0.0,0.0,0.0,0.0,0.0,0.0,0.0,0.0,0.0,0.0,0.0,0.0,0.0,0.0,0.0,0.0,0.0,0.0,0.0,0.0,0.0,0.0,0.0,0.0,0.0,0.0,0.0,0.0,0.0,0.0,0.0,0.0,0.0,0.0,0.0,0.0,0.0,0.0,0.0,0.0,0.0,0.0,0.0,0.0,0.0,0.0,0.0,0.0,0.0,0.0,0.0,0.0,0.0,0.0,0.0,0.0,0.0,0.0,0.0,0.0,0.0,0.0,0.0,0.0,0.0,0.0,0.0,0.0,0.0,0.0,0.0,0.0,0.0,0.0,0.0,0.0,0.0,0.0,0.0,0.0,0.0,0.0,0.0,0.0,0.0,0.0,0.0,0.0,0.0,0.0,0.0,0.0,0.0,0.0,0.0,0.0,0.0,0.0,0.0,0.0,0.0,0.0,0.0,0.0,0.0,0.0,0.0,0.0,0.0,0.0,0.0,0.0,0.0,0.0,0.0,0.0,0.0,0.0,0.0,0.0,0.0,0.0,0.0,0.0,0.0,0.0,0.0,0.0,0.0,0.0,0.0,0.0,0.0,0.0,0.0,0.0,0.0,0.0,0.0,0.0,0.0,0.0,0.0,0.0,0.0,0.0,0.0,0.0,0.0,0.0,0.0,0.0,0.0,0.0,0.0,0.0,0.0,0.0,0.0,0.0,0.0,0.0,0.0,0.0,0.0,0.0,0.0,0.0,0.0,0.0,0.0,0.0,0.0,0.0,0.0,0.0,0.0,0.0,0.0,0.0,0.0,0.0,0.0,0.0,0.0,0.0,0.0,0.0,0.0,0.0,0.0,0.0,0.0,0.0,0.0,0.0,0.0,0.0,0.0,0.0,0.0,0.0,0.0,0.0,0.0,0.0,0.0,0.0,0.0,0.0,0.0,0.0,0.0,0.0,0.0,0.0,0.0,0.0,0.0,0.0,0.0,0.0,0.0,0.0,0.0,0.0,0.0,0.0,0.0,0.0,0.0,0.0,0.0,0.0,0.0,0.0,0.0,0.0,0.0,0.0,0.0,0.0,0.0,0.0,0.0,0.0,0.0,0.0,0.0,0.0,0.0,0.0,0.0,0.0,0.0,0.0,0.0,0.0,0.0,0.0,0.0,0.0,0.0,0.0,0.0,0.0,0.0,0.0,0.0,0.0,0.0,0.0,0.0,0.0,0.0,0.0,0.0,0.0,0.0,0.0,0.0,0.0,0.0,0.0,0.0,0.0,0.0,0.0,0.0,0.0,0.0,0.0,0.0,0.0,0.0,0.0,0.0,0.0,0.0,0.0,0.0,0.0,0.0,0.0,0.0,0.0,0.0,0.0,0.0,0.0,0.0,0.0,0.0,0.0,0.0,0.0,0.0,0.0,0.0,0.0,0.0,0.0,0.0,0.0,0.0,0.0,0.0,0.0,0.0,0.0,0.0,0.0,0.0,0.0,0.0,0.0,0.0,0.0,0.0,0.0,0.0,0.0,0.0,0.0,0.0,0.0,0.0,0.0,0.0,0.0,0.0,0.0,0.0,0.0,0.0,0.0,0.0,0.0,0.0,0.0,0.0,0.0,0.0,0.0,0.0,0.0,0.0,0.0,0.0,0.0,0.0,0.0,0.0,0.0,0.0,0.0,0.0,0.0,0.0,0.0,0.0,0.0,0.0,0.0,0.0,0.0,0.0,0.0,0.0,0.0,0.0,0.0,0.0,0.0,0.0,0.0,0.0,0.0,0.0,0.0,0.0,0.0,0.0,0.0,0.0,0.0,0.0,0.0,0.0,0.0,0.0,0.0,0.0,0.0,0.0,0.0,0.0,0.0,0.0,0.0,0.0,0.0,0.0,0.0,0.0,0.0,0.0,0.0,0.0,0.0,0.0,0.0,0.0,0.0,0.0,0.0,0.0,0.0,0.0,0.0,0.0,0.0,0.0,0.0,0.0,0.0,0.0,0.0,0.0,0.0,0.0,0.0,0.0,0.0,0.0,0.0,0.0,0.0,0.0,0.0,0.0,0.0,0.0,0.0,0.0,0.0,0.0,0.0,0.0,0.0,0.0,0.0,0.0,0.0,0.0,0.0,0.0,0.0,0.0,0.0,0.0,0.0,0.0,0.0,0.0,0.0,0.0,0.0,0.0,0.0,0.0,0.0,0.0,0.0,0.0,0.0,0.0,0.0,0.0,0.0,0.0,0.0,0.0,0.0,0.0,0.0,0.0,0.0,0.0,0.0,0.0,0.0,0.0,0.0,0.0,0.0,0.0,0.0,0.0,0.0,0.0,0.0,0.0,0.0,0.0,0.0,0.0,0.0,0.0,0.0,0.0,0.0,0.0,0.0,0.0,0.0,0.0,0.0,0.0,0.0,0.0,0.0,0.0,0.0,0.0,0.0,0.0,0.0,0.0,0.0,0.0,0.0,0.0,0.0,0.0,0.0,0.0,0.0,0.0,0.0,0.0,0.0,0.0,0.0,0.0,0.0,0.0,0.0,0.0,0.0,0.0,0.0,0.0,0.0,0.0,0.0,0.0,0.0,0.0,0.0,0.0,0.0,0.0,0.0,0.0,0.0,0.0,0.0,0.0,0.0,0.0,0.0,0.0,0.0,0.0,0.0,0.0,0.0,0.0,0.0,0.0,0.0,0.0,0.0,0.0,0.0,0.0,0.0,0.0,0.0,0.0,0.0,0.0,0.0,0.0,0.0,0.0,0.0,0.0,0.0,0.0,0.0,0.0,0.0,0.0,0.0,0.0,0.0,0.0,0.0,0.0,0.0,0.0,0.0,0.0,0.0,0.0,0.0,0.0,0.0,0.0,0.0,0.0,0.0,0.0,0.0,0.0,0.0,0.0,0.0,0.0,0.0,0.0,0.0,0.0,0.0,0.0,0.0,0.0,0.0,0.0,0.0,0.0,0.0,0.0,0.0,0.0,0.0,0.0,0.0,0.0,0.0,0.0,0.0,0.0,0.0,0.0,0.0,0.0,0.0,0.0,0.0,0.0,0.0,0.0,0.0,0.0,0.0,0.0,0.0,0.0,0.0,0.0,0.0,0.0,0.0,0.0,0.0,0.0,0.0,0.0,0.0,0.0,0.0,0.0,0.0,0.0,0.0,0.0,0.0,0.0,0.0,0.0,0.0,0.0,0.0,0.0,0.0,0.0,0.0,0.0,0.0,0.0,0.0,0.0,0.0,0.0,0.0,0.0,0.0,0.0,0.0,0.0,0.0,0.0,0.0,0.0,0.0,0.0,0.0,0.0,0.0,0.0,0.0,0.0,0.0,0.0,0.0,0.0,0.0,0.0,0.0,0.0,0.0,0.0,0.0,0.0,0.0,0.0,0.0,0.0,0.0,0.0,0.0,0.0,0.0,0.0,0.0,0.0,0.0,0.0,0.0,0.0,0.0,0.0,0.0,0.0,0.0,0.0,0.0,0.0,0.0,0.0,0.0,0.0,0.0,0.0,0.0,0.0,0.0,0.0,0.0,0.0,0.0,0.0,0.0,0.0,0.0,0.0,0.0,0.0,0.0,0.0,0.0,0.0,0.0,0.0,0.0,0.0,0.0,0.0,0.0,0.0,0.0,0.0,0.0,0.0,0.0,0.0,0.0,0.0,0.0,0.0,0.0,0.0,0.0,0.0,0.0,0.0,0.0,0.0,0.0,0.0,0.0,0.0,0.0,0.0,0.0,0.0,0.0,0.0,0.0,0.0,0.0,0.0,0.0,0.0,0.0,0.0,0.0,0.0,0.0,0.0,0.0,0.0,0.0,0.0,0.0,0.0,0.0,0.0,0.0,0.0,0.0,0.0,0.0,0.0,0.0,0.0,0.0,0.0,0.0,0.0,0.0,0.0,0.0,0.0,0.0,0.0,0.0,0.0,0.0,0.0,0.0,0.0,0.0,0.0,0.0,0.0,0.0,0.0,0.0,0.0,0.0,0.0,0.0,0.0,0.0,0.0,0.0,0.0,0.0,0.0,0.0,0.0,0.0,0.0,0.0,0.0,0.0,0.0,0.0,0.0,0.0,0.0,0.0,0.0,0.0,0.0,0.0,0.0,0.0,0.0,0.0,0.0,0.0,0.0,0.0,0.0,0.0,0.0,0.0,0.0,0.0,0.0,-3.5609,0.0,0.0,0.0,0.0,0.0,0.0,0.0,0.0,0.0,0.0,0.0,0.0,0.0,0.0,0.0,0.0,0.0,0.0,0.0,0.0,0.0,0.0,0.0,0.0,-2.9696,-3.0356,-3.0742,-3.1033,-3.1141,-3.0998,0.0,0.0,0.0,0.0,0.0,-2.6965,-2.6947,-2.7906,-2.983,-2.9869,-3.1169,-3.3615,-3.2949,-3.1364,-2.911,0.0,0.0,0.0,0.0,0.0,0.0,0.0,0.0,0.0,0.0,0.0,0.0,0.0,0.0,0.0,0.0,0.0,0.0,0.0,0.0,0.0,0.0,0.0,0.0,0.0,0.0,0.0,0.0,0.0,0.0,0.0,0.0,0.0,0.0,0.0,0.0,0.0,0.0,0.0,0.0,0.0,0.0,0.0,0.0,0.0,0.0,0.0,0.0,0.0,0.0,0.0,0.0,0.0,0.0,0.0,0.0,0.0,0.0,0.0,0.0,0.0,0.0,0.0,0.0,0.0,0.0,0.0,0.0,0.0,0.0,0.0,-3.7883,0.0,0.0,0.0,0.0,0.0,0.0,0.0,0.0,0.0,0.0,0.0,0.0,0.0,0.0,0.0,0.0,0.0,0.0,0.0,0.0,0.0,-2.7742,-2.9953,-3.0448,-3.0999,-3.1953,-3.2065,-3.1964,-3.1674,-3.1418,0.0,0.0,0.0,-2.934,-2.8665,-2.8762,-3.0297,-3.3311,-3.3598,-3.535,-3.8435,-3.9521,-3.7426,-3.2727,-3.2981,0.0,0.0,0.0,0.0,0.0,0.0,0.0,0.0,0.0,0.0,0.0,0.0,0.0,0.0,0.0,0.0,0.0,0.0,0.0,0.0,0.0,0.0,0.0,0.0,0.0,0.0,0.0,0.0,0.0,0.0,0.0,0.0,0.0,0.0,0.0,0.0,0.0,0.0,0.0,0.0,0.0,0.0,0.0,0.0,0.0,0.0,0.0,0.0,0.0,0.0,0.0,0.0,0.0,0.0,0.0,0.0,0.0,0.0,0.0,0.0,0.0,0.0,0.0,0.0,-4.9216,-4.9779,-4.9779,-4.9386,-4.8553,-4.5634,-4.3947,-4.3038,0.0,0.0,0.0,0.0,0.0,0.0,0.0,0.0,0.0,0.0,0.0,0.0,0.0,0.0,0.0,0.0,0.0,0.0,0.0,0.0,-2.8557,-3.0043,-3.1445,-3.2894,-3.4399,-3.5206,-3.5245,-3.4353,-3.3628,0.0,-3.1866,-3.1052,-3.0582,-3.046,-3.096,-3.2438,-3.49,-3.9646,-4.2665,-4.4055,-4.4888,-4.3962,-4.1424,-3.7221,-3.5069,-3.4373,0.0,0.0,0.0,0.0,0.0,0.0,0.0,0.0,0.0,0.0,0.0,0.0,0.0,0.0,0.0,0.0,0.0,0.0,0.0,0.0,0.0,0.0,0.0,0.0,0.0,0.0,0.0,0.0,0.0,0.0,0.0,0.0,0.0,0.0,0.0,0.0,0.0,0.0,0.0,0.0,0.0,-3.5843,-3.8484,0.0,0.0,0.0,0.0,0.0,0.0,0.0,0.0,0.0,0.0,0.0,0.0,0.0,0.0,-4.8888,-5.1319,-5.2324,-5.1945,-5.4048,-5.4693,-5.4086,-5.4086,-5.4029,-5.3859,-5.2703,0.0,-4.6582,-4.4687,0.0,0.0,0.0,0.0,0.0,0.0,0.0,0.0,0.0,0.0,0.0,0.0,0.0,0.0,0.0,0.0,0.0,0.0,0.0,0.0,0.0,-3.3697,-3.533,-3.6931,-3.7845,-3.7692,-3.6243,-3.5389,-3.4146,-3.2284,-3.1726,-3.1474,-3.1474,-3.2908,-3.5703,-3.9859,-4.4281,-4.6666,-4.7107,-4.7029,-4.6627,-4.5853,-4.2755,-3.9865,-3.7172,-3.4383,0.0,0.0,0.0,0.0,0.0,0.0,0.0,0.0,0.0,0.0,0.0,0.0,0.0,0.0,0.0,0.0,0.0,0.0,0.0,0.0,0.0,0.0,0.0,0.0,0.0,0.0,0.0,0.0,0.0,0.0,0.0,0.0,0.0,0.0,0.0,0.0,0.0,0.0,0.0,-3.6433,-3.9806,-4.1024,-4.1438,-4.0877,0.0,0.0,0.0,0.0,0.0,0.0,0.0,0.0,0.0,-4.9462,-5.0542,-5.1604,-5.2703,-5.475,-5.583,-5.5943,-5.7062,-5.7403,-5.7043,-5.7043,-5.6758,-5.6285,-5.5925,-5.42,-5.1376,-4.8306,-4.5615,-4.3265,0.0,0.0,0.0,0.0,0.0,-4.1154,0.0,0.0,0.0,0.0,0.0,0.0,0.0,0.0,0.0,0.0,0.0,0.0,-3.441,-3.6211,-3.7769,-3.9399,-4.0093,-3.9788,-3.8216,-3.7025,-3.5549,-3.3647,-3.2832,-3.2509,-3.2708,-3.5586,-3.9723,-4.5086,-4.8021,-4.9629,-4.9889,-4.9294,-4.9097,-4.9191,-4.75,-4.438,-4.0306,-3.7845,-3.5593,-3.3363,0.0,0.0,0.0,0.0,0.0,0.0,0.0,0.0,0.0,0.0,0.0,0.0,0.0,0.0,0.0,0.0,0.0,0.0,0.0,0.0,0.0,0.0,0.0,0.0,0.0,0.0,0.0,0.0,0.0,0.0,0.0,0.0,0.0,0.0,0.0,0.0,0.0,-3.9981,-4.2787,-4.3522,-4.4946,-4.4895,0.0,0.0,0.0,0.0,0.0,0.0,-4.8325,-5.0182,-5.1774,-5.3082,-5.4693,-5.5754,-5.619,-5.7422,-5.8369,-5.8995,-5.8995,-5.8995,-5.8995,-5.8995,-5.8653,-5.8028,-5.782,-5.7024,-5.5564,-5.1604,-4.8988,-4.7321,-4.5862,-4.4762,-4.4156,-4.5407,-4.535,-4.4914,0.0,0.0,0.0,0.0,0.0,0.0,0.0,0.0,0.0,0.0,0.0,-3.4052,-3.7243,-3.864,-4.0007,-4.1682,-4.1865,-4.152,-4.0663,-3.8614,-3.7367,-3.7239,-3.4844,-3.3883,-3.4645,-3.9644,-4.4581,-4.9382,-5.0825,-5.2083,-5.316,-5.3105,-5.2881,-5.2399,-5.0407,-4.7812,-4.4771,-4.1648,-3.9856,-3.8591,-3.27,0.0,0.0,0.0,0.0,0.0,0.0,0.0,0.0,0.0,0.0,0.0,0.0,0.0,0.0,0.0,0.0,0.0,0.0,0.0,0.0,0.0,0.0,0.0,0.0,0.0,0.0,0.0,0.0,0.0,0.0,0.0,0.0,0.0,0.0,0.0,0.0,0.0,0.0,-4.6581,-4.784,0.0,0.0,0.0,0.0,-4.9286,-5.0277,-5.1888,-5.4333,-5.4579,-5.5773,-5.8237,-5.763,-5.8028,-5.962,-5.9715,-5.9807,-5.9845,-5.9845,-5.9845,-5.9845,-5.9845,-5.9826,-5.9715,-5.8957,-5.8594,-5.8237,-5.4844,-5.2456,-5.0865,-4.9936,-4.9097,-4.8395,-4.849,-4.7959,-4.7226,0.0,0.0,0.0,0.0,0.0,-2.5209,-2.6856,-2.7288,-2.8264,-3.0631,-3.3252,-3.5423,-3.6816,-4.0649,-4.3218,-4.3524,-4.462,-4.4675,-4.3214,-4.0573,-3.9276,-3.979,-3.7323,-3.7713,-4.1542,-4.4928,-4.8265,-5.1519,-5.2803,-5.3913,-5.4794,-5.3839,-5.3298,-5.3017,-5.1466,-4.9405,-4.6874,-4.4476,-4.2475,-4.0662,-3.7041,-3.3505,0.0,0.0,0.0,0.0,0.0,0.0,0.0,0.0,0.0,0.0,0.0,0.0,0.0,0.0,0.0,0.0,0.0,0.0,0.0,0.0,0.0,0.0,0.0,0.0,0.0,0.0,0.0,0.0,0.0,0.0,0.0,0.0,0.0,0.0,0.0,0.0,0.0,-5.105,-5.2641,0.0,0.0,-5.1642,-5.1698,-5.2305,-5.3631,-5.5261,-5.7232,-5.8331,-5.9563,-6.1041,-6.0776,-6.0643,-6.0679,-6.0679,-6.0397,-5.9902,-5.9902,-5.9902,-5.9902,-5.9902,-5.9902,-5.9866,-5.9598,-5.9181,-5.8559,-5.6815,-5.5091,-5.3442,-5.2059,-5.1338,-5.1016,-5.0505,-5.0107,-4.9765,0.0,0.0,0.0,0.0,-2.4607,-2.5281,-2.6916,-2.7312,-2.8601,-3.1836,-3.484,-3.7244,-3.8633,-4.2984,-4.5453,-4.462,-4.6047,-4.6266,-4.4509,-4.2093,-4.0946,-4.148,-3.9841,-4.1114,-4.5875,-4.8231,-5.086,-5.3839,-5.4568,-5.5364,-5.6114,-5.5045,-5.4507,-5.4425,-5.3047,-5.1528,-4.9818,-4.7824,-4.5432,-4.2703,-4.0036,-3.7029,-3.3888,0.0,0.0,0.0,0.0,0.0,0.0,0.0,0.0,0.0,0.0,0.0,0.0,0.0,0.0,0.0,0.0,0.0,0.0,0.0,0.0,0.0,0.0,0.0,0.0,0.0,0.0,0.0,0.0,0.0,0.0,0.0,0.0,0.0,0.0,0.0,-5.2324,-5.4314,-5.6266,-5.7005,-5.5906,-5.5792,-5.6038,-5.6588,-5.7384,-5.8464,-5.9866,-6.0966,-6.1799,-6.237,-6.2389,-6.2122,-6.1534,-6.125,-6.083,-6.0283,-6.0034,-5.9902,-5.9902,-5.9902,-5.9902,-5.9902,-5.9902,-5.9598,-5.9033,-5.818,-5.7005,-5.5583,-5.3897,-5.3082,-5.2764,-5.2248,-5.1684,-5.1092,0.0,0.0,0.0,-2.4639,-2.4615,-2.5206,-2.6989,-2.7315,-2.9137,-3.4122,-3.6882,-3.9619,-4.2872,-4.5656,-4.6634,-4.5015,-4.6066,-4.6169,-4.4619,-4.3118,-4.2323,-4.2378,-4.2506,-4.4048,-4.7223,-4.9444,-5.2477,-5.6416,-5.6176,-5.6453,-5.7206,-5.6951,-5.6794,-5.6732,-5.5236,-5.4272,-5.3711,-5.1778,-4.8818,-4.5131,-4.169,-3.9925,-3.902,0.0,0.0,0.0,0.0,0.0,0.0,0.0,0.0,0.0,0.0,0.0,0.0,0.0,0.0,0.0,0.0,0.0,0.0,0.0,0.0,0.0,0.0,0.0,0.0,0.0,0.0,0.0,0.0,0.0,0.0,0.0,0.0,0.0,-4.7491,-5.1869,-5.5318,-5.6228,-5.8502,-5.9996,-5.9999,-5.998,-6.0643,-6.2275,-6.161,-6.1515,-6.2389,-6.2427,-6.2446,-6.2465,-6.2465,-6.2446,-6.2427,-6.1591,-6.1153,-6.1079,-6.0319,-5.9904,-5.9902,-5.9902,-5.9902,-5.9902,-5.9902,-5.9902,-5.9845,-5.903,-5.818,-5.7232,-5.5583,-5.4446,-5.3726,-5.3707,-5.2646,-5.1092,0.0,0.0,-2.4977,-2.4834,-2.4853,-2.5212,-2.6214,-2.7466,-2.9271,-3.1939,-3.71,-4.0856,-4.1692,-4.611,-4.8378,-4.6825,-4.7073,-4.7224,-4.7028,-4.4052,-4.2818,-4.3993,-4.6893,-4.9426,-5.1479,-5.3253,-5.5009,-5.669,-5.7005,-5.7267,-5.7461,-5.7232,-5.6907,-5.6564,-5.6161,-5.537,-5.4307,-5.3197,-5.1801,-5.0013,-4.6413,-4.2922,-3.979,0.0,0.0,0.0,0.0,0.0,0.0,0.0,0.0,0.0,0.0,0.0,0.0,0.0,0.0,0.0,0.0,0.0,0.0,0.0,0.0,0.0,0.0,0.0,0.0,0.0,0.0,0.0,0.0,0.0,0.0,0.0,0.0,-5.1717,-5.1945,-5.4712,-5.746,-5.9506,-6.0909,-6.1951,-6.2538,-6.2065,-6.1913,-6.237,-6.2178,-6.2406,-6.3222,-6.326,-6.3562,-6.4187,-6.4225,-6.3922,-6.3279,-6.3031,-6.2292,-6.1098,-6.0887,-6.0454,-5.9902,-5.9902,-5.9902,-5.9902,-5.9902,-5.9902,-5.9845,-5.903,-5.818,-5.7289,-5.6247,-5.5318,-5.4503,-5.3916,-5.2646,-5.1092,0.0,-2.4213,-2.5069,-2.5,-2.5329,-2.5709,-2.6079,-2.7619,-2.9737,-3.2529,-3.7252,-4.087,-4.2233,-4.6182,-4.8079,-4.6416,-4.7059,-4.7068,-4.5865,-4.4232,-4.4176,-4.6122,-4.9481,-5.2068,-5.3683,-5.528,-5.6559,-5.7523,-5.7689,-5.7914,-5.819,-5.7779,-5.7504,-5.7383,-5.7224,-5.6667,-5.569,-5.4576,-5.3738,-5.2883,-4.9868,-4.6815,-4.3984,-4.3048,-4.0234,-3.6717,-3.6134,-3.5856,-3.56,-3.437,0.0,0.0,0.0,0.0,0.0,0.0,0.0,0.0,0.0,0.0,0.0,0.0,0.0,0.0,0.0,0.0,0.0,0.0,0.0,0.0,0.0,0.0,0.0,0.0,-5.2381,-5.5223,-5.6607,-5.835,-6.0151,-6.1932,-6.2917,-6.3638,-6.4111,-6.3732,-6.3448,-6.3448,-6.3448,-6.3657,-6.413,-6.4132,-6.4396,-6.4888,-6.4907,-6.4661,-6.4149,-6.3772,-6.2955,-6.1648,-6.1269,-6.0679,-5.9902,-5.9902,-5.9902,0.0,-5.9902,-5.9902,-5.9864,-5.9409,-5.8483,0.0,0.0,0.0,0.0,0.0,-5.2854,-5.1585,0.0,-2.4618,-2.514,-2.5235,-2.5898,-2.6384,-2.632,-2.7722,-3.0258,-3.4304,-3.7136,-4.0139,-4.3655,-4.6005,-4.6695,-4.5142,-4.6615,-4.6387,-4.3428,-4.4498,-4.6287,-4.8618,-5.1077,-5.3115,-5.4638,-5.6206,-5.7483,-5.8511,-5.8249,-5.8406,-5.8984,-5.8455,-5.8351,-5.8628,-5.8325,-5.7973,-5.7474,-5.5919,-5.497,-5.4389,-5.2311,-5.0705,-4.9328,-4.7355,-4.5267,-4.3003,-4.0474,-3.9306,-3.8414,-3.4843,0.0,0.0,0.0,0.0,0.0,0.0,0.0,0.0,0.0,0.0,0.0,0.0,0.0,0.0,0.0,0.0,0.0,0.0,0.0,0.0,0.0,0.0,0.0,0.0,-5.5451,-5.7725,-6.0928,-6.2046,-6.2787,-6.3507,-6.4377,-6.4907,-6.4907,-6.4907,-6.4907,-6.4907,-6.4907,-6.4907,-6.4907,0.0,0.0,0.0,0.0,-6.4907,-6.4907,-6.413,-6.3279,-6.2389,-6.161,-6.0757,-5.9902,-5.9902,-5.9902,-5.9902,-5.9902,-5.9902,-5.9902,-5.9902,-5.89,-5.7308,-5.6512,-5.5678,-5.4806,-5.4105,-5.3233,0.0,0.0,-2.4662,-2.5406,-2.6102,-2.633,-2.6402,-2.6384,-2.7803,-2.9931,-3.286,-3.6086,-3.9657,-4.3794,-4.5793,-4.686,-4.6878,-4.7127,-4.7091,-4.6615,-4.7832,-4.937,-5.1206,-5.3592,-5.5354,-5.6326,-5.753,-5.828,-5.8511,-5.8702,-5.8865,-5.8984,-5.8885,-5.8847,-5.8906,-5.8848,-5.8789,-5.8579,-5.6922,-5.6157,-5.591,-5.3983,-5.153,-4.9008,-4.8723,-4.7264,-4.5144,-4.3649,-4.3057,-4.2679,-4.0704,-3.9765,-3.9311,-3.8534,-3.6795,0.0,0.0,0.0,0.0,0.0,0.0,0.0,0.0,0.0,0.0,0.0,0.0,0.0,0.0,0.0,0.0,0.0,0.0,0.0,-5.5106,-5.7668,-6.0094,-6.2747,-6.326,-6.3431,-6.3582,-6.4377,-6.4907,-6.4907,-6.4907,-6.4907,-6.4907,-6.4907,-6.4907,-6.4907,-6.4907,0.0,-6.4907,-6.4907,-6.4907,-6.4907,-6.4737,-6.3903,-6.2389,0.0,0.0,-5.9902,-5.9902,-5.9902,-5.9902,-5.9902,-5.9902,-5.9902,-5.9902,-5.89,-5.7308,-5.6512,-5.5678,-5.4882,-5.4731,-5.3707,-5.2272,-2.5183,-2.5658,-2.6041,-2.6469,-2.6883,-2.6989,-2.6519,-2.7867,-2.9877,-3.2467,-3.5403,-3.8727,-4.2615,-4.3773,-4.4317,-4.448,-4.4241,-4.5119,-4.7541,-4.8745,-5.0639,-5.353,-5.5586,-5.6825,-5.723,-5.8252,-5.862,-5.8349,-5.8798,-5.9159,-5.9436,-5.9271,-5.929,-5.9454,-5.9454,-5.9454,-5.9361,-5.8119,-5.7347,-5.6804,-5.5209,-5.3326,-5.1441,-5.0916,-4.9223,-4.7003,-4.604,-4.5137,-4.4188,-4.3037,-4.2475,-4.2176,-4.1712,-4.0306,-3.8348,0.0,0.0,0.0,0.0,0.0,0.0,0.0,0.0,0.0,0.0,0.0,0.0,0.0,0.0,-4.597,0.0,0.0,-5.4487,-5.7567,-5.9791,-6.1724,-6.3355,-6.398,-6.4263,-6.4263,-6.4642,-6.4907,-6.4907,-6.4907,-6.4907,-6.4907,-6.4907,-6.4907,-6.4907,-6.4907,-6.4907,-6.4907,-6.4907,-6.4907,-6.4907,-6.4907,-6.4073,-6.2389,-6.2389,-6.1515,-5.9902,-5.9902,-5.9902,-5.9902,-5.9902,-5.9902,-5.9883,-5.9485,-5.854,-5.7403,-5.7441,-5.6398,-5.4958,-5.5394,-5.4484,-5.293,-2.6332,-2.6851,-2.7044,-2.689,-2.7428,-2.7591,-2.6664,-2.781,-2.9645,-3.2052,-3.4288,-3.6993,-4.0446,-4.0839,-4.1042,-4.1557,-4.1246,-4.307,-4.7907,-4.9166,-5.1451,-5.5361,-5.7098,-5.7864,-5.7695,-5.8445,-5.8634,-5.8195,-5.8709,-5.9268,-5.9885,-5.963,-5.9664,-5.9934,-5.9902,-5.9918,-5.9877,-5.9049,-5.8199,-5.7277,-5.6063,-5.4952,-5.3893,-5.2801,-5.1042,-4.8952,-4.7595,-4.6169,-4.4751,-4.3517,-4.3645,-4.4196,-4.3429,-4.2785,-4.1847,-3.9498,-3.8642,0.0,0.0,0.0,0.0,0.0,0.0,0.0,0.0,0.0,-4.3212,-4.4819,-4.7462,-5.0116,-5.2156,-5.4445,-5.6947,-5.9811,-6.1614,-6.2919,-6.3734,-6.4471,-6.485,-6.468,-6.4813,-6.4907,-6.4907,-6.4907,-6.4907,-6.4907,-6.4907,-6.4907,-6.4907,-6.4907,-6.4907,-6.4907,-6.4907,-6.4907,-6.4907,-6.4907,-6.4149,-6.2616,-6.2465,-6.161,-6.0132,-5.9961,-5.9902,-5.9902,-5.9902,-5.9902,-5.9845,-5.903,-5.818,-5.7479,-5.835,-5.7251,-5.5261,-5.6114,-5.5375,-5.3783,0.0,-2.7794,-2.8588,-2.7876,-2.7838,-2.7601,-2.6726,-2.7402,-2.8676,-3.0514,-3.1685,-3.3624,-3.6993,-3.7353,-3.8493,-4.1346,-4.1289,-4.3452,-4.9041,-5.0739,-5.296,-5.622,-5.7957,-5.848,-5.7714,-5.809,-5.8254,-5.8195,-5.8568,-5.9136,-5.9902,-5.9869,-5.9915,-6.0068,-5.9966,-5.9982,-6.0015,-5.9077,-5.8199,-5.7327,-5.6466,-5.5163,-5.3698,-5.3273,-5.2493,-5.1215,-4.7679,-4.629,-4.5657,-4.2718,-4.2922,-4.4236,-4.3454,-4.3832,-4.4122,-4.1937,-4.0293,-3.8809,-3.7018,-3.6874,-3.8138,-4.1886,-4.2818,-4.3957,0.0,0.0,-4.9938,-5.0857,-5.2472,-5.4105,-5.5305,-5.7185,-5.9251,-6.1337,-6.2667,-6.3753,-6.4642,-6.485,-6.4623,-6.3846,-6.4434,-6.4907,-6.4907,-6.4907,-6.4907,-6.4907,-6.4907,-6.4907,-6.4907,-6.4907,-6.4907,-6.4907,-6.4907,-6.4907,-6.4907,-6.4907,-6.4434,-6.345,-6.273,-6.1913,-6.0928,-6.0243,-5.9902,-5.9902,-5.9902,-5.9902,-5.9845,-5.903,-5.818,-5.7479,-5.835,-5.7611,-5.6152,-5.6967,-5.6209,-5.4541,0.0,-2.7915,-2.8299,-2.7953,-2.7895,-2.7601,-2.6736,-2.7344,-2.8348,-2.9569,-3.1352,-3.3242,-3.5187,-3.5819,-3.68,-3.8536,-4.0348,-4.3217,-4.7509,-5.0675,-5.3623,-5.6443,-5.8167,-5.8838,-5.8417,-5.8989,-5.9043,-5.849,-5.9098,-5.9608,-6.001,-6.001,-6.0084,-6.0213,-6.0154,-5.9862,-5.9395,-5.8977,-5.8008,-5.6664,-5.6341,-5.5204,-5.3579,-5.2454,-5.1239,-4.9851,-4.7755,-4.6324,0.0,-4.3012,-4.324,-4.4283,-4.3748,-4.3243,-4.2769,-4.2345,-4.1752,-4.1341,-4.1975,-4.2421,-4.3391,-4.6127,-4.7449,-4.8732,-5.1192,-5.1997,-5.2467,-5.3227,-5.4675,-5.6043,-5.6842,-5.8888,-6.0827,0.0,-6.3399,-6.449,-6.485,-6.4471,-6.4017,-6.3639,-6.3524,-6.3638,-6.4111,-6.4604,-6.4907,-6.4907,-6.4907,-6.4907,-6.4907,-6.4907,-6.4907,-6.4907,-6.4907,-6.4907,-6.4907,-6.4907,-6.4471,-6.3582,-6.2768,-6.1951,-6.1077,-6.0281,-5.9902,-5.9902,-5.9902,-5.9902,-5.9883,-5.9541,-5.89,-5.818,-5.8559,-5.8256,-5.763,-5.746,-5.6664,-5.5413,0.0,-2.7915,-2.8088,-2.7621,-2.7544,-2.7255,-2.6365,-2.7006,-2.788,-2.8775,-3.0704,-3.2343,-3.3248,-3.3856,-3.4654,-3.5832,-3.8572,-4.1941,-4.595,-4.9725,-5.3135,-5.6116,-5.7625,-5.8448,-5.8578,-5.9168,-5.9257,-5.8794,-5.9383,-5.9844,-6.0159,-6.0159,-6.0113,-6.0024,-5.9941,-5.9297,-5.8273,-5.8413,-5.7453,-5.5849,-5.5849,-5.4844,-5.3139,-5.1225,-4.9311,-4.7553,-4.6659,-4.5502,-4.4096,-4.2128,-4.2389,-4.341,-4.2576,-4.2011,-4.1777,-4.2611,-4.3028,-4.3596,-4.5273,-4.618,-4.7143,-4.934,-5.1029,-5.2324,-5.3051,-5.3865,-5.4576,-5.4812,-5.5779,-5.6777,-5.7443,-5.9337,-6.1127,-6.2101,-6.3547,-6.4547,-6.4547,-6.4017,-6.3429,-6.2974,-6.2614,-6.2521,-6.288,-6.3903,-6.4642,-6.4888,-6.4907,-6.4907,-6.4907,-6.4907,-6.4907,-6.4907,-6.4907,-6.4907,-6.4907,-6.4907,-6.4585,-6.396,-6.29,-6.2084,-6.142,-6.0378,-5.9902,-5.9902,-5.9902,-5.9902,-5.9902,-5.9902,-5.9447,-5.8707,-5.8707,-5.8707,-5.8578,-5.7706,-5.7024,-5.6285,0.0,0.0,-2.8549,-2.6928,-2.664,-2.6351,-2.5481,-2.6125,-2.7069,-2.802,-2.8935,-2.9813,-3.0629,-3.0675,-3.1637,-3.4052,-3.5846,-3.93,-4.5064,-4.7871,-5.1109,-5.5174,-5.6141,-5.6981,-5.7816,-5.7854,-5.8255,-5.909,-5.9109,-5.9529,-6.0293,-6.0293,-5.9961,-5.9332,-5.905,-5.8092,-5.6695,-5.7218,-5.6474,-5.4939,-5.4939,-5.3954,-5.2158,-4.9709,-4.7207,-4.4889,-4.3805,-4.3375,-4.2776,-3.9096,-3.9427,-4.108,-3.9246,-4.0283,-4.2353,-4.3227,-4.4105,-4.4887,-4.522,-4.5847,-4.726,-5.0759,-5.2835,-5.4239,-5.5024,-5.6426,-5.7281,-5.6257,-5.6027,-5.6265,-5.7061,-5.8244,-5.9701,-6.162,-6.2876,-6.3639,-6.3639,-6.362,-6.3012,-6.1363,-6.1913,-6.2084,0.0,-6.2671,-6.3998,-6.485,-6.4907,-6.4907,-6.4907,-6.4907,-6.4907,-6.4907,-6.4907,-6.4907,-6.4907,-6.4907,-6.4888,-6.485,-6.3202,-6.2389,-6.2294,-6.0643,-5.9902,-5.9902,-5.9902,-5.9902,-5.9902,-5.9902,-5.9447,-5.8707,-5.8707,-5.8707,-5.8578,-5.7706,-5.7384,-5.7118,0.0,0.0,0.0,-2.8261,-2.7813,-2.7351,-2.7063,-2.73,-2.7639,-2.7991,-2.9807,0.0,0.0,0.0,0.0,0.0,-3.7166,-3.9788,-4.288,-4.6047,-4.8946,-5.1459,-5.3378,-5.4729,-5.5535,-5.6005,-5.6378,-5.6574,-5.6574,-5.6747,-5.7124,-5.7124,-5.7045,-5.6925,-5.7419,-5.6975,-5.5892,-5.5981,-5.5621,-5.4876,-5.3144,-5.2115,-5.1395,-4.9424,-4.6366,-4.2919,0.0,-4.07,-3.9928,-3.7879,-3.8109,-3.9242,-3.8924,-3.9441,-4.0604,-4.2947,-4.4825,-4.6417,-4.7567,-4.9922,-5.2322,-5.3534,-5.5497,-5.7297,-5.7898,-5.8427,-5.8353,-5.6722,-5.6775,-5.6759,-5.5547,-5.706,-5.8931,-6.0325,-6.1826,-6.3202,-6.432,-6.396,-6.3202,-6.2103,-6.1705,0.0,0.0,0.0,0.0,-6.398,-6.4055,-6.4301,-6.4869,-6.4907,-6.4907,-6.4907,-6.4907,-6.4907,-6.4907,-6.4907,-6.4907,-6.4888,-6.3202,-6.1818,-6.0719,-6.0151,-5.9902,-5.9902,-5.9902,-5.9902,-5.9902,-5.9902,-5.975,-5.939,-5.8274,-5.8521,-5.9317,-5.7914,-5.7403,-5.7232,0.0,0.0,0.0,0.0,0.0,0.0,0.0,0.0,0.0,0.0,0.0,0.0,0.0,0.0,0.0,0.0,0.0,-3.8897,-4.0887,-4.3692,-4.6177,-4.8211,-5.0082,-5.1545,-5.2627,-5.3093,-5.3579,-5.408,-5.408,-5.43,-5.4668,-5.4668,-5.4559,-5.4357,-5.4872,-5.4586,-5.369,-5.3561,-5.3442,-5.3139,-5.1144,-5.0107,-4.9499,-4.7243,-4.4215,0.0,-3.8716,-3.7443,-3.6654,-3.5639,-3.6494,-3.7977,-3.799,-3.9464,-4.1625,-4.3922,-4.6165,-4.8403,-5.0632,-5.2813,-5.4825,-5.6323,-5.746,-5.847,-5.9365,-5.888,-5.7776,-5.6141,-5.5938,-5.5392,-5.3067,-5.4472,-5.6547,-5.8299,-5.9961,-6.1743,-6.3732,-6.3753,-6.3298,-6.2484,-6.1913,-6.1553,0.0,0.0,0.0,-6.3526,-6.3886,-6.432,-6.4869,-6.4907,-6.4907,-6.4907,-6.4907,-6.4907,-6.4907,-6.4907,-6.4604,-6.3998,-6.2917,-6.1515,-5.9902,-5.9902,-5.9902,-5.9902,-5.9902,-5.9902,-5.9902,-5.9902,-5.9902,-5.9715,-5.8047,-5.8407,-5.9712,-5.8009,-5.7403,-5.7327,0.0,0.0,0.0,0.0,0.0,0.0,0.0,0.0,0.0,0.0,0.0,0.0,0.0,0.0,0.0,0.0,0.0,0.0,-3.9129,-4.086,-4.2941,-4.5448,-4.6358,-4.7581,-4.9222,-4.9218,-4.999,-5.1577,-5.1577,-5.2,-5.2818,-5.2818,-5.2375,-5.1577,-5.1483,-5.1018,-5.0308,-5.0184,-5.0035,-4.9854,-4.8858,-4.7832,-4.6562,-4.3346,-4.0923,-3.8807,-3.5668,-3.4056,-3.3359,-3.2817,-3.4889,-3.757,-3.685,-4.0449,-4.516,-4.6095,-4.8136,-5.0803,-5.4029,-5.4465,-5.4939,-5.8805,-5.8635,-5.7914,-5.943,-5.7952,-5.5901,-5.4662,-5.3731,-5.236,0.0,0.0,-5.2963,-5.5648,-5.7573,-5.9582,-6.2048,-6.3128,-6.3336,0.0,0.0,0.0,0.0,0.0,0.0,-6.3601,0.0,-6.485,-6.4907,-6.4907,-6.4907,-6.4907,-6.4907,-6.4907,-6.4907,-6.4869,-6.4017,-6.2389,-6.2351,-6.1477,-5.9902,-5.9902,-5.9902,-5.9902,-5.9902,-5.9902,-5.9902,-5.9902,-5.9902,-5.9715,-5.8047,-5.8407,-5.9712,-5.8009,-5.7422,-5.746,0.0,0.0,0.0,0.0,0.0,0.0,0.0,0.0,0.0,0.0,0.0,0.0,0.0,0.0,0.0,0.0,0.0,0.0,-3.7538,-3.8726,-4.026,-4.2202,-4.3544,-4.4744,-4.5835,-4.632,-4.6787,-4.7201,-4.7201,-4.7317,-4.7528,-4.7528,-4.7413,-4.7221,-4.7847,-4.8001,-4.7799,-4.758,-4.7515,-4.7354,-4.4875,-4.4096,-4.4171,-4.1875,-3.9816,-3.8008,-3.6727,-3.5254,-3.4096,-3.528,-3.8411,-4.1864,-4.2253,-4.3983,-4.6234,-4.8117,-5.0586,-5.3044,-5.4503,-5.6569,-5.8274,-5.8066,-5.8653,-5.9051,-5.8218,-5.7554,-5.6307,-5.3505,-5.2752,-5.1466,0.0,0.0,0.0,-5.4223,-5.7782,0.0,-6.2218,-6.3657,0.0,-6.2559,0.0,-6.4017,-6.3355,-6.3884,0.0,0.0,-6.4168,-6.4225,-6.4869,-6.4907,-6.4907,-6.4907,-6.4907,-6.4907,-6.4907,-6.4263,-6.3412,-6.2389,-6.1743,-6.089,-5.9902,-5.9902,-5.9902,-5.9902,-5.9902,-5.9902,-5.9902,-5.9902,-5.9902,-5.9715,-5.8047,-5.8407,-5.9712,-5.8009,-5.7801,-5.8274,0.0,0.0,0.0,0.0,0.0,0.0,0.0,0.0,0.0,0.0,0.0,0.0,0.0,0.0,0.0,0.0,0.0,0.0,0.0,-3.7373,-3.8539,-3.9902,-4.1039,-4.2036,-4.292,-4.3219,-4.3555,-4.3932,-4.3932,-4.4124,-4.4489,-4.4489,-4.4297,-4.3951,-4.4451,-4.4654,-4.4635,-4.4086,-4.4097,0.0,0.0,-4.1699,-4.1219,-4.0033,-3.8446,-3.6777,-3.5963,-3.6224,-3.7285,-3.9469,-4.2094,-4.4778,-4.6643,-4.79,-4.9112,-5.1246,-5.2979,-5.4579,-5.6133,-5.7933,-5.9222,-5.8635,-5.8388,-5.7933,-5.6607,-5.5148,-5.3271,-5.0296,-4.969,-4.8628,-4.516,-4.7757,0.0,0.0,0.0,0.0,-6.1553,-6.36,-6.468,0.0,-6.485,0.0,-6.5286,-6.5362,-6.5438,0.0,-6.4661,-6.4396,-6.4869,-6.4907,-6.4907,-6.4907,-6.4907,-6.4907,-6.4907,-6.4055,-6.3185,-6.2389,-6.1515,-6.0679,-5.9902,-5.9902,-5.9902,-5.9902,0.0,-5.9902,-5.9902,-5.9902,-5.9902,-5.9772,-5.8464,-5.8748,-5.975,-5.8445,-5.8274,-5.8594,0.0,0.0,0.0,0.0,0.0,0.0,0.0,0.0,0.0,0.0,0.0,0.0,0.0,0.0,0.0,0.0,0.0,0.0,0.0,0.0,-3.7575,-3.8449,-3.9135,-3.9904,-4.0771,-4.0491,-4.07,-4.147,-4.1346,-4.1681,-4.2412,-4.2412,-4.2027,-4.1288,-4.128,-4.128,-4.1242,-4.0465,-4.0436,-4.0935,-4.1005,-3.9996,-3.8427,0.0,-3.7178,-3.5758,-3.4803,-3.6932,-4.0607,-4.3581,-4.548,-4.717,-5.0124,-5.1745,-5.2887,-5.4534,-5.5193,-5.5887,-5.8085,-5.8783,-5.8995,-5.9598,-5.7952,-5.5906,-5.4825,-5.2059,-4.904,-4.6544,-4.5937,-4.5122,-4.2685,-4.4497,-4.7093,-4.9381,0.0,-5.7422,-6.0527,-6.3126,-6.5002,-6.5703,-6.6082,-6.6575,-6.7333,-6.6727,-6.6272,-6.6272,-6.5419,-6.4907,-6.4907,-6.4907,-6.4907,-6.4907,-6.4907,-6.4907,-6.4907,-6.3941,-6.309,-6.2389,-6.1401,-6.0568,-5.9902,-5.9902,-5.9902,-5.9902,0.0,0.0,-5.9902,-5.9902,-5.9902,-5.9809,-5.8881,-5.9089,-5.9807,-5.8878,-5.8669,-5.871,0.0,0.0,0.0,0.0,0.0,0.0,0.0,0.0,0.0,0.0,-3.5931,-3.5181,0.0,0.0,0.0,0.0,0.0,0.0,0.0,0.0,0.0,-3.8385,-3.9102,-3.9876,-4.0707,-3.9928,-3.9592,-3.9719,-3.9008,-3.8738,-3.8873,-3.8873,-3.8796,-3.8661,-3.86,-3.8588,-3.8569,-3.8295,-3.7912,-3.7496,-3.7899,-3.7898,-3.7652,-3.7292,0.0,0.0,-3.644,-3.7,-3.8538,-4.2884,-4.7147,-5.0865,-5.2387,-5.4301,-5.5975,-5.5718,-5.6787,-5.8142,-5.8594,-5.92,-5.9563,-5.9049,-5.7535,-5.5602,-5.3347,-5.0808,0.0,-4.5653,-4.4592,-4.3587,-4.1749,-4.4573,-4.7567,-4.8717,-5.3556,-5.7858,-5.9828,-6.2254,-6.3884,0.0,-6.5893,-6.7238,-6.739,0.0,0.0,0.0,0.0,0.0,-6.4907,-6.4907,-6.4907,-6.4907,-6.4907,-6.4907,-6.4907,-6.3374,-6.254,-6.237,-6.0833,-6.0053,-5.9902,-5.9902,-5.9902,-5.9902,0.0,0.0,-5.9902,-5.9902,-5.9902,-5.975,-5.8218,-5.8559,-5.9715,-5.818,-5.8502,-5.9468,0.0,0.0,0.0,0.0,0.0,0.0,0.0,-3.4948,-3.6584,-3.9585,-3.9231,-3.837,-3.7577,-3.743,-3.7046,0.0,0.0,0.0,0.0,0.0,0.0,0.0,-3.9282,-3.983,-4.0681,0.0,0.0,0.0,0.0,0.0,0.0,0.0,0.0,0.0,0.0,0.0,-3.6543,-3.6436,-3.6457,-3.6597,-3.7242,-3.7557,0.0,0.0,0.0,0.0,-3.7069,-3.8342,-4.0325,-4.2014,-4.6182,-5.0982,-5.2774,-5.4385,-5.5729,-5.6439,-5.7002,-5.7592,-5.8461,-5.9279,-5.9809,-5.9428,-5.7403,-5.475,-5.1774,0.0,0.0,-4.228,-4.101,-4.0309,-3.9949,-4.2242,0.0,-4.7049,-5.084,-5.4693,-5.8123,-6.0359,0.0,-6.4073,-6.5722,-6.6897,0.0,0.0,0.0,0.0,0.0,0.0,-6.4907,-6.4907,-6.4907,-6.4907,-6.4907,-6.468,-6.4244,-6.2995,-6.2178,-6.1705,-6.032,-5.9647,-5.963,-5.949,-5.9436,-5.9436,0.0,0.0,-5.9647,-5.9836,-5.9902,-5.9788,-5.854,-5.8805,-5.975,-5.8521,-5.8843,-5.9674,0.0,0.0,0.0,0.0,0.0,0.0,0.0,-3.6471,-3.843,-4.1662,-4.1955,-4.143,-4.0207,-3.9139,-3.8115,0.0,0.0,0.0,0.0,0.0,0.0,0.0,0.0,-3.9985,0.0,0.0,0.0,0.0,0.0,0.0,0.0,0.0,0.0,0.0,0.0,0.0,0.0,-3.5218,-3.5673,0.0,0.0,0.0,0.0,0.0,0.0,0.0,0.0,-3.9155,-4.1216,-4.1127,-4.4168,-4.8446,-5.1083,-5.3078,-5.4797,-5.662,-5.6948,-5.7062,-5.854,-5.9279,-5.9677,-5.9864,-5.7099,-5.3575,-5.0594,-4.6544,0.0,-3.9353,-3.8007,-3.7666,-3.8538,-3.9911,-4.2033,0.0,-4.8155,-5.1599,-5.6455,-5.8881,-6.1269,0.0,-6.5514,0.0,0.0,0.0,0.0,0.0,0.0,0.0,0.0,-6.4907,-6.4907,-6.4907,-6.4907,-6.449,-6.3601,-6.2787,-6.1936,-6.0995,-5.992,-5.9363,-5.9308,-5.9101,-5.9004,-5.9004,0.0,0.0,0.0,-5.9613,-5.9767,-5.9791,-5.8673,-5.8864,-5.9671,-5.8618,-5.885,-5.9509,0.0,0.0,0.0,0.0,0.0,0.0,0.0,-3.7519,-3.9988,-4.2643,-4.2865,-4.2735,-4.2581,-4.1133,-3.9584,0.0,0.0,0.0,0.0,0.0,0.0,0.0,0.0,0.0,0.0,0.0,0.0,0.0,0.0,0.0,0.0,0.0,0.0,0.0,0.0,0.0,0.0,0.0,0.0,0.0,0.0,0.0,0.0,0.0,0.0,0.0,0.0,0.0,-3.727,-4.0396,-4.1739,-4.2675,-4.6077,-5.0567,-5.4812,-5.5954,0.0,0.0,-5.956,-5.9314,-5.8992,-5.9731,-5.6247,-5.2153,-5.0315,0.0,-4.1787,-3.9239,-3.8007,-3.7666,-3.8538,-3.9418,-4.1113,-4.4478,-4.7757,-5.1409,-5.5697,-5.9014,-6.1667,-6.3488,0.0,0.0,0.0,0.0,0.0,0.0,0.0,0.0,0.0,-6.4907,-6.4907,-6.4907,-6.4907,-6.449,-6.3601,-6.2787,-6.185,-6.0733,-5.9831,-5.9271,-5.9043,-5.9004,-5.9004,-5.9004,0.0,0.0,0.0,-5.9159,-5.94,-5.9701,-5.7544,-5.7827,-5.921,-5.7379,-5.7716,-5.8989,0.0,0.0,0.0,0.0,0.0,0.0,-3.5768,-3.7487,-3.9954,-4.3958,-4.3568,-4.3282,-4.4288,-4.2908,-4.1036,-3.8885,0.0,0.0,0.0,0.0,0.0,0.0,0.0,0.0,0.0,0.0,0.0,0.0,0.0,0.0,0.0,0.0,0.0,0.0,0.0,0.0,0.0,0.0,0.0,0.0,0.0,0.0,0.0,0.0,0.0,0.0,0.0,0.0,0.0,0.0,-3.9823,-4.1466,-4.1313,-4.481,-4.96,-5.294,-5.4769,-5.6095,-5.7895,-5.89,-5.939,-5.9219,-5.6152,-5.2475,-4.9798,-4.5293,-4.0972,-3.8443,-3.6851,-3.631,-3.7666,-3.7769,-3.9096,-4.3474,-4.444,-4.6487,-5.1679,-5.4408,-5.7043,-6.0264,0.0,0.0,0.0,0.0,0.0,0.0,0.0,0.0,0.0,-6.4907,-6.4907,-6.4907,-6.4396,-6.3732,-6.2881,-6.1873,-6.0899,-5.9907,-5.9193,-5.8786,-5.8681,-5.8492,-5.8385,-5.8406,0.0,0.0,0.0,-5.8965,-5.914,-5.9158,-5.7248,-5.7697,-5.9156,-5.723,-5.766,-5.9122,0.0,0.0,0.0,0.0,0.0,-3.351,-3.5471,-3.7214,-3.9657,-4.3378,-4.3245,-4.3254,-4.4431,-4.3292,-4.1695,-3.9906,-4.0345,0.0,0.0,0.0,0.0,0.0,0.0,0.0,0.0,0.0,0.0,0.0,0.0,0.0,0.0,0.0,0.0,0.0,0.0,0.0,0.0,0.0,0.0,0.0,0.0,0.0,0.0,0.0,0.0,0.0,0.0,0.0,0.0,0.0,0.0,-4.0189,-3.8665,-4.0567,-4.4325,-4.9156,-5.2073,-5.4124,-5.6114,-5.7706,-5.8672,-5.8085,-5.5432,-5.2134,-4.9026,-4.4611,-4.0479,-3.7921,-3.6064,-3.5344,-3.6794,-3.7002,-3.8178,-4.1958,-4.264,-4.4364,-4.9229,-5.1774,-5.4522,0.0,0.0,0.0,0.0,0.0,0.0,0.0,0.0,0.0,0.0,0.0,-6.4642,-6.4888,-6.4055,-6.3169,-6.2266,-6.1221,-6.0154,-5.9121,-5.8684,-5.8446,-5.8338,-5.8111,-5.7997,0.0,0.0,0.0,0.0,-5.864,-5.8825,-5.8835,-5.696,-5.7432,-5.8915,-5.6962,-5.7392,-5.8873,0.0,0.0,0.0,0.0,0.0,0.0,-3.3888,-3.6916,-3.9365,-4.0138,-4.1626,-4.2601,-4.262,-4.1848,-4.1305,-4.1286,-4.0988,0.0,0.0,0.0,0.0,0.0,0.0,0.0,0.0,0.0,-4.0912,-4.1788,-4.2643,0.0,0.0,0.0,0.0,0.0,0.0,0.0,0.0,0.0,0.0,0.0,0.0,0.0,0.0,0.0,0.0,0.0,0.0,0.0,0.0,0.0,0.0,0.0,0.0,-3.9073,-4.0034,-4.492,-4.9846,-5.3878,-5.4712,-5.5564,-5.6228,-5.6228,-5.3707,-5.0561,-4.8003,-4.4194,-4.0479,-3.7921,-3.6064,-3.5173,-3.6055,-3.7552,-3.8955,-3.9805,-4.3436,-4.7018,-4.9551,-5.276,0.0,0.0,0.0,0.0,0.0,0.0,0.0,0.0,0.0,0.0,0.0,0.0,-6.4017,-6.4869,-6.4055,-6.3043,-6.1921,-6.1111,-5.9945,-5.8511,-5.8511,-5.8338,-5.7997,-5.7997,0.0,0.0,0.0,0.0,0.0,-5.8156,-5.8385,-5.8777,-5.6504,-5.6808,-5.8264,-5.6334,-5.6624,-5.8065,0.0,0.0,0.0,0.0,0.0,0.0,0.0,-3.4849,-3.6927,-4.0549,-4.0501,-4.0988,-4.3251,-4.2264,-4.1397,-4.1305,-4.0875,0.0,0.0,0.0,0.0,0.0,0.0,0.0,0.0,0.0,-4.0875,-4.1788,-4.198,-4.2522,-4.3357,-4.259,0.0,0.0,0.0,0.0,0.0,0.0,0.0,0.0,0.0,0.0,0.0,0.0,0.0,0.0,0.0,0.0,0.0,0.0,0.0,0.0,0.0,0.0,0.0,-3.9907,-4.4258,-4.8875,-5.0277,-5.2096,-5.3196,-5.149,-4.9822,-4.8098,-4.6146,-4.2469,-3.9088,-3.7685,-3.6064,-3.5173,-3.6036,-3.6642,-3.8186,-4.1901,-4.3625,-4.5767,0.0,0.0,0.0,0.0,0.0,0.0,0.0,0.0,0.0,0.0,0.0,0.0,0.0,0.0,-6.3147,-6.3998,-6.2633,-6.1642,-6.1092,-6.006,-5.9186,-5.8489,-5.8272,-5.8092,-5.7997,-5.7997,0.0,0.0,0.0,0.0,0.0,-5.8042,-5.7802,-5.7408,-5.6709,-5.6934,-5.7582,-5.6735,-5.7236,-5.8316,0.0,0.0,0.0,0.0,0.0,0.0,0.0,-3.3729,-3.5516,-3.8556,-3.8632,-3.9423,-4.2091,-4.1231,-4.067,-4.1214,-4.0729,0.0,0.0,0.0,0.0,0.0,0.0,0.0,-4.0334,-4.0368,-4.1142,-4.2628,-4.2766,-4.3376,-4.4378,-4.4067,-4.3213,-4.1928,0.0,0.0,0.0,0.0,0.0,0.0,0.0,0.0,0.0,0.0,0.0,0.0,0.0,0.0,0.0,0.0,0.0,0.0,0.0,0.0,0.0,0.0,-3.9943,-4.3383,-4.6076,-4.8628,-5.0131,-4.8497,-4.721,-4.5892,-4.4121,-4.0835,-3.7886,-3.7005,-3.5797,-3.5059,-3.5609,-3.651,-3.8064,-4.0858,-4.2659,-4.4933,0.0,0.0,0.0,0.0,0.0,0.0,0.0,0.0,0.0,0.0,0.0,0.0,0.0,0.0,-6.1931,-6.2332,-6.144,-6.0823,-6.0511,-5.9376,-5.864,-5.8316,-5.8111,-5.7997,-5.7997,0.0,0.0,0.0,0.0,0.0,0.0,-5.7666,-5.7262,-5.6785,-5.6473,-5.6643,-5.7076,-5.6893,-5.7434,-5.8272,0.0,0.0,0.0,0.0,0.0,0.0,0.0,-3.3302,-3.4887,-3.4889,-3.631,-3.794,-3.9635,-3.9153,-3.9353,-4.0961,0.0,0.0,0.0,0.0,0.0,0.0,0.0,0.0,-4.0196,-4.0373,-4.1598,-4.3911,-4.4585,-4.4967,-4.5095,-4.6587,-4.5066,-4.1085,-4.1887,0.0,0.0,0.0,0.0,0.0,0.0,0.0,0.0,0.0,0.0,0.0,0.0,0.0,0.0,0.0,0.0,0.0,0.0,0.0,0.0,0.0,0.0,0.0,0.0,-4.4984,-4.6783,-4.6463,-4.5254,-4.3683,-4.193,-3.9233,0.0,-3.6053,-3.5358,-3.4936,-3.5135,-3.7059,-3.8481,-3.8102,-4.137,-4.4857,0.0,0.0,0.0,0.0,0.0,0.0,0.0,0.0,0.0,0.0,0.0,0.0,0.0,0.0,0.0,-6.0208,-6.0417,-6.036,-6.0048,-5.9011,-5.8338,-5.7997,-5.7997,-5.7997,-5.7997,0.0,0.0,0.0,0.0,0.0,0.0,-5.7093,-5.6744,-5.6657,-5.5919,-5.6098,-5.6799,-5.6854,-5.7308,-5.7932,0.0,0.0,0.0,0.0,0.0,0.0,0.0,0.0,0.0,0.0,-3.5758,-3.7116,-3.8803,-3.8803,-3.9107,0.0,0.0,0.0,0.0,0.0,0.0,0.0,0.0,0.0,-4.0128,-4.0757,-4.1722,-4.3013,-4.4375,-4.5606,-4.6656,-4.65,-4.533,-4.3343,-4.2249,-4.0775,0.0,0.0,0.0,0.0,0.0,0.0,0.0,0.0,0.0,0.0,0.0,0.0,0.0,0.0,0.0,0.0,0.0,0.0,0.0,0.0,-3.5034,-3.5544,-3.7809,0.0,-4.1191,-3.9861,-3.9576,-3.9502,0.0,-3.7423,-3.5953,-3.5918,-3.5294,-3.5375,-3.7437,-3.7761,-3.9126,-4.3417,-4.5483,-4.7624,0.0,0.0,0.0,0.0,0.0,0.0,0.0,0.0,0.0,0.0,0.0,0.0,0.0,0.0,0.0,-5.9308,-5.8927,-5.8668,-5.8603,-5.8542,-5.8338,-5.7997,-5.7997,-5.7997,-5.7997,0.0,0.0,0.0,0.0,0.0,-5.7038,-5.6653,-5.626,-5.5882,-5.5895,-5.6163,-5.6559,-5.7204,-5.7413,-5.734,0.0,0.0,0.0,0.0,0.0,0.0,0.0,0.0,0.0,0.0,0.0,0.0,0.0,0.0,0.0,0.0,0.0,0.0,0.0,0.0,0.0,0.0,0.0,-4.0139,-4.0015,-4.0855,-4.2085,-4.3705,-4.4856,-4.6142,-4.7517,-4.7481,-4.5985,-4.3243,-4.1178,-3.9808,0.0,0.0,0.0,0.0,0.0,0.0,0.0,0.0,0.0,0.0,-3.5386,-3.6021,0.0,-3.7594,-3.8247,-3.8517,0.0,0.0,0.0,0.0,-3.4257,-3.4443,-3.5318,-3.7493,-3.9452,-3.9188,-3.9188,-3.9186,-3.8971,-3.7489,-3.6177,-3.629,-3.5664,-3.5702,-3.7621,-3.8221,-3.9611,0.0,-4.5811,0.0,0.0,0.0,0.0,0.0,0.0,0.0,0.0,0.0,0.0,0.0,0.0,0.0,0.0,0.0,0.0,0.0,-5.7932,-5.7807,-5.8082,-5.8209,-5.8115,-5.7815,-5.7815,-5.7745,-5.7625,0.0,0.0,0.0,0.0,0.0,-5.6566,-5.5931,-5.5489,-5.529,-5.5783,-5.6085,-5.6316,-5.714,-5.7313,-5.7105,0.0,0.0,0.0,0.0,0.0,0.0,0.0,0.0,0.0,0.0,0.0,0.0,0.0,0.0,0.0,0.0,0.0,0.0,0.0,0.0,0.0,0.0,-4.0177,-4.0127,-4.0089,-4.0889,-4.2351,-4.4516,-4.5496,-4.6513,-4.7535,-4.8567,-4.6628,-4.2194,-3.9918,-3.8921,0.0,0.0,0.0,0.0,0.0,0.0,0.0,0.0,0.0,0.0,0.0,0.0,0.0,-3.7551,-3.8344,-3.8612,-3.8014,0.0,0.0,0.0,0.0,0.0,-3.4326,-3.6766,-3.9444,-4.0451,-4.0528,-4.0253,-3.9914,-3.8331,-3.6951,-3.6988,-3.641,-3.6316,-3.7575,-3.9106,0.0,0.0,0.0,0.0,0.0,0.0,0.0,0.0,0.0,0.0,0.0,0.0,0.0,0.0,0.0,0.0,0.0,0.0,0.0,0.0,-5.732,-5.737,-5.79,-5.789,-5.7768,-5.7553,-5.7553,-5.7412,-5.7188,-5.7188,0.0,0.0,0.0,0.0,-5.6072,-5.5142,-5.4846,-5.5033,-5.5641,-5.5977,-5.6208,-5.6877,-5.7058,-5.6736,0.0,0.0,0.0,0.0,0.0,0.0,0.0,0.0,0.0,0.0,0.0,0.0,0.0,0.0,0.0,0.0,0.0,0.0,0.0,0.0,0.0,-4.0205,-4.0029,-4.0274,-4.098,-4.1135,-4.1723,-4.2791,-4.5483,-4.6461,-4.5845,-4.783,-4.646,-4.2213,-4.0487,-3.9347,-3.8765,-3.8946,0.0,0.0,0.0,0.0,0.0,0.0,0.0,0.0,0.0,0.0,0.0,-3.5188,-3.6688,-3.8298,-3.5993,0.0,0.0,0.0,0.0,0.0,-3.5386,-3.7364,-3.8589,-3.7795,-3.8415,-3.9282,-3.9437,-3.8518,-3.7697,-3.7872,-3.7612,-3.814,-4.0624,-4.182,-4.3602,0.0,0.0,0.0,0.0,0.0,0.0,0.0,0.0,0.0,0.0,0.0,0.0,0.0,0.0,0.0,0.0,0.0,0.0,0.0,0.0,-5.6925,-5.701,-5.7213,-5.7289,-5.7264,-5.7264,-5.7239,-5.7188,-5.7188,-5.6851,0.0,0.0,-5.5637,-5.5009,-5.4614,-5.5018,-5.5774,-5.5442,-5.5864,-5.6685,-5.6837,-5.6302,-5.5213,0.0,0.0,0.0,0.0,0.0,0.0,0.0,0.0,0.0,0.0,0.0,0.0,0.0,0.0,0.0,0.0,0.0,0.0,0.0,0.0,-4.0557,-4.1453,-4.0916,-4.079,-4.1188,-4.2169,-4.346,-4.5103,-4.7503,-4.848,-4.8079,-4.6584,-4.461,-4.2213,-4.0157,-3.9056,-3.8723,-3.9031,-3.9151,0.0,0.0,0.0,0.0,0.0,0.0,0.0,0.0,0.0,0.0,0.0,-3.644,-3.7767,-3.7079,0.0,0.0,0.0,0.0,0.0,-3.4017,-3.5481,-3.6922,-3.7819,-3.9946,-4.1851,-4.2016,-4.1065,-4.0229,-4.0656,-3.9844,-3.9703,-4.1832,0.0,-4.5778,-5.0903,0.0,0.0,0.0,0.0,0.0,0.0,0.0,0.0,0.0,0.0,0.0,0.0,0.0,0.0,0.0,0.0,0.0,0.0,0.0,0.0,-5.6573,-5.6689,-5.6847,-5.6959,-5.6959,-5.6899,-5.675,-5.6319,-5.6001,0.0,0.0,-5.4813,-5.465,-5.4786,-5.5129,-5.5584,-5.5777,-5.6143,-5.6519,-5.6089,-5.5097,-5.3671,0.0,0.0,0.0,0.0,0.0,0.0,0.0,0.0,0.0,0.0,0.0,0.0,0.0,0.0,0.0,0.0,0.0,0.0,0.0,-3.9992,-4.0677,-4.1971,-4.1483,-4.1571,-4.2401,-4.3387,-4.5061,-4.7448,-4.896,-4.9712,-4.9618,-4.5652,-4.3149,-4.1937,-3.99,-3.8891,-3.8738,-3.9129,-3.9205,0.0,0.0,0.0,0.0,0.0,0.0,0.0,0.0,0.0,0.0,0.0,0.0,0.0,0.0,0.0,0.0,-3.4951,-3.3787,-3.3192,-3.318,-3.4344,-3.614,-3.8437,-4.1151,-4.3539,-4.4603,-4.3638,-4.2819,-4.3849,-4.2711,-4.1915,0.0,-4.5057,0.0,0.0,0.0,0.0,0.0,0.0,0.0,0.0,0.0,0.0,0.0,0.0,0.0,0.0,0.0,0.0,0.0,0.0,0.0,0.0,0.0,0.0,-5.6401,-5.6401,-5.6492,-5.6689,-5.6689,-5.66,-5.6365,-5.558,-5.5312,-5.545,-5.4445,-5.4239,-5.4697,-5.5053,-5.5312,-5.5544,-5.6151,-5.6276,-5.599,-5.5027,-5.3778,-5.2394,0.0,0.0,0.0,0.0,0.0,0.0,0.0,0.0,0.0,0.0,0.0,0.0,0.0,0.0,0.0,0.0,0.0,0.0,0.0,-3.966,-4.0144,-4.0278,-4.0875,-4.2716,-4.597,-4.463,-4.5106,-4.7577,-4.8217,-4.8243,-4.7673,-4.5585,-4.3388,-4.115,-4.0212,-3.9405,-3.8738,-3.9129,-3.9298,-3.9149,-3.7772,0.0,0.0,0.0,0.0,0.0,0.0,0.0,0.0,0.0,0.0,0.0,0.0,0.0,-3.7524,-3.4891,-3.4117,-3.4216,-3.4706,-3.6046,-3.7588,-3.8715,-3.9754,-4.1523,-4.5534,-4.5053,-4.4411,-4.6712,-4.6282,-4.5534,0.0,-4.8252,0.0,0.0,0.0,0.0,0.0,0.0,0.0,0.0,0.0,0.0,0.0,0.0,0.0,0.0,0.0,0.0,0.0,0.0,0.0,0.0,0.0,0.0,-5.6401,-5.6401,-5.6401,-5.6428,-5.6428,-5.6428,-5.6365,-5.558,-5.5205,-5.5178,-5.4367,-5.4438,-5.5161,-5.5187,-5.5651,-5.6311,-5.6383,-5.5937,-5.5116,-5.3599,-5.2511,-5.1547,0.0,0.0,0.0,0.0,0.0,0.0,0.0,0.0,0.0,0.0,0.0,0.0,0.0,0.0,0.0,0.0,0.0,0.0,0.0,-3.9055,-3.9918,-4.1464,-4.1317,-4.2576,-4.5525,-4.5546,-4.6664,-4.9023,-4.9445,-4.9273,-4.8487,-4.5413,-4.3204,-4.1772,-3.9955,-3.8982,-3.8723,-3.8989,-3.9192,-3.9175,-3.7823,0.0,0.0,0.0,0.0,0.0,0.0,0.0,0.0,0.0,-3.2855,-3.4543,-3.3863,-3.5331,-3.6876,-3.4779,-3.4161,-3.4148,-3.4228,-3.5477,-3.7128,-3.8623,-3.99,-4.1791,-4.5746,-4.6097,-4.6246,-4.8527,-4.8254,-4.7758,-4.8124,0.0,0.0,0.0,0.0,0.0,0.0,0.0,0.0,0.0,0.0,0.0,0.0,0.0,0.0,0.0,0.0,0.0,0.0,0.0,0.0,0.0,0.0,0.0,0.0,-5.6401,-5.6401,-5.6401,-5.6401,-5.6133,-5.5633,-5.483,-5.4447,-5.4429,-5.4126,-5.4447,-5.5205,-5.5205,-5.5384,-5.5598,-5.5116,-5.4438,-5.3689,-5.3125,-5.2394,-5.1458,0.0,0.0,0.0,0.0,0.0,0.0,0.0,0.0,0.0,0.0,0.0,0.0,0.0,0.0,0.0,0.0,0.0,0.0,-3.7837,-3.8159,-3.9182,-4.1143,-4.0953,-4.187,-4.4201,-4.5429,-4.7083,-4.9181,-4.9709,-4.9323,-4.7959,-4.5188,-4.3314,-4.2213,-4.0047,-3.9221,-3.9439,-3.9143,-3.898,-3.882,-3.7698,-3.7134,0.0,0.0,0.0,0.0,0.0,0.0,0.0,0.0,-3.2422,-3.3981,-3.3826,-3.5318,-3.6812,-3.5295,-3.5227,-3.5486,-3.4793,-3.5789,-3.7367,-3.8678,-4.031,-4.2567,-4.6243,-4.6906,-4.7468,-5.0046,-4.9916,-4.9491,-4.9887,0.0,0.0,0.0,0.0,0.0,0.0,0.0,0.0,0.0,0.0,0.0,0.0,0.0,0.0,0.0,0.0,0.0,0.0,0.0,0.0,0.0,0.0,0.0,0.0,-5.5776,-5.5651,-5.5651,-5.5651,-5.5491,-5.5187,-5.4358,-5.4126,-5.4358,-5.4108,-5.4447,-5.5187,-5.4937,-5.483,-5.4715,-5.3689,-5.2975,-5.2465,-5.194,-5.1262,-5.0423,0.0,0.0,0.0,0.0,0.0,0.0,0.0,0.0,0.0,0.0,0.0,0.0,0.0,0.0,0.0,0.0,0.0,0.0,-3.6187,-3.6946,-3.778,-3.8652,-3.9456,-4.0677,-4.2344,-4.4144,-4.5887,-4.76,-4.8589,-4.785,-4.5488,-4.4949,-4.3828,-4.2231,-4.0616,-4.0359,-4.0983,-3.9571,-3.8632,-3.8028,-3.7369,-3.7141,-3.6825,0.0,0.0,0.0,0.0,0.0,0.0,0.0,-3.3128,-3.3917,-3.4711,-3.6256,-3.7609,-3.6577,-3.7561,-3.8576,-3.6797,-3.7477,-3.875,-3.8974,-4.0904,-4.3636,-4.713,-4.7491,-4.8067,-5.1334,-5.1371,-5.082,-5.082,-5.082,0.0,0.0,0.0,0.0,0.0,0.0,0.0,0.0,0.0,0.0,0.0,0.0,0.0,0.0,0.0,0.0,0.0,0.0,0.0,0.0,0.0,0.0,0.0,-5.4394,-5.4001,-5.4001,-5.3983,-5.4394,-5.5169,-5.4358,-5.4429,-5.5152,-5.434,-5.4447,-5.5134,-5.4304,-5.3966,-5.3787,-5.2279,-5.1672,-5.1476,-4.9906,-4.8835,-4.8216,0.0,0.0,0.0,0.0,0.0,0.0,0.0,0.0,0.0,0.0,0.0,0.0,0.0,0.0,0.0,0.0,0.0,0.0,-3.5287,-3.6083,-3.6927,-3.7761,-3.8614,-3.9551,-4.062,-4.1764,-4.3798,-4.6763,-4.7207,-4.6445,-4.458,-4.4081,-4.3296,-4.2249,-4.1222,-4.0249,-3.935,-3.8357,-3.766,-3.7156,-3.6914,-3.6857,-3.663,0.0,0.0,0.0,0.0,0.0,0.0,0.0,0.0,0.0,-3.1904,-3.4375,-3.7194,-3.5138,-3.6158,-3.7691,-3.6607,-3.7881,-3.974,-4.05,-4.3268,-4.6265,-4.8061,-4.8787,-4.9786,-5.233,-5.2197,-5.1628,-5.1628,0.0,0.0,0.0,0.0,0.0,0.0,0.0,0.0,0.0,0.0,0.0,0.0,0.0,0.0,0.0,0.0,0.0,0.0,0.0,0.0,0.0,0.0,0.0,0.0,0.0,-5.4001,-5.3983,-5.3474,-5.3617,-5.434,-5.4108,-5.4126,-5.4322,-5.409,-5.4126,-5.4233,-5.2939,-5.1726,-5.0648,-5.0185,-5.0006,-4.9959,-4.9471,-4.915,-4.8907,0.0,0.0,0.0,0.0,0.0,0.0,0.0,0.0,0.0,0.0,-3.4827,-3.5263,0.0,0.0,0.0,0.0,0.0,0.0,0.0,-3.5211,-3.6045,-3.6889,-3.7742,-3.8869,-4.0374,-4.1245,-4.2371,-4.381,-4.4506,-4.4279,-4.3253,-4.3183,-4.2848,-4.2286,-4.1791,-4.1038,-4.0065,-3.8927,-3.82,-3.7791,-3.774,-3.7854,-3.7735,0.0,0.0,0.0,0.0,0.0,0.0,0.0,0.0,0.0,-3.1949,-3.3337,-3.5133,-3.4881,-3.6064,-3.7603,-3.8083,-3.9735,-4.1579,-4.2609,-4.5078,-4.7758,-4.9714,-5.0453,-5.1186,0.0,-5.2564,-5.2087,-5.2417,0.0,0.0,0.0,0.0,0.0,0.0,0.0,0.0,0.0,0.0,0.0,0.0,0.0,0.0,0.0,0.0,0.0,0.0,0.0,0.0,0.0,0.0,0.0,0.0,0.0,0.0,-5.3082,-5.2636,-5.2814,-5.3564,-5.3564,-5.3564,-5.3546,-5.3242,-5.2896,-5.2503,-5.1262,-5.0191,-4.9257,-4.8978,-4.8871,-4.8817,-4.8514,-4.8389,-4.8318,0.0,0.0,0.0,0.0,0.0,0.0,0.0,0.0,0.0,0.0,-3.4386,-3.4531,0.0,0.0,0.0,0.0,0.0,0.0,0.0,0.0,-3.5211,-3.6168,-3.7106,-3.8717,-4.1018,-4.1719,-4.1321,-3.9786,-4.1211,-4.1785,-4.1599,-4.2195,-4.241,-4.2304,-4.2304,-4.2139,-4.1754,-4.0139,-3.9194,-3.8738,-3.8725,-3.9045,-3.9156,-3.5845,0.0,0.0,0.0,0.0,0.0,0.0,0.0,0.0,-3.3673,-3.292,-3.2372,-3.5147,-3.6648,-3.7896,-4.0157,-4.2047,-4.3658,-4.4779,-4.64,-4.8492,-5.1564,-5.2069,-5.2142,-5.3023,0.0,-5.2325,0.0,0.0,0.0,0.0,0.0,0.0,0.0,0.0,0.0,0.0,0.0,0.0,0.0,0.0,0.0,0.0,0.0,0.0,0.0,0.0,0.0,0.0,0.0,0.0,0.0,0.0,0.0,0.0,-5.169,-5.2029,-5.2697,-5.284,-5.2858,-5.2751,-5.1851,-5.103,-5.0227,-4.9513,-4.915,-4.9008,-4.8336,-4.8091,-4.8002,-4.7288,-4.6998,-4.6998,0.0,0.0,0.0,0.0,0.0,0.0,0.0,0.0,0.0,0.0,0.0,0.0,0.0,0.0,0.0,0.0,0.0,0.0,0.0,0.0,-3.4624,-3.613,-3.8224,-3.9616,-4.0165,-3.9721,-3.9315,-3.8955,-4.0417,-4.0691,-3.9864,-4.1104,-4.1894,-4.2304,-4.2304,-4.0891,-3.8429,-3.6762,-3.5465,-3.4498,-3.4333,-3.5271,-3.6534,-3.4469,-3.3987,0.0,0.0,0.0,0.0,0.0,0.0,0.0,-3.2409,-3.2407,-3.2736,-3.3254,-3.4908,-3.6798,-3.797,-4.0359,-4.2927,-4.4412,-4.6985,-4.9505,-5.0847,-5.1099,-5.1481,-5.2892,-5.3078,0.0,0.0,0.0,0.0,0.0,0.0,0.0,0.0,0.0,0.0,0.0,0.0,0.0,0.0,0.0,0.0,0.0,0.0,0.0,0.0,0.0,0.0,0.0,0.0,0.0,-5.1958,-5.1779,-5.169,0.0,-5.169,-5.1458,-5.1066,-5.234,-5.2572,-5.1869,-5.0441,-4.9388,-4.868,-4.852,-4.805,-4.7479,-4.7301,-4.727,-4.7252,-4.7051,-4.6998,-4.6998,0.0,0.0,0.0,0.0,0.0,0.0,0.0,0.0,0.0,0.0,0.0,0.0,0.0,0.0,0.0,0.0,0.0,0.0,0.0,-3.3468,-3.4624,-3.668,-3.8016,-3.8906,-3.9323,-3.8519,-3.7893,-3.7495,-3.8669,-3.9107,-3.8908,-4.0705,-4.1656,-4.1896,-4.2171,-4.0928,-3.8576,-3.7312,-3.6297,-3.5525,-3.5318,-3.606,-3.6961,-3.4377,-3.3383,-3.3133,-3.1561,0.0,0.0,0.0,0.0,0.0,0.0,0.0,-3.0894,-3.185,-3.2978,-3.4633,-3.7786,-4.0432,-4.2965,-4.5736,0.0,-4.9812,-5.0618,-5.0802,-5.1041,-5.1885,0.0,0.0,0.0,0.0,0.0,0.0,0.0,0.0,0.0,0.0,0.0,0.0,0.0,0.0,0.0,0.0,0.0,0.0,0.0,0.0,0.0,0.0,0.0,0.0,0.0,0.0,-5.169,-5.169,-5.169,-5.169,-5.1315,-5.0709,-4.9959,-5.0798,-5.0959,-5.0477,-4.9299,-4.855,-4.8181,-4.7788,-4.7395,-4.6998,-4.6998,-4.6998,-4.6998,-4.6998,-4.6998,-4.6998,0.0,0.0,0.0,0.0,0.0,0.0,0.0,0.0,0.0,0.0,0.0,0.0,0.0,0.0,0.0,0.0,0.0,0.0,0.0,-3.3354,-3.4813,-3.6879,-3.7249,-3.7666,-3.8254,-3.7571,-3.687,-3.6206,-3.687,-3.7848,-3.9126,-4.0763,-4.1665,-4.1887,-4.2062,-4.1158,-3.9482,-3.8484,-3.765,-3.6963,-3.65,-3.6744,-3.7007,-3.3947,-3.2457,-3.1742,-2.9793,-2.9457,-3.015,-3.1713,0.0,0.0,0.0,0.0,-2.8924,-3.0843,-3.142,-3.2537,-3.7492,-4.0432,-4.3057,-4.7095,-4.8636,0.0,-5.0196,-5.038,-5.038,0.0,0.0,0.0,0.0,0.0,0.0,0.0,0.0,0.0,0.0,0.0,0.0,0.0,0.0,0.0,0.0,0.0,0.0,0.0,0.0,0.0,0.0,0.0,0.0,0.0,0.0,-5.169,-5.169,-5.1547,-5.1476,-5.1476,-5.0548,-4.9745,-4.9121,-4.8954,-4.8972,-4.9085,-4.8323,-4.7984,-4.7949,-4.7288,-4.6998,-4.6998,-4.6998,-4.6998,-4.6998,-4.6998,-4.6998,-4.6998,0.0,0.0,0.0,0.0,0.0,0.0,0.0,0.0,0.0,0.0,-3.4049,-3.3953,-3.346,-3.3417,0.0,0.0,0.0,0.0,-3.2341,0.0,0.0,-3.5211,-3.6632,-3.7135,-3.6548,-3.6415,-3.632,-3.6206,-3.632,-3.8252,-4.1855,-4.1217,-4.197,-4.3759,-4.2214,-4.0237,-3.7961,-3.6223,-3.4363,-3.2428,-3.0936,-3.0948,-3.1747,-3.0678,-3.0639,-3.1223,-3.1692,-3.1926,-3.2041,-3.2286,-3.2371,0.0,0.0,0.0,0.0,-3.0371,-3.1083,-3.2096,-3.4086,0.0,-4.2233,0.0,-4.7351,-4.7626,0.0,0.0,0.0,0.0,0.0,0.0,0.0,0.0,0.0,0.0,0.0,0.0,0.0,0.0,0.0,0.0,0.0,0.0,0.0,0.0,0.0,0.0,0.0,0.0,0.0,0.0,-5.169,-5.169,-5.169,0.0,-5.169,-5.1012,-5.0673,-5.0637,-4.9216,-4.8448,-4.8323,-4.7622,-4.7676,-4.8306,-4.752,-4.7158,-4.7163,-4.7033,-4.6998,-4.6998,-4.6998,-4.6998,-4.6998,-4.6998,-4.6998,-4.6998,0.0,0.0,0.0,0.0,0.0,0.0,0.0,0.0,0.0,0.0,0.0,-3.3714,-3.2676,-3.2558,0.0,0.0,0.0,0.0,-3.3042,-3.3828,0.0,-3.4889,-3.4718,-3.487,-3.5457,-3.4112,-3.3866,-3.4794,-3.4794,-3.6856,-4.0806,-4.1713,-4.3371,-4.554,-4.3957,-4.1899,-3.9519,-3.732,-3.4847,-3.2302,-3.1463,-3.1788,-3.2558,-3.0323,-3.0637,-3.2032,-3.0157,-2.9857,-3.0408,-3.0844,-3.1318,-3.1574,0.0,0.0,0.0,0.0,-2.9526,-3.0586,-3.4433,-3.8297,-4.1975,0.0,-4.6212,-4.6526,-4.6874,0.0,0.0,0.0,0.0,0.0,0.0,0.0,0.0,0.0,0.0,0.0,0.0,0.0,0.0,0.0,0.0,0.0,0.0,0.0,0.0,0.0,0.0,0.0,0.0,-5.037,-5.037,-5.037,-5.037,0.0,-5.037,-5.0013,-4.962,-4.9192,-4.852,-4.7966,-4.752,-4.7158,-4.7176,-4.752,-4.7163,-4.6998,-4.6998,-4.6998,-4.6998,-4.6998,-4.6998,-4.6998,-4.6998,-4.6998,-4.6998,-4.6998,0.0,0.0,0.0,0.0,0.0,0.0,0.0,0.0,0.0,0.0,0.0,0.0,-3.1924,0.0,0.0,0.0,0.0,0.0,-3.2855,0.0,0.0,0.0,0.0,-3.3221,-3.4245,-3.2255,-3.1914,-3.3373,-3.3327,-3.5637,-4.0178,-4.2112,-4.4636,-4.7479,-4.5834,-4.3638,-4.1043,-3.8756,-3.6237,-3.3702,-3.3125,-3.3308,-3.3706,-3.1622,-3.2098,-3.3433,-3.002,-2.9315,-2.9964,-2.9883,-3.0307,-3.0711,0.0,0.0,0.0,0.0,0.0,-2.9015,0.0,0.0,-3.99,-4.305,-4.4403,-4.5094,0.0,0.0,0.0,0.0,0.0,0.0,0.0,0.0,0.0,0.0,0.0,0.0,0.0,0.0,0.0,0.0,0.0,0.0,0.0,0.0,0.0,0.0,0.0,0.0,-4.9293,-4.9293,-4.9293,-4.9293,-4.9293,-4.9293,-4.9293,-4.9097,-4.8639,-4.7895,-4.7895,-4.7592,-4.6998,-4.6998,-4.6998,-4.6998,-4.6998,-4.6998,-4.6998,-4.6998,-4.6998,-4.6998,-4.6998,-4.6998,-4.6998,-4.6998,-4.6998,-4.6998,0.0,0.0,0.0,0.0,0.0,0.0,0.0,0.0,0.0,0.0,0.0,0.0,-3.1526,-3.2274,-3.2348,-3.1111,0.0,0.0,0.0,0.0,0.0,0.0,0.0,0.0,-3.2549,-3.1659,-3.1621,-3.2473,-3.227,-3.5509,-4.1875,-4.2326,-4.5142,-4.973,-4.7306,-4.442,-4.127,-3.9421,-3.7661,-3.5968,-3.4376,-3.3324,-3.288,-3.4611,-3.535,-3.5273,-3.3723,-3.3299,-3.3052,0.0,0.0,-2.984,0.0,-2.8752,-2.8558,0.0,0.0,0.0,0.0,-3.2688,0.0,-3.9161,-4.1441,0.0,0.0,0.0,0.0,0.0,0.0,0.0,0.0,0.0,0.0,0.0,0.0,0.0,0.0,0.0,0.0,0.0,0.0,0.0,0.0,0.0,0.0,0.0,0.0,0.0,-4.9293,-4.9293,-4.9293,-4.9293,-4.9293,-4.9293,-4.9293,-4.8603,-4.7859,-4.7051,-4.7051,-4.7033,-4.6998,-4.6998,-4.6998,-4.6998,-4.6998,-4.6998,-4.6998,-4.6998,-4.6998,-4.6998,-4.6998,-4.6998,-4.6998,-4.6998,-4.6998,-4.6998,0.0,0.0,0.0,0.0,0.0,0.0,0.0,0.0,0.0,0.0,0.0,0.0,0.0,-3.1494,-3.1841,-3.1599,-3.2502,0.0,0.0,0.0,0.0,0.0,0.0,0.0,-3.2397,-3.0056,-2.9702,-3.1504,-3.0876,-3.3016,-3.7769,-4.0507,-4.2957,-4.5086,-4.575,-4.5107,-4.3321,-4.006,-3.7771,-3.6248,-3.5642,-3.5532,-3.5781,-3.597,-3.7054,-3.8224,-3.6161,0.0,0.0,0.0,0.0,-3.1119,-2.9663,-2.8866,-2.8179,-2.6822,-2.7163,-2.8367,0.0,0.0,0.0,-3.652,-3.9003,-4.091,0.0,0.0,0.0,0.0,0.0,0.0,0.0,0.0,0.0,0.0,0.0,0.0,0.0,0.0,0.0,0.0,0.0,0.0,0.0,0.0,0.0,0.0,0.0,0.0,-4.7818,-4.7818,-4.7818,-4.7818,-4.7818,-4.7818,-4.7818,-4.7551,-4.7306,-4.6998,-4.6998,-4.6998,-4.6998,-4.6998,-4.6998,-4.6962,-4.6444,-4.6516,-4.6998,-4.6998,-4.6998,-4.6944,-4.6427,-4.623,-4.6159,-4.5659,-4.5463,-4.5463,0.0,0.0,0.0,0.0,0.0,0.0,0.0,0.0,-3.2037,-3.1013,0.0,0.0,0.0,0.0,-3.2477,-3.2157,-3.2973,-3.3462,-3.3403,-3.3178,0.0,0.0,0.0,0.0,-3.191,-2.9539,-2.8909,-3.0158,-3.0086,-3.1542,-3.4535,-3.8046,-4.0467,-4.1937,-4.2727,-4.3534,-4.4103,-4.1167,-3.9294,-3.8285,-3.8028,-3.823,-3.8741,-3.9108,-4.0136,-4.1077,0.0,0.0,0.0,0.0,0.0,0.0,-3.0858,-2.8997,-2.7213,-2.5903,-2.6507,-2.7744,-2.8464,0.0,0.0,0.0,0.0,-3.7938,0.0,0.0,0.0,0.0,0.0,0.0,0.0,0.0,0.0,0.0,0.0,0.0,0.0,0.0,0.0,0.0,0.0,0.0,0.0,0.0,0.0,0.0,0.0,0.0,-4.6998,-4.6998,-4.6873,-4.6605,-4.6855,-4.6855,-4.6587,-4.6855,-4.6998,-4.6998,-4.673,-4.6587,-4.6587,-4.632,-4.6195,-4.6159,-4.5641,-4.5856,-4.6569,-4.6302,-4.6195,-4.6141,-4.5624,-4.541,-4.5338,-4.4799,-4.4603,-4.4563,0.0,0.0,0.0,0.0,0.0,0.0,0.0,0.0,-3.2352,-3.219,0.0,0.0,0.0,0.0,0.0,-3.2876,-3.2158,-3.1707,-3.1519,-3.2379,0.0,0.0,0.0,0.0,-3.1054,-3.0294,-2.9441,-2.8493,-2.9962,-3.1351,-3.2748,-3.5087,-3.7881,-4.082,-3.8505,-3.9677,-4.3276,-4.2433,-4.2158,-4.2231,-4.137,-4.1095,-4.1495,-4.4061,-4.4603,0.0,-4.2119,-4.1144,0.0,-3.7576,0.0,0.0,-3.2393,-2.9087,-2.5703,-2.4908,-2.5244,-2.5932,0.0,0.0,0.0,0.0,0.0,0.0,0.0,0.0,0.0,0.0,0.0,0.0,0.0,0.0,0.0,0.0,0.0,0.0,0.0,0.0,0.0,0.0,0.0,0.0,0.0,0.0,0.0,0.0,0.0,-4.6926,-4.6926,-4.6926,-4.6569,-4.5802,-4.6516,-4.6551,-4.5766,-4.6534,-4.6926,-4.6908,-4.6141,-4.5766,-4.5749,-4.4942,-4.4603,-4.4603,-4.4567,-4.4995,-4.5677,-4.4906,-4.4603,-4.4603,-4.4567,-4.4567,-4.4549,-4.4531,-4.4531,-4.447,0.0,0.0,0.0,0.0,0.0,-3.3121,-3.2101,-3.2206,-3.2215,0.0,0.0,0.0,-3.3153,-3.4844,-3.5991,-3.6119,-3.489,-3.4062,-3.3995,-3.3167,-3.2643,-3.2563,-3.2199,-3.194,-3.1863,-3.048,-2.9286,-2.836,-2.9206,-2.9758,-3.0092,-3.2498,-3.4711,-3.671,-3.7257,-3.8117,-3.9071,-3.7519,-3.8962,-4.2104,-3.9991,-4.0978,0.0,0.0,0.0,0.0,0.0,-4.4267,-4.345,0.0,-3.9357,-3.688,0.0,-2.9097,-2.7108,-2.6394,-2.7165,-2.806,-2.7121,0.0,0.0,0.0,0.0,0.0,0.0,0.0,0.0,0.0,0.0,0.0,0.0,0.0,0.0,0.0,0.0,0.0,0.0,0.0,0.0,0.0,0.0,0.0,0.0,0.0,0.0,0.0,0.0,-4.5267,-4.5267,-4.5267,-4.516,-4.4924,-4.516,-4.516,-4.4924,-4.516,-4.5267,-4.5267,-4.5053,-4.4924,-4.4906,-4.4692,-4.4603,-4.4567,-4.4032,-4.3925,-4.4178,-4.446,-4.4603,-4.4549,-4.3996,-4.38,-4.3711,-4.3144,-4.2929,-4.2888,0.0,0.0,0.0,-3.3725,-3.4318,-3.4603,-3.3441,-3.3988,-3.4389,0.0,0.0,0.0,-3.5569,-3.6945,-3.7588,-3.7052,-3.5477,-3.4362,-3.4014,-3.3115,-3.2653,-3.2766,-3.2171,-3.186,-3.1998,-3.075,-2.9644,-2.8687,-2.9058,-2.9167,-2.9023,-3.0436,-3.1959,-3.3518,-3.4101,-3.493,-3.5743,-3.3916,-3.6286,-4.1242,-4.0552,0.0,0.0,-4.4583,-4.513,0.0,0.0,0.0,-4.4985,-4.3997,-4.1769,0.0,0.0,0.0,-2.9524,-2.8135,-2.8868,-2.981,-2.8398,-2.9184,-3.0161,0.0,0.0,0.0,0.0,0.0,0.0,0.0,0.0,0.0,0.0,0.0,0.0,0.0,0.0,0.0,0.0,0.0,0.0,0.0,0.0,0.0,0.0,0.0,0.0,0.0,-4.4696,-4.4603,-4.4603,-4.4603,-4.446,-4.4139,-4.4442,-4.4442,-4.4139,-4.4442,-4.4603,-4.4603,-4.4282,-4.4139,-4.4121,-4.3804,-4.3643,-4.3625,-4.3197,-4.3001,-4.3036,-4.3465,-4.3643,-4.3607,-4.3179,-4.3001,-4.2947,-4.2465,-4.2308,-4.2207,0.0,0.0,-3.5943,-3.443,-3.5772,-3.6568,-3.5066,-3.6273,-3.7437,0.0,-3.7713,-3.841,-4.0102,-4.0212,-3.9294,-3.7147,-3.5275,-3.3917,-3.3201,-3.2803,-3.2638,-3.2729,-3.2164,-3.1834,-3.1834,-3.116,-3.0277,-2.9198,-2.9246,-2.913,-2.8877,-2.8877,-2.9666,-3.1066,-3.0331,-3.1235,-3.3217,-3.1776,-3.4434,-3.9729,-4.1596,-4.2776,0.0,0.0,-4.6031,-4.5669,-4.6375,-4.6158,-4.5544,-4.5471,-4.3067,0.0,0.0,0.0,0.0,-3.0234,-3.0687,-3.1624,-3.015,-3.0327,-3.1006,0.0,0.0,0.0,-3.3508,-3.3862,0.0,0.0,0.0,0.0,0.0,0.0,0.0,0.0,0.0,0.0,0.0,0.0,0.0,0.0,0.0,0.0,0.0,0.0,0.0,-4.47,-4.4467,-4.4335,-4.4335,-4.4335,-4.4032,-4.3393,-4.3996,-4.4036,-4.3354,-4.4014,-4.4335,-4.4357,-4.3675,-4.3375,-4.3358,-4.2626,-4.2308,-4.2308,-4.2308,-4.2308,-4.2308,-4.2308,-4.2308,-4.2308,-4.2308,-4.2308,-4.2308,-4.2308,-4.2267,-4.2124,0.0,-3.3922,-3.4713,-3.4532,-3.546,-3.6392,-3.6841,-3.6696,-3.7,-3.8303,-3.9019,-4.0286,-4.256,-4.2213,-4.1644,-4.1167,-3.8465,-3.6703,-3.6556,-3.4082,-3.2894,-3.3532,-3.2994,-3.2667,-3.2667,-3.1906,-3.075,-2.9198,-2.9093,-2.872,-2.8026,-2.8026,-2.8482,-2.9326,-2.9788,-3.0563,-3.1606,-3.3031,0.0,-3.757,-3.8507,0.0,-4.4953,-4.5363,-4.6248,-4.7244,-4.7428,-4.7352,-4.6957,-4.5021,-4.3141,-4.1006,0.0,0.0,0.0,-3.3587,-3.4045,-3.5023,-3.353,-3.3615,0.0,0.0,0.0,0.0,0.0,-3.0577,0.0,0.0,0.0,0.0,0.0,0.0,0.0,0.0,0.0,0.0,0.0,0.0,0.0,0.0,0.0,0.0,0.0,0.0,-4.3522,-4.3315,-4.294,-4.2733,-4.2733,-4.2733,-4.268,-4.2537,-4.2662,-4.268,-4.2537,-4.268,-4.2733,-4.2733,-4.259,-4.2519,-4.2519,-4.2358,-4.2308,-4.2308,-4.2308,-4.2308,-4.2308,-4.2308,-4.2308,-4.2308,-4.2308,-4.2308,-4.2308,-4.2308,-4.2103,-4.1753,-3.2971,-3.3895,-3.4782,-3.488,-3.6114,-3.7394,-3.8255,-3.8562,-3.9276,-4.0873,-4.2139,-4.3039,-4.346,-4.3497,-4.2855,-4.124,-3.9258,-3.7386,-3.5766,-3.4119,-3.3201,-3.3201,-3.2906,-3.2938,-3.3344,-3.209,-3.1262,-3.0899,-2.949,-2.8834,-2.8868,-2.8006,-2.8628,-3.0435,-2.9984,-3.1056,-3.3193,-3.3055,-3.4403,-3.6857,-3.9173,0.0,-4.4622,-4.5723,-4.6654,-4.7356,-4.7356,-4.7421,-4.715,-4.4748,-4.355,0.0,0.0,-3.8741,-3.869,0.0,-3.6523,-3.7162,-3.562,0.0,0.0,-3.376,0.0,0.0,0.0,0.0,0.0,0.0,0.0,0.0,0.0,0.0,0.0,0.0,0.0,0.0,0.0,0.0,0.0,0.0,0.0,0.0,0.0,0.0,-4.3068,-4.2767,-4.2472,-4.2308,-4.2308,-4.2308,-4.2308,-4.2308,-4.2308,-4.2308,-4.2308,-4.2308,-4.2308,-4.2308,-4.2308,-4.2308,-4.2308,-4.2308,-4.2308,-4.2308,-4.2308,-4.2308,-4.2308,-4.2308,-4.2308,-4.2308,-4.2308,-4.2308,-4.2287,-4.2065,-4.1878,-4.1622,-3.2971,-3.4026,-3.5006,-3.5074,-3.678,-3.8409,-3.9221,-4.0312,-4.1686,-4.3497,-4.4856,-4.5296,-4.4287,-4.4635,-4.3956,-4.1497,-4.0139,-3.8267,-3.5605,-3.4706,-3.4064,-3.3568,-3.3078,-3.3293,-3.4266,-3.2414,-3.1725,-3.2337,-2.9979,-2.9152,-2.9702,-2.8294,-2.913,-3.1787,-3.0588,-3.2029,-3.523,-3.3218,0.0,-3.7577,0.0,-4.2443,-4.3225,-4.5636,-4.6534,-4.6569,-4.6873,-4.7098,-4.6912,-4.4704,-4.409,-4.3748,-4.0852,-4.054,0.0,0.0,0.0,0.0,0.0,0.0,0.0,0.0,0.0,-3.4839,0.0,0.0,0.0,-3.3995,0.0,0.0,0.0,0.0,0.0,0.0,0.0,0.0,0.0,0.0,0.0,0.0,0.0,0.0,0.0,0.0,-4.2304,-4.2634,-4.198,-4.1765,-4.2272,-4.2308,-4.2308,-4.2308,-4.2308,-4.2308,-4.2308,-4.2308,-4.2267,-4.2187,-4.2267,-4.2225,-4.2082,-4.2246,-4.2267,-4.2187,-4.2267,-4.2267,-4.2187,-4.2187,-4.2145,-4.2103,-4.2246,-4.2308,-4.2267,-4.1941,-4.1731,-4.1512,-3.2664,-3.3616,-3.4321,-3.4622,-3.6487,-3.829,-3.9395,-4.028,-4.1733,-4.4233,-4.4727,-4.5296,-4.6562,-4.614,-4.5902,-4.625,-4.3589,-4.1735,-4.1368,-3.7991,-3.6285,-3.6923,-3.4835,-3.4394,-3.5973,-3.3547,-3.1964,-3.136,-3.0218,-2.9342,-2.8752,-2.8558,-2.9317,-3.0887,-3.1412,-3.2972,-3.5203,0.0,-3.7041,0.0,-4.1056,-4.086,0.0,-4.3714,-4.4852,-4.5071,-4.648,-4.7002,-4.6775,0.0,-4.4635,-4.4392,0.0,-4.1865,-4.2322,0.0,0.0,0.0,0.0,0.0,0.0,0.0,-3.7625,0.0,0.0,0.0,-3.4069,-3.2192,0.0,0.0,0.0,0.0,0.0,0.0,0.0,0.0,0.0,0.0,0.0,0.0,0.0,0.0,0.0,0.0,0.0,-4.2627,-4.0383,-3.984,-4.218,-4.2308,-4.2308,-4.2308,-4.2308,-4.2308,-4.2308,-4.2308,-4.2124,-4.1774,-4.2145,-4.1977,-4.1346,-4.1998,-4.2124,-4.1774,-4.2145,-4.2086,-4.1774,-4.1774,-4.1578,-4.1391,-4.204,-4.2308,-4.2287,-4.2267,-4.1831,-4.1214,-3.1761,-3.2445,-3.3306,-3.4256,-3.5295,-3.6897,-3.9588,-4.245,-4.4346,-4.4492,-4.5754,-4.6868,-4.7487,-4.6732,-4.6508,-4.7306,0.0,-4.3178,0.0,0.0,-3.8265,-3.7192,-3.6154,-3.5718,-3.5948,-3.3894,-3.2455,-3.1769,-2.9363,-2.8527,-2.9165,-2.8149,-2.9456,-3.2693,-3.3017,0.0,-3.7862,0.0,-3.7541,0.0,0.0,0.0,0.0,-4.4268,-4.5998,-4.6088,-4.6748,-4.6998,-4.6748,0.0,-4.465,0.0,0.0,0.0,0.0,0.0,0.0,0.0,0.0,0.0,0.0,0.0,0.0,0.0,-3.4626,0.0,-3.3483,0.0,0.0,0.0,0.0,0.0,0.0,0.0,0.0,0.0,0.0,0.0,0.0,0.0,0.0,0.0,0.0,0.0,0.0,0.0,0.0,-3.9574,-4.1502,-4.2058,-4.2308,-4.2308,-4.2065,-4.1941,-4.1941,-4.1766,-4.1574,-4.1401,-4.1574,-4.1503,-4.1209,-4.1525,-4.1552,-4.1418,-4.1591,-4.1552,-4.1418,-4.1418,-4.1328,-4.1232,-4.1547,-4.1657,-4.1635,-4.1396,-4.1013,-4.058,-3.1533,-3.2147,-3.3021,-3.3838,-3.4765,-3.6669,-4.0363,-4.3623,-4.5486,-4.5035,-4.6309,-4.7563,-4.8395,-4.7814,-4.7889,-4.9133,-4.756,-4.5427,0.0,0.0,-4.0366,-3.863,-3.769,-3.6966,-3.6365,-3.4652,-3.3234,-3.2141,-2.9546,-2.879,-2.9722,-2.8522,-3.0003,-3.3678,-3.4421,-3.6667,-3.9841,0.0,-3.9059,-3.9916,-4.061,-4.0947,-4.1448,-4.4981,-4.6605,-4.6998,-4.6998,-4.6998,-4.6783,-4.541,-4.4781,0.0,-4.3222,0.0,0.0,0.0,0.0,0.0,-4.1397,0.0,0.0,0.0,0.0,0.0,0.0,0.0,0.0,0.0,0.0,0.0,0.0,0.0,0.0,0.0,0.0,0.0,0.0,0.0,0.0,0.0,0.0,0.0,0.0,0.0,0.0,0.0,0.0,0.0,-4.0206,-4.1078,-4.157,-4.1682,-4.1621,-4.1556,-4.1556,-4.1328,-4.1146,-4.103,-4.1163,-4.1076,-4.0907,-4.1117,-4.1123,-4.103,-4.1146,-4.1123,-4.103,-4.103,-4.0984,-4.0907,-4.0907,-4.0843,-4.0772,-4.07,-4.0603,-4.0417,-3.2516,-3.3367,-3.4,-3.3263,-3.5555,-3.8633,-4.1995,-4.2627,-4.3626,-4.6103,-4.5816,0.0,0.0,0.0,0.0,0.0,0.0,-4.9462,-4.8594,0.0,-4.2717,-4.2718,-3.9715,-3.8051,0.0,-3.631,-3.4303,-3.201,-3.1691,-3.1049,-3.009,-3.0285,-3.1158,-3.2664,-3.5207,-3.7666,-3.9948,-4.0681,-4.2751,-4.541,-4.3982,-4.4732,-4.6587,0.0,-4.5641,-4.6998,-4.6998,0.0,0.0,-4.6034,-4.5249,0.0,0.0,0.0,0.0,0.0,0.0,0.0,0.0,0.0,0.0,-3.8708,0.0,0.0,0.0,0.0,-3.5388,0.0,0.0,0.0,0.0,0.0,-3.3948,-3.2589,0.0,0.0,0.0,0.0,0.0,0.0,0.0,0.0,0.0,0.0,0.0,0.0,0.0,0.0,-3.8188,-3.9083,-3.9694,-4.0149,-4.0854,-4.1232,-4.1232,-4.1209,-4.1007,-4.0628,-4.1007,-4.0836,-4.0146,-4.0866,-4.0984,-4.0652,-4.103,-4.0984,-4.0628,-4.0628,-4.0427,-4.0121,-4.0121,-3.9969,-3.9816,-4.0556,-4.0984,-4.1095,-3.3722,-3.5253,-3.6049,-3.4217,-3.5621,-3.8044,-4.1139,-4.3068,-4.506,0.0,0.0,0.0,0.0,-5.2115,-5.2538,0.0,0.0,-5.1364,-4.9996,-4.7201,0.0,0.0,0.0,-4.0087,0.0,0.0,-3.5364,-3.386,-3.1701,-3.0854,-3.1289,-3.0571,-3.1303,-3.3353,-3.6007,-3.7933,0.0,0.0,0.0,0.0,0.0,-4.491,-4.6926,0.0,0.0,-4.6975,-4.6684,-4.6754,0.0,-4.6383,-4.5333,-4.4218,-4.397,-4.2979,-4.1899,-4.1899,-4.2086,0.0,0.0,0.0,-4.191,-3.9912,0.0,0.0,0.0,0.0,0.0,0.0,0.0,0.0,0.0,0.0,-3.3382,-3.2413,-3.1379,0.0,0.0,0.0,0.0,0.0,0.0,0.0,0.0,0.0,0.0,0.0,0.0,0.0,0.0,-3.8753,-3.9621,-4.0092,-4.0562,-4.0795,-4.0795,-4.0597,-4.0402,-4.0254,-4.0402,-4.0328,-4.0096,-4.037,-4.0402,-4.0296,-4.0402,-4.0402,-4.0254,-4.0254,-4.0196,-4.007,-3.9893,-4.0083,-4.04,-4.0163,-3.9882,-3.9564,-3.5653,-3.7019,-3.7541,-3.5427,-3.6592,-3.876,-4.154,0.0,0.0,0.0,-4.9252,0.0,-5.3001,0.0,-5.3276,0.0,-5.3777,-5.2431,-5.06,-4.8745,0.0,-4.5817,-4.3549,0.0,0.0,-3.8987,-3.693,-3.5402,-3.3107,-3.2178,-3.256,-3.162,-3.1951,-3.3402,-3.6216,-3.7892,-3.8853,-4.2406,-4.3465,0.0,0.0,-4.5641,0.0,0.0,-4.6795,0.0,0.0,-4.6453,-4.6489,-4.5985,-4.4957,-4.3851,-4.357,-4.2587,-4.1512,-4.1512,-4.1792,-4.2107,-4.2251,-4.229,0.0,0.0,-3.926,0.0,-3.6217,0.0,0.0,0.0,0.0,0.0,0.0,0.0,-3.3448,-3.3015,-3.1357,-2.9204,0.0,0.0,0.0,0.0,0.0,0.0,0.0,0.0,-3.0845,-3.2151,0.0,0.0,0.0,0.0,-3.8265,-3.8915,-3.963,-4.0153,-4.041,-4.0221,-4.0096,-4.0096,-4.0096,-4.0096,-4.0096,-4.0096,-4.0096,-4.0096,-4.0096,-4.0096,-4.0096,-4.0096,-4.0045,-3.9935,-3.9781,-3.9857,-4.0037,-3.9555,-3.9077,-3.8628,-3.8026,-3.8582,0.0,0.0,-3.8467,0.0,0.0,0.0,-4.7305,0.0,-4.938,-5.0573,-5.2474,-5.2688,-5.3309,-5.4752,-5.4265,-5.2909,-5.0728,-4.9705,0.0,0.0,-4.5084,-4.3905,-4.2399,-4.0886,-3.8994,0.0,0.0,-3.4893,-3.387,-3.3396,-3.2998,-3.2838,-3.5805,0.0,-3.851,-4.2676,-4.4977,-4.5873,-4.6636,-4.6957,-4.6911,-4.6501,0.0,-4.6332,-4.6332,-4.6112,-4.5681,-4.4968,-4.416,-4.336,-4.2653,-4.1853,-4.1169,-4.1169,-4.1401,-4.1687,-4.1687,-4.198,-4.1892,-4.0356,0.0,0.0,0.0,0.0,-3.7702,0.0,0.0,0.0,0.0,0.0,0.0,-3.4179,-3.2113,-2.9516,0.0,0.0,0.0,0.0,0.0,0.0,0.0,-2.8148,-2.8351,-2.9603,-2.9714,0.0,0.0,0.0,0.0,-3.674,-3.8251,-3.9385,-4.0045,-4.0079,-4.0096,-4.0096,-4.0096,-4.0096,-4.0096,-4.0096,-4.0096,-4.0096,-4.0096,-4.0096,-4.0096,-4.0087,-3.9935,-3.9703,-3.9677,-3.9292,-3.8777,-3.8777,-3.8628,-3.8391,-3.822,-3.9943,-4.1214,0.0,-4.0385,-4.1393,0.0,0.0,0.0,0.0,-5.0561,-5.1715,-5.3566,-5.4087,-5.4335,-5.4359,-5.4533,0.0,0.0,0.0,0.0,-4.9177,-4.7246,-4.5788,-4.4823,-4.2766,0.0,-3.9531,0.0,-3.5634,-3.5106,-3.3548,-3.279,-3.2784,0.0,-3.6513,-3.7696,-4.1099,-4.3784,-4.5851,-4.6342,-4.6566,0.0,0.0,-4.576,-4.5503,-4.5503,-4.5632,-4.5743,-4.5243,-4.4173,-4.3019,-4.2837,-4.1847,-4.0748,-4.0748,-4.103,-4.1328,-4.1328,-4.1596,-4.175,-4.1343,-4.0552,-3.9734,0.0,0.0,0.0,0.0,0.0,0.0,0.0,0.0,0.0,-3.2733,-2.9887,-2.7669,0.0,0.0,0.0,0.0,0.0,0.0,0.0,0.0,-2.8444,-2.8184,0.0,0.0,0.0,0.0,0.0,-3.6237,-3.8591,-3.9656,-3.9276,-3.9842,-4.0096,-4.0096,-4.0096,-4.0096,-4.0096,-4.0096,-4.0096,-4.0096,-4.0096,-4.0096,-4.007,-3.9867,-3.9755,-3.9651,-3.9212,-3.8805,-3.8504,-3.8504,-3.8448,-3.8391,-3.9427,0.0,0.0,-4.2957,0.0,0.0,-4.5618,0.0,0.0,-4.9204,-5.0518,0.0,-5.2323,-5.3541,-5.4173,-5.3898,-5.4141,0.0,-5.2722,0.0,0.0,-4.9772,-4.8472,-4.7271,-4.6182,-4.3941,0.0,-4.0377,0.0,-3.5958,-3.5081,-3.3339,-3.2346,-3.2144,0.0,-3.5667,-3.6564,-4.0957,-4.3854,-4.5584,-4.6177,0.0,0.0,-4.5684,-4.5389,-4.5194,-4.5005,-4.5086,-4.5178,-4.4612,-4.3627,-4.2595,-4.2245,-4.134,-4.0377,-4.0377,-4.0669,-4.0937,-4.0937,-4.1197,-4.1468,-4.1468,-4.1078,-4.0603,-4.0284,-4.0046,-3.9877,0.0,0.0,0.0,0.0,0.0,0.0,0.0,0.0,0.0,0.0,0.0,0.0,0.0,0.0,0.0,0.0,0.0,0.0,0.0,0.0,0.0,0.0,0.0,0.0,0.0,-3.7683,-3.8904,-3.8988,-3.9419,-3.9622,-3.9622,-3.996,-4.0096,-4.0096,-4.0096,-4.0096,-4.0096,-4.0096,-4.0096,-4.0087,-3.9807,-3.9609,-3.9408,-3.8832,-3.8516,-3.8391,-3.8391,-3.8391,-3.8391,-4.1036,0.0,0.0,0.0,0.0,0.0,0.0,-4.728,0.0,-4.8728,0.0,-5.1073,-5.0604,-5.2317,-5.3501,-5.3501,0.0,-5.2942,-5.1606,-5.2114,-5.1555,-4.9526,-4.934,-4.8595,-4.7107,-4.4874,0.0,0.0,0.0,-3.6118,-3.4455,-3.2987,-3.1921,-3.1312,0.0,0.0,0.0,-4.1493,-4.4302,0.0,-4.5908,-4.6038,-4.5684,-4.5283,-4.5113,-4.5086,-4.4737,-4.4615,-4.4496,-4.3792,-4.2997,-4.2185,-4.1542,-4.0764,-4.0096,-4.0096,-4.0303,-4.0531,-4.0531,-4.0819,-4.1123,-4.1123,-4.1378,-4.1485,-4.0813,-4.0374,-4.0295,-4.1029,-3.9553,0.0,0.0,0.0,0.0,0.0,0.0,0.0,0.0,0.0,0.0,0.0,0.0,0.0,0.0,0.0,0.0,0.0,0.0,0.0,0.0,0.0,0.0,0.0,-3.6297,0.0,-3.8836,0.0,-3.8853,-3.8853,-3.9605,-3.996,-3.996,-4.0062,-4.0096,-4.0096,-4.0096,-4.007,-4.0037,-3.9738,-3.9408,-3.9044,-3.8572,-3.8391,-3.8391,-3.8391,-3.8391,-3.8391,-4.1862,0.0,0.0,0.0,0.0,-4.7506,-4.8477,-4.9144,-4.9828,-5.0634,-5.2092,-5.3008,-5.2909,-5.3264,-5.3501,-5.3501,-5.3501,0.0,0.0,0.0,0.0,-5.1775,-5.115,-5.0135,-4.8646,-4.6447,-4.4198,0.0,-3.9089,-3.6603,-3.4455,-3.2987,-3.1921,-3.1258,0.0,0.0,-3.8052,-4.1302,0.0,-4.391,-4.4975,-4.5363,-4.5257,-4.4858,-4.4709,-4.4709,-4.4643,-4.4615,-4.4581,-4.4445,-4.3481,-4.2269,-4.2151,-4.117,-4.0096,-4.0096,-4.0146,-4.0196,-4.0196,-4.0451,-4.07,-4.07,-4.1007,-4.1248,-4.1126,-4.1031,-4.1095,-4.1502,-4.1266,-4.0855,-4.039,0.0,0.0,0.0,0.0,0.0,0.0,0.0,0.0,0.0,0.0,0.0,0.0,0.0,0.0,0.0,0.0,0.0,0.0,0.0,0.0,0.0,0.0,0.0,0.0,0.0,0.0,-3.8108,-3.8836,-3.9191,-3.9208,-3.9825,-4.0096,-4.0096,-4.0096,-3.9969,-3.9738,-3.9435,-3.898,-3.8516,-3.842,-3.8391,-3.8391,-3.8391,-3.8391,-3.8391,0.0,0.0,0.0,0.0,0.0,0.0,0.0,-5.1116,0.0,-5.0744,-5.1285,-5.1742,-5.1742,-5.279,-5.3501,-5.3501,-5.3501,-5.3501,-5.3501,-5.3501,-5.3145,-5.2334,-5.1606,0.0,-4.9035,-4.6836,-4.4587,-4.2286,-3.9343,-3.6738,-3.4455,-3.2987,-3.1921,-3.1292,0.0,-3.5975,0.0,0.0,0.0,-4.3318,-4.4655,-4.5086,-4.4886,-4.4682,-4.4615,-4.4615,-4.4615,-4.4615,-4.4615,-4.4615,-4.3826,-4.2811,-4.2422,-4.1542,-4.0595,-4.0214,-4.0096,-4.0096,-4.0096,-4.0221,-4.0353,-4.0353,-4.0604,-4.089,-4.089,-4.1053,-4.1255,-4.1418,-4.1423,-4.0994,-3.9581,-3.7253,0.0,0.0,0.0,0.0,0.0,0.0,0.0,0.0,0.0,0.0,0.0,0.0,0.0,0.0,0.0,0.0,0.0,0.0,0.0,0.0,0.0,0.0,0.0,0.0,0.0,-3.733,-3.8447,-3.8988,-3.9022,-3.9774,-4.002,-3.9893,-3.9893,-3.9713,-3.9408,-3.9115,-3.875,-3.8391,-3.8391,-3.8391,-3.8391,-3.8391,-3.8391,-3.8391,0.0,-4.6769,0.0,0.0,-4.9357,0.0,-5.1116,-5.252,-5.2858,-5.1048,-5.0811,-5.0811,-5.0811,-5.2418,-5.3501,-5.3501,-5.3501,-5.3501,-5.3501,-5.3501,-5.323,-5.2587,-5.1843,-5.0828,-4.9509,-4.7462,-4.5128,0.0,0.0,-3.728,-3.4692,-3.3393,0.0,0.0,0.0,0.0,0.0,0.0,-4.2852,-4.3125,-4.4512,-4.4886,-4.4615,-4.4615,-4.4615,-4.4615,-4.4615,-4.4615,-4.4615,-4.4615,-4.4062,-4.3291,-4.2726,-4.1914,-4.1085,-4.0493,-4.0231,-4.0096,-4.0096,-4.0096,-4.0096,-4.0096,-4.0303,-4.0483,-4.0483,-4.0748,-4.1001,-4.1053,-4.1123,-4.0699,-3.9024,-3.7719,0.0,0.0,0.0,0.0,0.0,0.0,0.0,0.0,0.0,0.0,0.0,0.0,0.0,0.0,0.0,0.0,-2.4981,-2.6743,0.0,0.0,0.0,0.0,-3.6304,0.0,-3.7233,0.0,-3.8041,-3.8727,-3.8695,-3.9665,-3.9918,-3.9609,-3.9677,-3.9478,-3.9098,-3.8832,-3.86,-3.8391,-3.8391,-3.8391,-3.8391,-3.8391,-3.8391,-3.8424,0.0,0.0,0.0,0.0,0.0,0.0,0.0,-5.252,-5.3416,-5.3213,-5.3179,-5.3179,-5.3179,-5.3365,-5.3501,-5.3501,-5.3501,-5.3501,-5.3501,-5.3501,-5.3467,-5.3399,-5.2621,-5.1826,-5.0999,-4.9492,-4.6921,0.0,0.0,-3.9056,-3.5481,-3.4675,0.0,0.0,0.0,0.0,0.0,-4.1671,-4.2729,-4.3413,-4.4315,-4.4626,-4.4615,-4.4615,-4.4615,-4.4615,-4.4615,-4.4615,-4.4615,-4.4615,-4.4062,-4.3375,-4.3308,-4.2337,-4.1187,-4.1119,-4.0612,-4.0096,-4.0096,-4.0096,-4.0096,-4.0096,-4.0121,-4.0146,-4.0146,-4.0171,-4.0279,-4.0604,-4.0937,-4.0631,-3.8791,-3.8854,-3.8157,0.0,0.0,0.0,0.0,0.0,0.0,0.0,0.0,0.0,0.0,0.0,0.0,0.0,0.0,0.0,0.0,-2.5725,0.0,-3.1213,0.0,-3.3681,-3.4709,-3.586,0.0,-3.5718,-3.728,-3.7853,-3.7617,-3.9311,-3.9773,-3.9259,-3.9582,-3.9372,-3.8832,-3.8544,-3.842,-3.8391,-3.8391,-3.8391,-3.8391,-3.8391,-3.8391,-3.8489,0.0,0.0,0.0,0.0,0.0,0.0,0.0,-5.3112,-5.3501,-5.3501,-5.3501,-5.3501,-5.3501,-5.3501,-5.3501,-5.3501,-5.3501,-5.3501,-5.3501,-5.3501,-5.3501,-5.3501,-5.2739,-5.2164,-5.1877,-5.0422,-4.8274,0.0,0.0,-4.0865,-3.7618,-3.6417,0.0,0.0,0.0,-4.0206,-4.0849,-4.2337,-4.3149,-4.346,-4.4265,-4.4615,-4.4615,-4.4615,-4.4615,-4.4615,-4.4615,-4.4615,-4.4615,-4.4615,-4.4395,-4.4045,-4.3544,-4.2987,-4.2371,-4.1457,-4.0984,-4.0646,-4.0231,-4.0096,-4.0096,-4.0096,-4.0096,-4.0096,-4.0096,-4.0096,-4.0146,-4.0254,-4.0427,-4.0312,-3.9545,-3.8567,-3.7608,0.0,0.0,0.0,0.0,0.0,0.0,0.0,0.0,0.0,0.0,0.0,0.0,0.0,0.0,0.0,0.0,0.0,0.0,-2.8962,0.0,-3.3785,-3.4069,-3.5887,-3.6429,-3.5799,-3.6441,-3.6701,-3.6603,-3.777,-3.8317,-3.8311,-3.8734,-3.8794,-3.8544,-3.8448,-3.8391,-3.8391,-3.8391,-3.8391,-3.8391,-3.8391,-3.8391,-3.8505,-5.1488,0.0,-5.115,0.0,-5.2232,-5.2249,-5.3331,-5.3501,-5.3501,-5.3501,-5.3501,-5.3501,-5.3501,-5.3501,-5.3501,-5.3501,-5.3501,-5.3501,-5.3501,-5.3501,-5.3501,-5.3501,-5.2959,0.0,-5.2317,-5.1065,-4.9441,-4.7445,-4.5635,0.0,-4.0257,0.0,0.0,0.0,-4.1305,-4.2202,-4.2303,-4.4028,-4.4621,-4.4485,-4.5246,-4.5297,-4.4908,-4.4908,-4.4801,-4.4615,-4.4615,-4.4615,-4.4615,-4.4615,-4.4615,-4.4513,-4.3927,-4.3578,-4.3139,-4.1897,-4.1321,-4.0931,-4.0273,-3.9969,-3.9867,-3.9944,-3.9918,-3.9825,-3.9825,-3.9918,-3.9995,-4.007,-4.0096,-4.0096,-4.0096,-3.8657,-3.7489,0.0,0.0,0.0,0.0,0.0,0.0,0.0,-3.0025,-2.8213,0.0,0.0,0.0,0.0,0.0,0.0,0.0,0.0,0.0,0.0,0.0,0.0,0.0,0.0,-3.6588,-3.5902,-3.5967,-3.5959,-3.5918,-3.6776,-3.7469,-3.8041,-3.8305,-3.8391,-3.8391,-3.8391,-3.8391,-3.8391,-3.8391,-3.8391,-3.8391,-3.8391,-3.8391,-3.8537,-5.2147,-5.2283,-5.2536,-5.3348,-5.3484,-5.3484,-5.3501,-5.3501,-5.3501,-5.3501,-5.3501,-5.3501,-5.3501,-5.3501,-5.3501,-5.3501,-5.3501,-5.3501,-5.3501,-5.3501,-5.3501,0.0,0.0,-5.3112,-5.2317,-5.1589,-5.0473,-4.8968,0.0,0.0,-4.3308,0.0,-4.1542,-4.2303,-4.3887,-4.4564,-4.4699,-4.6921,-4.7428,-4.6819,-4.7581,-4.7005,-4.5703,-4.5703,-4.5229,-4.4615,-4.4615,-4.4615,-4.4615,-4.4615,-4.4615,-4.4615,-4.4598,-4.4045,-4.324,-4.2506,-4.1577,-4.0711,-4.024,-3.967,-3.9286,-3.9609,-3.9461,-3.9206,-3.9206,-3.9461,-3.9781,-4.0062,-4.0096,-4.0096,-4.0096,-3.9486,-3.8505,-3.7049,0.0,0.0,0.0,0.0,0.0,0.0,-2.9193,-2.7807,-2.779,0.0,0.0,0.0,0.0,0.0,0.0,0.0,0.0,-3.0377,-3.328,0.0,-3.4794,-3.6007,-3.6377,-3.5902,-3.5967,-3.5861,-3.5643,-3.6793,-3.7845,-3.8761,-3.8516,-3.8391,-3.8391,-3.8391,-3.8391,-3.8391,-3.8391,-3.8391,-3.8391,-3.8391,-3.8391,-3.8602,-5.2604,-5.2706,-5.279,-5.3059,-5.3314,-5.3501,-5.3501,-5.3501,-5.3501,-5.3501,-5.3501,-5.3501,-5.3501,-5.3501,-5.3501,0.0,-5.3501,-5.3501,0.0,-5.3501,-5.3501,-5.3501,-5.3501,-5.3382,-5.3129,-5.2892,-5.1775,-4.9746,0.0,0.0,0.0,-4.5754,-4.5877,-4.6177,-4.7158,-4.7597,-4.7648,-4.8359,-4.8511,-4.8325,-4.8562,-4.8376,-4.7902,-4.7394,-4.7056,-4.6735,-4.5703,-4.5348,-4.5235,-4.4512,-4.4258,-4.4212,-4.3993,-4.3884,-4.368,-4.2729,-4.1838,-4.1078,-4.0411,-3.9721,-3.9232,-3.9312,-3.9286,-3.9206,-3.9206,-3.9286,-3.9365,-3.9487,-3.9497,-3.9497,-3.9497,-3.8231,-3.7227,-3.7215,0.0,0.0,0.0,0.0,0.0,0.0,0.0,-2.9289,0.0,-2.7745,0.0,0.0,0.0,0.0,0.0,0.0,0.0,0.0,-3.2567,0.0,-3.4308,-3.5698,-3.6082,-3.541,-3.4929,-3.4911,-3.5363,-3.6686,-3.7464,-3.779,-3.8209,-3.8391,-3.8391,-3.8391,-3.8391,-3.8391,-3.8391,-3.8391,-3.8456,-3.8958,-3.9136,-3.936,-5.2868,-5.2903,-5.2903,-5.2903,-5.3246,-5.3501,-5.3501,-5.3501,-5.3501,-5.3501,-5.3501,-5.3501,-5.3501,-5.3501,0.0,-5.3501,-5.3501,0.0,-5.3501,-5.3501,-5.3501,-5.3501,-5.3501,-5.3501,-5.3501,0.0,0.0,-5.1369,-5.0794,-4.9813,-4.846,-4.8376,-4.8477,-4.8748,-4.9204,-4.9407,-4.9458,-4.9999,-5.0084,-4.9864,-5.0135,-4.9915,-4.9357,-4.89,-4.8562,-4.8173,-4.6972,-4.6258,-4.5786,-4.4838,-4.4257,-4.3848,-4.3519,-4.3565,-4.3551,-4.2734,-4.2117,-4.1465,-4.0553,-3.982,-3.927,-3.91,-3.898,-3.8925,-3.9034,-3.9044,-3.9071,-3.9179,-3.9055,-3.8947,-3.8947,-3.741,-3.6326,-3.6894,0.0,0.0,0.0,0.0,0.0,0.0,0.0,0.0,0.0,-2.9473,0.0,0.0,0.0,0.0,0.0,0.0,0.0,-2.9908,-3.341,0.0,-3.5299,-3.5687,-3.5655,-3.5195,-3.4716,-3.5024,-3.6011,-3.6902,-3.7441,-3.7744,-3.8197,-3.8391,-3.8391,-3.8391,-3.8391,-3.8391,-3.8391,-3.8391,-3.8489,-3.9217,-3.9505,-3.97,-5.2834,-5.2834,0.0,0.0,-5.3212,0.0,-5.3501,-5.3501,-5.3501,-5.3501,-5.3501,-5.3501,-5.3501,-5.3501,-5.3501,-5.3501,0.0,0.0,0.0,-5.3501,-5.3501,-5.3501,-5.3501,0.0,-5.3501,-5.2773,-5.2756,-5.3501,-5.1978,-5.1236,-5.1352,-4.9915,-4.9627,-5.0338,-5.0338,-5.0338,-5.0422,-5.1792,-5.1995,-5.1437,-5.2114,-5.1555,-5.0321,-5.0238,-4.9799,-4.9106,-4.825,-4.7342,-4.636,-4.5557,-4.4614,-4.3704,-4.3272,-4.3148,-4.3078,-4.2624,-4.2305,-4.1799,-4.064,-3.9907,-3.9385,-3.8874,-3.8572,-3.8476,-3.8738,-3.8777,-3.8843,-3.9098,-3.8783,-3.8435,-3.8435,-3.6876,-3.5721,-3.6151,-3.5013,-3.373,-3.2788,0.0,0.0,0.0,0.0,0.0,0.0,-3.1478,-3.2337,0.0,0.0,0.0,0.0,0.0,0.0,-3.2975,-3.5295,-3.6714,-3.7134,-3.5849,-3.5211,-3.5211,-3.5309,-3.6027,-3.7295,-3.7344,-3.776,-3.8391,-3.8391,-3.8391,-3.8391,-3.8391,-3.8391,-3.8391,-3.8391,-3.8391,-3.8489,-3.9295,-3.9586,-3.9781,0.0,0.0,-5.2449,-5.2449,-5.3024,-5.3501,-5.3501,-5.3501,-5.3501,-5.3501,-5.3501,-5.3501,-5.3501,-5.3501,-5.3501,-5.3501,-5.3501,-5.3501,-5.3501,-5.3501,-5.3501,-5.3501,-5.3501,-5.3501,-5.3501,-5.3315,-5.3315,-5.3501,-5.1978,-5.1809,-5.2942,-5.1978,-5.1944,-5.2706,-5.2706,-5.2706,-5.2723,-5.3078,-5.3129,-5.2976,-5.3162,-5.301,-5.2605,-5.1732,-5.1296,-5.0944,-4.9326,-4.858,-4.8133,-4.6567,-4.5863,-4.5422,-4.4008,-4.3571,-4.3441,-4.2772,-4.2187,-4.1522,-4.0688,-3.9982,-3.9327,-3.8655,-3.8448,-3.842,-3.8476,-3.8488,-3.8516,-3.8572,-3.8234,-3.7873,-3.7873,-3.6075,-3.4774,-3.5439,-3.3868,-3.2519,-3.2271,0.0,0.0,0.0,-3.21,-3.2809,-3.2479,-3.2915,-3.2692,0.0,0.0,0.0,0.0,0.0,-3.2958,-3.2271,-3.4387,-3.5587,-3.5714,-3.5373,-3.5211,-3.5211,-3.6287,-3.6999,-3.7311,-3.789,-3.823,-3.8391,-3.8391,-3.8391,-3.8391,-3.8391,-3.8391,-3.8391,-3.8391,-3.8391,-3.8553,-3.98,-4.0254,-4.0448,-5.1745,-5.2056,-5.2307,-5.2307,-5.2989,-5.3501,-5.3501,-5.3501,-5.3501,-5.3501,-5.3501,-5.3501,-5.3501,-5.3501,-5.3501,-5.3501,-5.3501,-5.3501,-5.3501,-5.3501,-5.3501,-5.3501,-5.3501,-5.3501,-5.3501,-5.3501,-5.3315,-5.2959,-5.2486,-5.2503,-5.2959,-5.2892,-5.3078,-5.3501,-5.3501,-5.3501,-5.3501,-5.3734,-5.3601,-5.328,-5.3651,-5.3484,-5.2904,-5.2451,-5.2197,-5.1858,-5.0503,-4.9685,-4.9087,-4.7749,-4.6763,-4.5912,-4.495,-4.4237,-4.3638,-4.3201,-4.2618,-4.1905,-4.1177,-4.048,-3.9703,-3.8651,-3.8391,-3.8391,-3.8391,-3.8391,-3.8391,-3.8391,-3.7815,-3.7328,-3.7328,-3.5442,-3.3982,-3.4286,-3.3111,-3.1987,-3.1573,-3.1943,0.0,-3.1134,-3.208,-3.2779,-3.2688,-3.3416,-3.358,-3.283,0.0,0.0,-3.2425,-3.4408,-3.4926,-3.3501,-3.4596,-3.5373,-3.5687,-3.5687,-3.5849,-3.6173,-3.6923,-3.7501,-3.7825,-3.8213,-3.8391,-3.8391,-3.8391,-3.8391,-3.8391,-3.8391,-3.8391,-3.8391,-3.8391,-3.8391,-3.857,-3.9978,-4.0496,-4.0658,-5.1704,-5.198,-5.2236,-5.2272,-5.292,-5.3433,-5.3501,-5.3501,-5.3501,-5.3501,-5.3501,-5.3501,-5.3501,-5.3501,-5.3501,-5.3501,-5.3501,-5.3501,-5.3501,-5.3568,-5.3618,-5.3618,-5.3618,-5.3618,-5.3618,-5.3534,-5.3179,-5.2486,-5.3111,-5.3094,-5.2503,-5.3128,-5.3449,-5.3501,-5.3501,-5.3501,-5.3517,-5.3859,-5.3529,-5.2874,-5.3693,-5.328,-5.2265,-5.2679,-5.2572,-5.2117,-5.1451,-5.0629,-4.9742,-4.8971,-4.7737,-4.6407,-4.6196,-4.5176,-4.401,-4.3913,-4.325,-4.2441,-4.1759,-4.0996,-4.0043,-3.8861,-3.8472,-3.8391,-3.8391,-3.8391,-3.8363,-3.8307,-3.7549,-3.6875,-3.6814,-3.4988,-3.3396,-3.3133,-3.2577,-3.1827,-3.0825,0.0,0.0,-3.0948,-3.1753,-3.2321,-3.2212,-3.3741,-3.4739,-3.4611,-3.6184,0.0,0.0,-3.6173,-3.6659,-3.5568,-3.5438,-3.5655,-3.6303,-3.6416,-3.6756,-3.7295,-3.7392,-3.7792,-3.8391,-3.8391,-3.8391,-3.8391,-3.8391,-3.8391,-3.8391,-3.8391,-3.8391,-3.8408,-3.8521,-3.857,-3.8732,-4.014,-4.0658,-4.0769,-5.1371,-5.1631,-5.198,-5.2236,-5.2677,-5.3093,-5.3433,-5.3501,-5.3501,-5.3501,-5.3501,-5.3501,-5.3501,-5.3501,-5.3501,-5.3501,-5.3501,-5.3501,-5.3501,-5.3865,-5.4108,-5.4108,-5.4108,-5.4108,-5.4108,-5.3701,-5.345,-5.3315,-5.3215,-5.32,-5.3315,-5.3215,-5.3285,-5.3501,-5.3501,-5.3501,-5.35,-5.328,-5.2893,-5.2436,-5.2972,-5.2649,-5.193,-5.2252,-5.2181,-5.1835,-5.1352,-5.109,-5.0842,-5.0091,-4.9649,-4.9224,-4.8042,-4.6649,-4.5354,-4.4804,-4.3686,-4.2441,-4.1759,-4.0656,-3.9603,-3.9392,-3.8845,-3.8391,-3.8391,-3.8391,-3.8278,-3.7876,-3.7328,-3.6784,-3.6368,-3.4773,-3.3305,-3.2706,-3.232,-3.1674,0.0,0.0,-3.2959,-3.1779,-3.357,-3.4714,-3.4127,-3.5262,-3.5743,-3.514,-3.5952,-3.6319,-3.5979,-3.627,-3.6627,-3.6939,-3.6432,-3.6189,-3.6303,-3.6869,-3.7198,-3.7295,-3.7938,-3.8294,-3.8391,-3.8391,-3.8391,-3.8391,-3.8391,-3.8391,-3.8391,-3.8391,-3.8391,-3.8456,-3.9072,-3.9343,-3.9522,-4.0915,-4.1434,-4.145,-5.1221,-5.154,-5.1891,-5.1967,-5.2677,-5.3212,-5.3161,-5.3161,-5.3246,-5.3467,-5.3314,-5.3246,-5.3467,-5.3501,-5.3501,-5.3501,-5.3501,-5.3501,-5.3501,-5.3701,-5.3931,-5.4188,-5.4188,-5.4316,-5.4582,-5.4348,-5.4126,-5.3882,-5.3766,-5.3639,-5.3501,-5.3361,-5.3378,-5.3501,-5.3501,-5.3501,-5.35,-5.3874,-5.335,-5.2385,-5.3365,-5.2841,-5.1503,-5.1852,-5.1782,-5.1445,-5.1258,-5.1183,-5.1135,-5.0795,-5.0422,-4.9985,-4.9337,-4.8155,-4.686,-4.6131,-4.435,-4.2441,-4.1759,-4.1126,-4.0461,-3.97,-3.9233,-3.8877,-3.8489,-3.8391,-3.825,-3.7788,-3.7268,-3.6753,-3.629,-3.5013,-3.3814,-3.3155,-3.263,0.0,0.0,-3.2511,-3.3308,-3.2963,-3.4277,-3.5109,-3.4794,-3.5229,-3.5673,-3.5979,-3.63,-3.6575,-3.6826,-3.6826,-3.6972,-3.7279,-3.6988,-3.6826,-3.6826,-3.7549,-3.7906,-3.7906,-3.8246,-3.8391,-3.8391,-3.8391,-3.8391,-3.8391,-3.8391,-3.8391,-3.8391,-3.8391,-3.8391,-3.8472,-3.9201,-3.9279,-3.9072,-4.048,-4.0785,-4.0478,-5.1183,-5.1487,-5.1729,-5.1712,-5.2466,-5.304,-5.2799,-5.2764,-5.2868,-5.3161,-5.2938,-5.2868,-5.3212,-5.3212,-5.3212,-5.3212,-5.3212,-5.3246,-5.3348,-5.3348,-5.3617,-5.4188,-5.4299,-5.4488,-5.4738,-5.4738,-5.4551,-5.4188,-5.4188,-5.3931,-5.3348,-5.3467,-5.3399,-5.3212,-5.3212,-5.328,-5.3399,-5.3982,-5.3409,-5.2289,-5.3376,-5.2706,-5.1127,-5.1553,-5.1471,-5.1183,-5.1183,-5.1183,-5.1183,-5.1183,-5.0811,-5.0357,-5.0357,-4.9386,-4.8123,-4.7556,-4.537,-4.291,-4.2067,-4.1725,-4.1353,-4.0267,-3.9748,-3.936,-3.8764,-3.8521,-3.825,-3.7788,-3.7268,-3.6753,-3.629,-3.5255,-3.4294,-3.3604,0.0,0.0,0.0,-3.3203,-3.3925,-3.396,-3.4807,-3.531,-3.5153,-3.5335,-3.5786,-3.6562,-3.6694,-3.693,-3.7279,-3.7295,-3.7376,-3.7538,-3.7566,-3.7566,-3.7566,-3.8116,-3.8391,-3.8391,-3.8391,-3.8391,-3.8391,-3.8391,-3.8391,-3.8391,-3.8391,-3.8391,-3.8391,-3.8391,-3.8489,-3.8732,-3.9444,-3.9379,-3.9039,-4.0286,-4.0445,-3.9943,-5.1183,-5.1221,-5.1355,-5.1639,-5.1818,-5.2017,-5.2307,-5.2343,-5.2343,-5.2378,-5.2343,-5.2359,-5.2378,-5.2378,-5.2378,-5.2378,-5.2378,-5.2537,-5.2903,-5.2938,-5.3332,-5.4156,-5.4614,-5.4676,-5.4252,-5.4252,-5.422,-5.4188,-5.4188,-5.3782,-5.2938,-5.3399,-5.3146,-5.2378,-5.2378,-5.2607,-5.2888,-5.2371,-5.2001,-5.1865,-5.2034,-5.1525,-5.0703,-5.143,-5.1471,-5.1183,-5.1183,-5.1183,-5.1183,-5.1183,-5.1151,-5.1102,-5.1102,-5.0115,-4.8897,-4.8848,-4.686,-4.4334,-4.2894,-4.2067,-4.1579,-4.1466,-4.0461,-3.9505,-3.9441,-3.8877,-3.825,-3.7788,-3.7268,-3.6753,-3.629,-3.5255,-3.4294,-3.3604,0.0,0.0,-3.2646,-3.4501,-3.5538,-3.4313,-3.5538,-3.6241,-3.5617,-3.6509,-3.6917,-3.6362,-3.6912,-3.7252,-3.7295,-3.7295,-3.7603,-3.8294,-3.8327,-3.8327,-3.8327,-3.8375,-3.8391,-3.8391,-3.8391,-3.8391,-3.8391,-3.8391,-3.8391,-3.8391,-3.8391,-3.8391,-3.8391,-3.8391,-3.8796,-3.9505,-4.0156,-4.0383,-4.0432,-4.1239,-4.1498,-4.1255,-5.1183,-5.1183,-5.1258,-5.1392,-5.1635,-5.1891,-5.198,-5.198,-5.2073,-5.2272,-5.2092,-5.2004,-5.2272,-5.2307,-5.2307,-5.2307,-5.2307,-5.2449,-5.2868,-5.2903,-5.3298,-5.4156,-5.4645,-5.483,-5.4645,-5.4645,-5.4488,-5.4188,-5.4188,-5.3732,-5.2903,-5.3076,-5.2853,-5.2307,-5.2307,-5.2378,-5.2539,-5.2604,-5.2298,-5.177,-5.2108,-5.1737,-5.1018,-5.1278,-5.1317,-5.1183,-5.1183,-5.1183,-5.1183,-5.1183,-5.1183,-5.1183,-5.1183,-5.0811,-5.0179,-4.9289,-4.7313,-4.5208,-4.4237,-4.312,-4.2132,-4.1709,-4.0867,-3.9994,-3.9603,-3.8926,-3.825,-3.7788,-3.7537,-3.7238,-3.6738,-3.6044,-3.5456,-3.5214,0.0,-3.4418,-3.4152,-3.5201,-3.593,-3.5694,-3.6883,-3.7605,-3.7359,-3.7459,-3.7564,-3.7603,-3.756,-3.7676,-3.7959,-3.7987,-3.8116,-3.8391,-3.8391,-3.8391,-3.8391,-3.8391,-3.8391,-3.8391,-3.8391,-3.8391,-3.8391,-3.8391,-3.8391,-3.8391,-3.8391,-3.8391,-3.844,-3.8877,-3.9262,-3.9619,-4.0753,-4.0656,-3.9975,-4.0672,-4.0351,-3.9525,-5.1183,-5.1183,-5.1183,-5.1183,-5.145,-5.1672,-5.1631,-5.1594,-5.1688,-5.1928,-5.1692,-5.1655,-5.1911,-5.1964,-5.1964,-5.1964,-5.1964,-5.2181,-5.2677,-5.2955,-5.3349,-5.3963,-5.4425,-5.4676,-5.4676,-5.4676,-5.452,-5.4188,-5.4044,-5.355,-5.2712,-5.2712,-5.243,-5.1964,-5.1964,-5.202,-5.2128,-5.2397,-5.2203,-5.1712,-5.1987,-5.1712,-5.1183,-5.1183,-5.1183,-5.1183,-5.1183,-5.1183,-5.1183,-5.1183,-5.1038,-5.0892,-5.1118,-5.1183,-5.0908,-4.9451,-4.7831,-4.6245,-4.5095,-4.3897,-4.2764,-4.2083,-4.1371,-4.0707,-4.0267,-3.9441,-3.8646,-3.8328,-3.7948,-3.7583,-3.7238,-3.6616,-3.6196,-3.6196,-3.5421,-3.4913,-3.5197,-3.5676,-3.6174,-3.6661,-3.7585,-3.8221,-3.8408,-3.7963,-3.7817,-3.8164,-3.7876,-3.7905,-3.8363,-3.8391,-3.8391,-3.8391,-3.8391,-3.8391,-3.8391,-3.8391,-3.8391,-3.8391,-3.8391,-3.8391,-3.8391,-3.8391,-3.8391,-3.8391,-3.8391,-3.8391,-3.8456,-3.9185,-3.9635,-3.9943,-4.1142,-4.1012,-4.0202,-4.0415,-4.0027,-3.9331,-5.1183,-5.1183,-5.1183,-5.1183,-5.1183,-5.1183,-5.1183,-5.1183,-5.1183,-5.1183,-5.1183,-5.1183,-5.1183,-5.1183,-5.1183,-5.1183,-5.1183,-5.1503,-5.2236,-5.3058,-5.3501,-5.3501,-5.3963,-5.4188,-5.4188,-5.4188,-5.4188,-5.4188,-5.3734,-5.3093,-5.2307,-5.2307,-5.1928,-5.1221,-5.1183,-5.1376,-5.1676,-5.1355,-5.1376,-5.1676,-5.1317,-5.1183,-5.1183,-5.1183,-5.1183,-5.1183,-5.1183,-5.1183,-5.1183,-5.1183,-5.0697,-5.0228,-5.0957,-5.1183,-5.0908,-4.9467,-4.8524,-4.7556,-4.5403,-4.4285,-4.3541,-4.278,-4.2099,-4.1596,-4.1596,-4.0526,-3.9522,-3.9505,-3.8563,-3.7716,-3.77,-3.6892,-3.6211,-3.6211,-3.5829,-3.5504,-3.5504,-3.591,-3.6383,-3.6845,-3.7373,-3.7876,-3.8335,-3.7963,-3.7716,-3.77,-3.77,-3.7905,-3.8363,-3.8391,-3.8391,-3.8391,-3.8391,-3.8391,-3.8391,-3.8391,-3.8391,-3.8391,-3.8391,-3.8391,-3.8391,-3.8391,-3.8391,-3.8391,-3.8391,-3.8391,-3.8472,-3.9185,-3.991,-4.0577,-4.132,-4.1596,-4.1515,-4.0772,-4.098,-4.1401,-5.1183,-5.1183,-5.1183,-5.1183,-5.1183,-5.1183,-5.1183,-5.1183,-5.1183,-5.1183,-5.1183,-5.1183,-5.1183,-5.1183,-5.1183,-5.1183,-5.1183,-5.1503,-5.2236,-5.3058,-5.3501,-5.3501,-5.3651,-5.3701,-5.3701,-5.3701,-5.3701,-5.3701,-5.3568,-5.3246,-5.2712,-5.2414,-5.2073,-5.1594,-5.1333,-5.1258,-5.1355,-5.1242,-5.1258,-5.1355,-5.1258,-5.1183,-5.1183,-5.1183,-5.1183,-5.1183,-5.1183,-5.1183,-5.1183,-5.1183,-5.0697,-5.0147,-5.0357,-5.0762,-5.1086,-5.0665,-4.9677,-4.8479,-4.7362,-4.5791,-4.4172,-4.291,-4.2099,-4.1596,-4.1596,-4.0883,-4.0059,-3.9603,-3.9211,-3.8789,-3.8289,-3.7685,-3.724,-3.724,-3.6815,-3.6383,-3.6022,-3.6414,-3.66,-3.643,-3.683,-3.7193,-3.7326,-3.7222,-3.7298,-3.7671,-3.802,-3.8107,-3.7905,-3.8221,-3.825,-3.7905,-3.8221,-3.8391,-3.8391,-3.8391,-3.8391,-3.8391,-3.8391,-3.8391,-3.8391,-3.8391,-3.8391,-3.8391,-3.8391,-3.8683,-3.9217,-3.9914,-4.061,-4.1353,-4.2035,-4.2002,-4.1579,-4.1353,-4.1093,-4.0756,-5.1183,-5.1183,-5.1183,-5.1183,-5.1183,-5.1183,-5.1183,-5.1183,-5.1183,-5.1183,-5.1183,-5.1183,-5.1183,-5.1183,-5.1183,-5.1183,-5.1466,-5.1818,-5.2272,-5.3058,-5.3501,-5.3501,-5.3501,-5.3501,-5.3501,-5.3501,-5.3501,-5.3501,-5.3501,-5.328,-5.2903,-5.2642,-5.2252,-5.1778,-5.1557,-5.1333,-5.1183,-5.1183,-5.1183,-5.1183,-5.1183,-5.1183,-5.1183,-5.1183,-5.1183,-5.1183,-5.1183,-5.1183,-5.1183,-5.1183,-5.0892,-5.0422,-4.9855,-5.0374,-5.1183,-5.1183,-5.0357,-4.9289,-4.8592,-4.7038,-4.5273,-4.3848,-4.2731,-4.2002,-4.2002,-4.1436,-4.0753,-4.0056,-3.97,-3.925,-3.8537,-3.802,-3.77,-3.77,-3.7238,-3.6814,-3.6523,-3.6554,-3.6585,-3.6492,-3.6554,-3.6692,-3.6875,-3.689,-3.7133,-3.7671,-3.7963,-3.7992,-3.77,-3.7963,-3.7889,-3.7403,-3.786,-3.8107,-3.8107,-3.8307,-3.8391,-3.8391,-3.8391,-3.8391,-3.8391,-3.8391,-3.8391,-3.8391,-3.8391,-3.8812,-3.9554,-4.0205,-4.0917,-4.1677,-4.2359,-4.2197,-4.1563,-4.1272,-4.0899,-4.0418,-5.1183,-5.1183,-5.1183,-5.1183,-5.1183,-5.1183,-5.1183,-5.1183,-5.1183,-5.1183,-5.1183,-5.1183,-5.1183,-5.1183,-5.1183,-5.1183,-5.1891,-5.2307,-5.2307,-5.3058,-5.3501,-5.3501,-5.3501,-5.3501,-5.3501,-5.3501,-5.3501,-5.3501,-5.3501,-5.3314,-5.2938,-5.2903,-5.2518,-5.1851,-5.1815,-5.1557,-5.1183,-5.1183,-5.1183,-5.1183,-5.1183,-5.1183,-5.1183,-5.1183,-5.1183,-5.1183,-5.1183,-5.1183,-5.1167,-5.1102,-5.1135,-5.0924,-4.9483,-5.0017,-5.1167,-5.1102,-5.0665,-5.005,-4.9321,-4.8107,-4.6714,-4.5257,-4.3848,-4.2748,-4.2635,-4.2132,-4.1498,-4.0739,-4.0043,-3.9376,-3.8634,-3.8097,-3.7759,-3.7759,-3.7358,-3.7027,-3.6966,-3.6554,-3.643,-3.6845,-3.6461,-3.6321,-3.6784,-3.6875,-3.7133,-3.7671,-3.773,-3.7762,-3.7737,-3.7703,-3.7464,-3.6923,-3.7375,-3.7642,-3.7642,-3.8033,-3.8307,-3.8391,-3.8391,-3.8391,-3.8391,-3.8391,-3.844,-3.8489,-3.8489,-3.8942,-3.9748,-4.0335,-4.1045,-4.1758,-4.2344,-4.2197,-4.1531,-4.0867,-4.0545,-4.028,-5.1183,-5.1183,-5.1183,-5.1183,-5.1183,-5.1183,-5.1183,-5.1183,-5.1183,-5.1183,-5.1183,-5.1183,-5.1183,-5.1183,-5.1183,-5.1183,-5.1891,-5.2307,-5.2307,-5.3058,-5.3501,-5.3501,-5.3501,-5.3501,-5.3501,-5.3501,-5.3501,-5.3501,-5.3501,-5.3467,-5.3348,-5.3058,-5.2659,-5.2181,-5.1924,-5.1557,-5.1183,-5.1183,-5.1183,-5.1183,-5.1183,-5.1183,-5.1183,-5.1183,-5.1183,-5.1183,-5.1183,-5.1183,-5.1086,-5.0536,-5.0714,-5.0924,-4.9483,-5.0017,-5.107,-5.0503,-5.0633,-5.0795,-5.0066,-4.9224,-4.8074,-4.6083,-4.4949,-4.4026,-4.2861,-4.2489,-4.2197,-4.1484,-4.0802,-4.0059,-3.9408,-3.8694,-3.825,-3.825,-3.8148,-3.7947,-3.7596,-3.7088,-3.6784,-3.6906,-3.6148,-3.5829,-3.6321,-3.6692,-3.7133,-3.7671,-3.8049,-3.8129,-3.7871,-3.7749,-3.7551,-3.7151,-3.711,-3.7057,-3.7057,-3.7177,-3.7623,-3.8391,-3.8391,-3.8391,-3.8391,-3.8391,-3.8715,-3.9279,-3.9279,-3.9991,-4.1158,-4.1304,-4.1759,-4.2392,-4.2538,-4.2197,-4.1579,-4.1434,-4.0754,-3.9877,-5.1183,-5.1183,-5.1183,-5.1183,-5.1183,-5.1183,-5.1183,-5.1183,-5.1183,-5.1183,-5.1183,-5.1183,-5.1183,-5.1183,-5.1183,-5.1183,-5.1725,-5.2145,-5.2272,-5.2868,-5.3314,-5.3501,-5.3501,-5.3501,-5.3501,-5.3501,-5.3501,-5.3501,-5.3501,-5.3501,-5.3518,-5.3634,-5.3308,-5.2589,-5.258,-5.213,-5.1413,-5.1258,-5.1183,-5.1183,-5.1183,-5.1183,-5.1183,-5.1183,-5.1183,-5.1183,-5.1183,-5.1183,-5.107,-5.0341,-5.0584,-5.0989,-4.9888,-5.005,-5.0665,-5.0633,-5.0649,-5.0665,-5.0633,-5.0098,-4.9192,-4.7702,-4.6411,-4.5017,-4.3039,-4.2711,-4.2641,-4.1971,-4.1618,-4.1102,-3.9911,-3.9394,-3.8962,-3.8485,-3.8391,-3.8221,-3.7759,-3.7238,-3.6814,-3.6569,-3.5941,-3.5765,-3.6461,-3.6753,-3.7133,-3.7671,-3.8135,-3.8163,-3.7621,-3.7701,-3.7623,-3.7301,-3.7456,-3.7357,-3.7033,-3.7577,-3.7964,-3.8162,-3.7841,-3.7815,-3.8049,-3.8049,-3.8463,-3.9122,-3.9389,-4.0299,-4.1596,-4.1596,-4.1792,-4.2148,-4.2473,-4.1792,-4.064,-4.0964,-4.014,-3.8921,-5.1183,-5.1183,-5.1183,-5.1183,-5.1183,-5.1183,-5.1183,-5.1183,-5.1183,-5.1183,-5.1183,-5.1183,-5.1183,-5.1183,-5.1183,-5.1183,-5.1557,-5.1924,-5.2217,-5.2642,-5.3058,-5.3399,-5.3467,-5.3501,-5.3501,-5.3501,-5.3501,-5.3501,-5.3501,-5.3501,-5.3518,-5.4126,-5.3819,-5.2816,-5.308,-5.2637,-5.1619,-5.1317,-5.1183,-5.1183,-5.1183,-5.1183,-5.1183,-5.1183,-5.1183,-5.1183,-5.1183,-5.1183,-5.1086,-5.0487,-5.0681,-5.1054,-5.0325,-5.0196,-5.0374,-5.0859,-5.0665,-5.0422,-5.1021,-5.0746,-5.0082,-4.9204,-4.793,-4.6208,-4.3636,-4.3139,-4.304,-4.2466,-4.2409,-4.2047,-4.0614,-4.02,-3.9764,-3.8825,-3.8614,-3.8395,-3.7892,-3.7298,-3.6784,-3.6476,-3.5941,-3.5941,-3.6692,-3.6784,-3.7012,-3.7537,-3.7918,-3.7882,-3.7223,-3.7449,-3.7503,-3.7259,-3.7679,-3.7638,-3.709,-3.8138,-3.8411,-3.7949,-3.7281,-3.7311,-3.7902,-3.7775,-3.8122,-3.8786,-3.9315,-4.0294,-4.1473,-4.1581,-4.1596,-4.1644,-4.2083,-4.1128,-3.9525,-3.9769,-3.9053,-3.7966,-5.1183,-5.1183,-5.1183,-5.1183,-5.1183,-5.1183,-5.1183,-5.1183,-5.1183,-5.1183,-5.1183,-5.1183,-5.1183,-5.1183,-5.1183,-5.1183,-5.1557,-5.1815,-5.1835,-5.2518,-5.2903,-5.2989,-5.3314,-5.3501,-5.3501,-5.3501,-5.3501,-5.3501,-5.3501,-5.3501,-5.3501,-5.3602,-5.3193,-5.2378,-5.2442,-5.201,-5.1242,-5.1221,-5.1183,-5.1183,-5.1183,-5.1183,-5.1183,-5.1183,-5.1183,-5.1183,-5.1183,-5.1183,-5.1167,-5.107,-5.1102,-5.1054,-5.0325,-5.0536,-5.094,-5.0406,-5.0633,-5.1054,-5.1151,-5.1118,-5.0714,-4.9317,-4.9088,-4.842,-4.5571,-4.42,-4.3502,-4.3433,-4.2932,-4.2448,-4.2191,-4.1432,-4.059,-3.9837,-3.9499,-3.912,-3.8403,-3.749,-3.7042,-3.7449,-3.6677,-3.6148,-3.629,-3.629,-3.6492,-3.6966,-3.7057,-3.711,-3.7206,-3.6718,-3.651,-3.663,-3.6678,-3.67,-3.661,-3.7259,-3.78,-3.8142,-3.7619,-3.7824,-3.8731,-3.8138,-3.8279,-3.8998,-3.9532,-4.0225,-4.1038,-4.1442,-4.1596,-4.1547,-4.0982,-4.0254,-3.9324,-3.7889,-3.7606,-3.7871,-5.1183,-5.1183,-5.1183,-5.1183,-5.1183,-5.1183,-5.1183,-5.1183,-5.1183,-5.1183,-5.1183,-5.1183,-5.1183,-5.1183,-5.128,-5.145,-5.1466,-5.1741,-5.2376,-5.2501,-5.2764,-5.3212,-5.3399,-5.3501,-5.3501,-5.328,-5.3161,-5.3161,-5.3399,-5.3399,-5.3178,-5.3804,-5.3599,-5.2624,-5.2829,-5.2382,-5.1487,-5.128,-5.1183,-5.1183,-5.1183,-5.1183,-5.1183,-5.1183,-5.1183,-5.1183,-5.1183,-5.1183,-5.1183,-5.1183,-5.1183,-5.1118,-5.0811,-5.0649,-5.0519,-5.0196,-5.005,-5.0066,-5.0471,-5.0584,-5.0594,-5.0587,-5.0225,-4.9502,-4.8017,-4.6491,-4.5098,-4.4102,-4.3755,-4.3489,-4.2901,-4.2265,-4.156,-4.0664,-4.0277,-3.9608,-3.8366,-3.7789,-3.725,-3.6553,-3.6084,-3.591,-3.6179,-3.6196,-3.629,-3.6492,-3.6753,-3.6878,-3.6814,-3.6784,-3.6823,-3.7019,-3.7,-3.7,-3.7,-3.7644,-3.7867,-3.7745,-3.8272,-3.8504,-3.8494,-3.8186,-3.8465,-3.9131,-3.967,-4.0261,-4.0864,-4.107,-4.0852,-4.0429,-4.0464,-4.0075,-3.937,-3.8247,-3.7871,-3.7965]},{"header":{"parameterUnit":"m.s-1","parameterCategory":1,"la1":30.6,"la2":28.766,"lo1":-90.7593,"lo2":-88.6598,"dy":0.0162,"dx":0.0183,"nx":116,"ny":114,"refTime":"2024-05-22T18:00:00:Z","depth":0,"parameterNumber":3,"parameterNumberName":"V-component_of_WINDS"},"data":[0.0,0.0,0.0,0.0,0.0,0.0,0.0,0.0,0.0,0.0,0.0,0.0,0.0,0.0,0.0,0.0,0.0,0.0,0.0,0.0,0.0,0.0,0.0,0.0,0.0,0.0,0.0,0.0,0.0,0.0,0.0,0.0,0.0,0.0,0.0,0.0,0.0,0.0,0.0,0.0,0.0,0.0,0.0,0.0,0.0,0.0,0.0,0.0,0.0,0.0,0.0,0.0,0.0,0.0,0.0,0.0,0.0,0.0,0.0,0.0,0.0,0.0,0.0,0.0,0.0,0.0,0.0,0.0,0.0,0.0,0.0,0.0,0.0,0.0,0.0,0.0,0.0,0.0,0.0,0.0,0.0,0.0,0.0,0.0,0.0,0.0,0.0,0.0,0.0,0.0,0.0,0.0,0.0,0.0,0.0,0.0,0.0,0.0,0.0,0.0,0.0,0.0,0.0,0.0,0.0,0.0,0.0,0.0,0.0,0.0,0.0,0.0,0.0,0.0,0.0,0.0,0.0,0.0,0.0,0.0,0.0,0.0,0.0,0.0,0.0,0.0,0.0,0.0,0.0,0.0,0.0,0.0,0.0,0.0,0.0,0.0,0.0,0.0,0.0,0.0,0.0,0.0,0.0,0.0,0.0,0.0,0.0,0.0,0.0,0.0,0.0,0.0,0.0,0.0,0.0,0.0,0.0,0.0,0.0,0.0,0.0,0.0,0.0,0.0,0.0,0.0,0.0,0.0,0.0,0.0,0.0,0.0,0.0,0.0,0.0,0.0,0.0,0.0,0.0,0.0,0.0,0.0,0.0,0.0,0.0,0.0,0.0,0.0,0.0,0.0,0.0,0.0,0.0,0.0,0.0,0.0,0.0,0.0,0.0,0.0,0.0,0.0,0.0,0.0,0.0,0.0,0.0,0.0,0.0,0.0,0.0,0.0,0.0,0.0,0.0,0.0,0.0,0.0,0.0,0.0,0.0,0.0,0.0,0.0,0.0,0.0,0.0,0.0,0.0,0.0,0.0,0.0,0.0,0.0,0.0,0.0,0.0,0.0,0.0,0.0,0.0,0.0,0.0,0.0,0.0,0.0,0.0,0.0,0.0,0.0,0.0,0.0,0.0,0.0,0.0,0.0,0.0,0.0,0.0,0.0,0.0,0.0,0.0,0.0,0.0,0.0,0.0,0.0,0.0,0.0,0.0,0.0,0.0,0.0,0.0,0.0,0.0,0.0,0.0,0.0,0.0,0.0,0.0,0.0,0.0,0.0,0.0,0.0,0.0,0.0,0.0,0.0,0.0,0.0,0.0,0.0,0.0,0.0,0.0,0.0,0.0,0.0,0.0,0.0,0.0,0.0,0.0,0.0,0.0,0.0,0.0,0.0,0.0,0.0,0.0,0.0,0.0,0.0,0.0,0.0,0.0,0.0,0.0,0.0,0.0,0.0,0.0,0.0,0.0,0.0,0.0,0.0,0.0,0.0,0.0,0.0,0.0,0.0,0.0,0.0,0.0,0.0,0.0,0.0,0.0,0.0,0.0,0.0,0.0,0.0,0.0,0.0,0.0,0.0,0.0,0.0,0.0,0.0,0.0,0.0,0.0,0.0,0.0,0.0,0.0,0.0,0.0,0.0,0.0,0.0,0.0,0.0,0.0,0.0,0.0,0.0,0.0,0.0,0.0,0.0,0.0,0.0,0.0,0.0,0.0,0.0,0.0,0.0,0.0,0.0,0.0,0.0,0.0,0.0,0.0,0.0,0.0,0.0,0.0,0.0,0.0,0.0,0.0,0.0,0.0,0.0,0.0,0.0,0.0,0.0,0.0,0.0,0.0,0.0,0.0,0.0,0.0,0.0,0.0,0.0,0.0,0.0,0.0,0.0,0.0,0.0,0.0,0.0,0.0,0.0,0.0,0.0,0.0,0.0,0.0,0.0,0.0,0.0,0.0,0.0,0.0,0.0,0.0,0.0,0.0,0.0,0.0,0.0,0.0,0.0,0.0,0.0,0.0,0.0,0.0,0.0,0.0,0.0,0.0,0.0,0.0,0.0,0.0,0.0,0.0,0.0,0.0,0.0,0.0,0.0,0.0,0.0,0.0,0.0,0.0,0.0,0.0,0.0,0.0,0.0,0.0,0.0,0.0,0.0,0.0,0.0,0.0,0.0,0.0,0.0,0.0,0.0,0.0,0.0,0.0,0.0,0.0,0.0,0.0,0.0,0.0,0.0,0.0,0.0,0.0,0.0,0.0,0.0,0.0,0.0,0.0,0.0,0.0,0.0,0.0,0.0,0.0,0.0,0.0,0.0,0.0,0.0,0.0,0.0,0.0,0.0,0.0,0.0,0.0,0.0,0.0,0.0,0.0,0.0,0.0,0.0,0.0,0.0,0.0,0.0,0.0,0.0,0.0,0.0,0.0,0.0,0.0,0.0,0.0,0.0,0.0,0.0,0.0,0.0,0.0,0.0,0.0,0.0,0.0,0.0,0.0,0.0,0.0,0.0,0.0,0.0,0.0,0.0,0.0,0.0,0.0,0.0,0.0,0.0,0.0,0.0,0.0,0.0,0.0,0.0,0.0,0.0,0.0,0.0,0.0,0.0,0.0,0.0,0.0,0.0,0.0,0.0,0.0,0.0,0.0,0.0,0.0,0.0,0.0,0.0,0.0,0.0,0.0,0.0,0.0,0.0,0.0,0.0,0.0,0.0,0.0,0.0,0.0,0.0,0.0,0.0,0.0,0.0,0.0,0.0,0.0,0.0,0.0,0.0,0.0,0.0,0.0,0.0,0.0,0.0,0.0,0.0,0.0,0.0,0.0,0.0,0.0,0.0,0.0,0.0,0.0,0.0,0.0,0.0,0.0,0.0,0.0,0.0,0.0,0.0,0.0,0.0,0.0,0.0,0.0,0.0,0.0,0.0,0.0,0.0,0.0,0.0,0.0,0.0,0.0,0.0,0.0,0.0,0.0,0.0,0.0,0.0,0.0,0.0,0.0,0.0,0.0,0.0,0.0,0.0,0.0,0.0,0.0,0.0,0.0,0.0,0.0,0.0,0.0,0.0,0.0,0.0,0.0,0.0,0.0,0.0,0.0,0.0,0.0,0.0,0.0,0.0,0.0,0.0,0.0,0.0,0.0,0.0,0.0,0.0,0.0,0.0,0.0,0.0,0.0,0.0,0.0,0.0,0.0,0.0,0.0,0.0,0.0,0.0,0.0,0.0,0.0,0.0,0.0,0.0,0.0,0.0,0.0,0.0,0.0,0.0,0.0,0.0,0.0,0.0,0.0,0.0,0.0,0.0,0.0,0.0,0.0,0.0,0.0,0.0,0.0,0.0,0.0,0.0,0.0,0.0,0.0,0.0,0.0,0.0,0.0,0.0,0.0,0.0,0.0,0.0,0.0,0.0,0.0,0.0,0.0,0.0,0.0,0.0,0.0,0.0,0.0,0.0,0.0,0.0,0.0,0.0,0.0,0.0,0.0,0.0,0.0,0.0,0.0,0.0,0.0,0.0,0.0,0.0,0.0,0.0,0.0,0.0,0.0,0.0,0.0,0.0,0.0,0.0,0.0,0.0,0.0,0.0,0.0,0.0,0.0,0.0,0.0,0.0,0.0,0.0,0.0,0.0,0.0,0.0,0.0,0.0,0.0,0.0,0.0,0.0,0.0,0.0,0.0,0.0,0.0,0.0,0.0,0.0,0.0,0.0,0.0,0.0,0.0,0.0,0.0,0.0,0.0,0.0,0.0,0.0,0.0,0.0,0.0,0.0,0.0,0.0,0.0,0.0,0.0,0.0,0.0,0.0,0.0,0.0,0.0,0.0,0.0,0.0,0.0,0.0,0.0,0.0,0.0,0.0,0.0,0.0,0.0,0.0,0.0,0.0,0.0,0.0,0.0,0.0,0.0,0.0,0.0,0.0,0.0,0.0,0.0,0.0,0.0,0.0,0.0,0.0,0.0,0.0,0.0,0.0,0.0,0.0,0.0,0.0,0.0,0.0,0.0,0.0,0.0,0.0,0.0,0.0,0.0,0.0,0.0,0.0,0.0,0.0,0.0,0.0,0.0,0.0,0.0,0.0,0.0,0.0,0.0,0.0,0.0,0.0,0.0,0.0,0.0,0.0,0.0,0.0,0.0,0.0,0.0,0.0,0.0,0.0,0.0,0.0,0.0,0.0,0.0,0.0,0.0,0.0,0.0,0.0,0.0,0.0,0.0,0.0,0.0,0.0,0.0,0.0,0.0,0.0,0.0,0.0,0.0,0.0,0.0,0.0,0.0,0.0,0.0,0.0,0.0,0.0,0.0,0.0,0.0,0.0,0.0,0.0,0.0,0.0,0.0,0.0,0.0,0.0,0.0,0.0,0.0,0.0,0.0,0.0,0.0,0.0,0.0,0.0,0.0,0.0,0.0,0.0,0.0,0.0,0.0,0.0,0.0,0.0,0.0,0.0,0.0,0.0,0.0,0.0,0.0,0.0,0.0,0.0,0.0,0.0,0.0,0.0,0.0,0.0,0.0,0.0,0.0,0.0,0.0,0.0,0.0,0.0,0.0,0.0,0.0,0.0,0.0,0.0,0.0,0.0,0.0,0.0,0.0,0.0,0.0,0.0,0.0,0.0,0.0,0.0,0.0,0.0,0.0,0.0,0.0,0.0,0.0,0.0,0.0,0.0,0.0,0.0,0.0,0.0,0.0,0.0,0.0,0.0,0.0,0.0,0.0,0.0,0.0,0.0,0.0,0.0,0.0,0.0,0.0,0.0,0.0,0.0,0.0,0.0,0.0,0.0,0.0,0.0,0.0,0.0,0.0,0.0,0.0,0.0,0.0,0.0,0.0,0.0,0.0,0.0,0.0,0.0,0.0,0.0,0.0,0.0,0.0,0.0,0.0,0.0,0.0,0.0,0.0,0.0,0.0,0.0,0.0,0.0,0.0,0.0,0.0,0.0,0.0,0.0,0.0,0.0,0.0,0.0,0.0,0.0,0.0,0.0,0.0,0.0,0.0,0.0,0.0,0.0,0.0,0.0,0.0,0.0,0.0,0.0,0.0,0.0,0.0,0.0,0.0,0.0,0.0,0.0,0.0,0.0,0.0,0.0,0.0,0.0,0.0,0.0,0.0,0.0,0.0,0.0,0.0,0.0,0.0,0.0,0.0,0.0,0.0,0.0,0.0,0.0,0.0,0.0,0.0,0.0,0.0,0.0,0.0,0.0,0.0,0.0,0.0,0.0,0.0,0.0,0.0,0.0,0.0,0.0,0.0,0.0,0.0,0.0,0.0,0.0,0.0,0.0,0.0,0.0,0.0,0.0,0.0,0.0,0.0,0.0,0.0,0.0,0.0,0.0,0.0,0.0,0.0,0.0,0.0,0.0,0.0,0.0,0.0,0.0,0.0,0.0,0.0,0.0,0.0,0.0,0.0,0.0,0.0,0.0,0.0,0.0,0.0,0.0,0.0,0.0,0.0,0.0,0.0,0.0,0.0,0.0,0.0,0.0,0.0,0.0,0.0,0.0,0.0,0.0,0.0,0.0,0.0,0.0,0.0,0.0,0.0,0.0,0.0,0.0,0.0,0.0,0.0,0.0,0.0,0.0,0.0,0.0,0.0,0.0,0.0,0.0,0.0,0.0,0.0,0.0,0.0,0.0,0.0,0.0,0.0,0.0,0.0,0.0,0.0,0.0,0.0,0.0,0.0,0.0,0.0,0.0,0.0,0.0,0.0,0.0,0.0,0.0,0.0,0.0,0.0,0.0,0.0,0.0,0.0,0.0,0.0,0.0,0.0,0.0,0.0,0.0,0.0,0.0,0.0,0.0,0.0,0.0,0.0,0.0,0.0,0.0,0.0,0.0,0.0,0.0,0.0,0.0,0.0,0.0,0.0,0.0,0.0,0.0,0.0,0.0,0.0,0.0,0.0,0.0,0.0,0.0,0.0,0.0,0.0,0.0,0.0,0.0,0.0,0.0,0.0,0.0,0.0,0.0,0.0,0.0,0.0,0.0,0.0,0.0,0.0,0.0,0.0,0.0,0.0,0.0,0.0,0.0,0.0,0.0,0.0,0.0,0.0,0.0,0.0,0.0,0.0,0.0,0.0,0.0,0.0,0.0,0.0,0.0,0.8878,0.0,0.0,0.0,0.0,0.0,0.0,0.0,0.0,0.0,0.0,0.0,0.0,0.0,0.0,0.0,0.0,0.0,0.0,0.0,0.0,0.0,0.0,0.0,0.0,1.0808,1.1049,1.1189,1.1641,1.2071,1.2485,0.0,0.0,0.0,0.0,0.0,1.2041,1.2033,1.2425,1.3242,1.3298,1.4122,1.5675,1.5848,1.5044,1.3458,0.0,0.0,0.0,0.0,0.0,0.0,0.0,0.0,0.0,0.0,0.0,0.0,0.0,0.0,0.0,0.0,0.0,0.0,0.0,0.0,0.0,0.0,0.0,0.0,0.0,0.0,0.0,0.0,0.0,0.0,0.0,0.0,0.0,0.0,0.0,0.0,0.0,0.0,0.0,0.0,0.0,0.0,0.0,0.0,0.0,0.0,0.0,0.0,0.0,0.0,0.0,0.0,0.0,0.0,0.0,0.0,0.0,0.0,0.0,0.0,0.0,0.0,0.0,0.0,0.0,0.0,0.0,0.0,0.0,0.0,0.0,0.9445,0.0,0.0,0.0,0.0,0.0,0.0,0.0,0.0,0.0,0.0,0.0,0.0,0.0,0.0,0.0,0.0,0.0,0.0,0.0,0.0,0.0,0.9892,1.0902,1.1082,1.1283,1.163,1.1949,1.227,1.2637,1.2853,0.0,0.0,0.0,1.2948,1.2688,1.2806,1.3489,1.4787,1.4959,1.625,1.8591,1.992,1.8609,1.5174,1.5555,0.0,0.0,0.0,0.0,0.0,0.0,0.0,0.0,0.0,0.0,0.0,0.0,0.0,0.0,0.0,0.0,0.0,0.0,0.0,0.0,0.0,0.0,0.0,0.0,0.0,0.0,0.0,0.0,0.0,0.0,0.0,0.0,0.0,0.0,0.0,0.0,0.0,0.0,0.0,0.0,0.0,0.0,0.0,0.0,0.0,0.0,0.0,0.0,0.0,0.0,0.0,0.0,0.0,0.0,0.0,0.0,0.0,0.0,0.0,0.0,0.0,0.0,0.0,0.0,1.2271,1.2354,1.2354,1.2313,1.2106,1.1378,1.0957,1.0731,0.0,0.0,0.0,0.0,0.0,0.0,0.0,0.0,0.0,0.0,0.0,0.0,0.0,0.0,0.0,0.0,0.0,0.0,0.0,0.0,0.9382,1.0824,1.1484,1.2013,1.2563,1.2857,1.309,1.3187,1.2951,0.0,1.2996,1.3021,1.2981,1.2969,1.3583,1.4442,1.5539,1.7652,1.9556,2.1191,2.1712,2.1739,2.122,1.8406,1.7294,1.742,0.0,0.0,0.0,0.0,0.0,0.0,0.0,0.0,0.0,0.0,0.0,0.0,0.0,0.0,0.0,0.0,0.0,0.0,0.0,0.0,0.0,0.0,0.0,0.0,0.0,0.0,0.0,0.0,0.0,0.0,0.0,0.0,0.0,0.0,0.0,0.0,0.0,0.0,0.0,0.0,0.0,1.0617,1.0763,0.0,0.0,0.0,0.0,0.0,0.0,0.0,0.0,0.0,0.0,0.0,0.0,0.0,0.0,1.2133,1.2795,1.3046,1.2951,1.3476,1.3636,1.3485,1.3485,1.3471,1.3429,1.314,0.0,1.1614,1.1142,0.0,0.0,0.0,0.0,0.0,0.0,0.0,0.0,0.0,0.0,0.0,0.0,0.0,0.0,0.0,0.0,0.0,0.0,0.0,0.0,0.0,1.2265,1.2859,1.3487,1.3774,1.3905,1.3822,1.354,1.3236,1.3003,1.3182,1.3279,1.3279,1.4394,1.5896,1.7798,2.0297,2.1885,2.2595,2.364,2.4467,2.4961,2.3094,2.1085,1.894,1.7096,0.0,0.0,0.0,0.0,0.0,0.0,0.0,0.0,0.0,0.0,0.0,0.0,0.0,0.0,0.0,0.0,0.0,0.0,0.0,0.0,0.0,0.0,0.0,0.0,0.0,0.0,0.0,0.0,0.0,0.0,0.0,0.0,0.0,0.0,0.0,0.0,0.0,0.0,0.0,1.0619,1.1039,1.0801,1.0524,1.0192,0.0,0.0,0.0,0.0,0.0,0.0,0.0,0.0,0.0,1.2332,1.2602,1.2866,1.314,1.3651,1.392,1.3948,1.4227,1.4312,1.4222,1.4222,1.4151,1.4033,1.3944,1.3514,1.281,1.2044,1.1373,1.0787,0.0,0.0,0.0,0.0,0.0,1.0213,0.0,0.0,0.0,0.0,0.0,0.0,0.0,0.0,0.0,0.0,0.0,0.0,1.2185,1.318,1.398,1.4584,1.4791,1.4827,1.4622,1.4074,1.3557,1.3169,1.3265,1.3383,1.3465,1.5335,1.7479,1.9838,2.2074,2.334,2.3796,2.5049,2.6105,2.6917,2.6465,2.46,2.1544,1.9806,1.8677,1.7879,0.0,0.0,0.0,0.0,0.0,0.0,0.0,0.0,0.0,0.0,0.0,0.0,0.0,0.0,0.0,0.0,0.0,0.0,0.0,0.0,0.0,0.0,0.0,0.0,0.0,0.0,0.0,0.0,0.0,0.0,0.0,0.0,0.0,0.0,0.0,0.0,0.0,1.0994,1.1465,1.1205,1.1311,1.1194,0.0,0.0,0.0,0.0,0.0,0.0,1.2049,1.2512,1.2909,1.3235,1.3636,1.3901,1.401,1.4317,1.4553,1.4709,1.4709,1.4709,1.4709,1.4709,1.4624,1.4468,1.4416,1.4218,1.3854,1.2866,1.2214,1.1798,1.1435,1.1161,1.1009,1.1321,1.1307,1.1198,0.0,0.0,0.0,0.0,0.0,0.0,0.0,0.0,0.0,0.0,0.0,1.0859,1.2416,1.4159,1.5407,1.5948,1.6071,1.599,1.566,1.4341,1.3601,1.3554,1.3158,1.3049,1.3299,1.6421,1.9039,2.1025,2.2363,2.3804,2.5285,2.5401,2.5863,2.6698,2.6802,2.6707,2.6241,2.3205,2.164,2.0899,1.7709,0.0,0.0,0.0,0.0,0.0,0.0,0.0,0.0,0.0,0.0,0.0,0.0,0.0,0.0,0.0,0.0,0.0,0.0,0.0,0.0,0.0,0.0,0.0,0.0,0.0,0.0,0.0,0.0,0.0,0.0,0.0,0.0,0.0,0.0,0.0,0.0,0.0,0.0,1.2699,1.2372,0.0,0.0,0.0,0.0,1.2231,1.2535,1.2937,1.3547,1.3608,1.3906,1.452,1.4369,1.4468,1.4865,1.4889,1.4842,1.4852,1.4852,1.4852,1.4852,1.4852,1.4847,1.4889,1.47,1.4541,1.452,1.3674,1.3079,1.2682,1.245,1.2184,1.201,1.2034,1.1902,1.1775,0.0,0.0,0.0,0.0,0.0,0.7527,0.8019,0.7504,0.7408,0.8459,0.9456,1.0661,1.2274,1.4046,1.557,1.6653,1.6794,1.6759,1.6588,1.5069,1.4295,1.4482,1.4001,1.4571,1.6364,1.8152,1.9746,2.1077,2.2414,2.3442,2.4253,2.5034,2.6211,2.7673,2.8089,2.8452,2.8584,2.5227,2.3242,2.2078,2.0111,1.8192,0.0,0.0,0.0,0.0,0.0,0.0,0.0,0.0,0.0,0.0,0.0,0.0,0.0,0.0,0.0,0.0,0.0,0.0,0.0,0.0,0.0,0.0,0.0,0.0,0.0,0.0,0.0,0.0,0.0,0.0,0.0,0.0,0.0,0.0,0.0,0.0,0.0,1.3143,1.3308,0.0,0.0,1.2876,1.289,1.3041,1.3372,1.3778,1.427,1.4544,1.4851,1.5219,1.5153,1.512,1.5059,1.5059,1.5059,1.4866,1.4866,1.4866,1.4866,1.4866,1.4866,1.4926,1.479,1.4687,1.46,1.4166,1.3736,1.3325,1.298,1.28,1.272,1.2592,1.2493,1.2408,0.0,0.0,0.0,0.0,0.7494,0.7279,0.7813,0.7414,0.743,0.8568,0.958,1.0768,1.2181,1.4278,1.5873,1.6627,1.7159,1.7356,1.7085,1.5633,1.4903,1.5149,1.4797,1.5628,1.7725,1.8938,2.0098,2.1276,2.2394,2.3074,2.3459,2.4507,2.5635,2.684,2.7615,2.8342,2.8908,2.6646,2.5119,2.4038,2.2364,2.0578,1.8833,0.0,0.0,0.0,0.0,0.0,0.0,0.0,0.0,0.0,0.0,0.0,0.0,0.0,0.0,0.0,0.0,0.0,0.0,0.0,0.0,0.0,0.0,0.0,0.0,0.0,0.0,0.0,0.0,0.0,0.0,0.0,0.0,0.0,0.0,0.0,1.3046,1.3542,1.4029,1.4213,1.3939,1.391,1.3972,1.4109,1.4307,1.4577,1.4926,1.52,1.5408,1.5623,1.5628,1.5489,1.5342,1.5271,1.5096,1.503,1.4899,1.4866,1.4866,1.4866,1.4866,1.4866,1.4866,1.479,1.4718,1.4506,1.4213,1.3859,1.3438,1.3235,1.3217,1.3027,1.2946,1.2739,0.0,0.0,0.0,0.7386,0.7467,0.7466,0.7485,0.7479,0.7773,0.8547,0.9883,1.1127,1.2041,1.4779,1.64,1.5941,1.7166,1.7665,1.7072,1.6014,1.5404,1.5424,1.5471,1.6032,1.7246,1.8671,2.0144,2.1656,2.227,2.2737,2.3113,2.3736,2.4108,2.4154,2.5318,2.6397,2.722,2.7386,2.7269,2.6784,2.4313,2.2761,2.1741,0.0,0.0,0.0,0.0,0.0,0.0,0.0,0.0,0.0,0.0,0.0,0.0,0.0,0.0,0.0,0.0,0.0,0.0,0.0,0.0,0.0,0.0,0.0,0.0,0.0,0.0,0.0,0.0,0.0,0.0,0.0,0.0,0.0,1.1841,1.2932,1.3792,1.4019,1.4586,1.4889,1.4959,1.4955,1.512,1.5599,1.5361,1.5337,1.5628,1.5637,1.5642,1.5647,1.5647,1.5642,1.5637,1.5356,1.5176,1.5229,1.4969,1.4936,1.4866,1.4866,1.4866,1.4866,1.4866,1.4866,1.4852,1.4649,1.4506,1.427,1.3859,1.3575,1.3395,1.3391,1.3126,1.2739,0.0,0.0,0.6228,0.6625,0.663,0.6726,0.7208,0.7295,0.7332,0.7521,0.8864,0.995,1.0395,1.2571,1.4445,1.5724,1.6208,1.6897,1.7935,1.6361,1.5585,1.6012,1.7068,1.7989,1.88,1.958,2.0294,2.0984,2.1811,2.227,2.2418,2.305,2.379,2.4448,2.4785,2.5306,2.583,2.5659,2.5405,2.514,2.5727,2.4719,2.28,0.0,0.0,0.0,0.0,0.0,0.0,0.0,0.0,0.0,0.0,0.0,0.0,0.0,0.0,0.0,0.0,0.0,0.0,0.0,0.0,0.0,0.0,0.0,0.0,0.0,0.0,0.0,0.0,0.0,0.0,0.0,0.0,1.2895,1.2951,1.3641,1.4326,1.4837,1.5186,1.5446,1.5593,1.5474,1.5437,1.5623,1.5503,1.556,1.5836,1.5846,1.5848,1.6004,1.6013,1.5938,1.5851,1.5715,1.5531,1.5233,1.511,1.5073,1.4866,1.4866,1.4866,1.4866,1.4866,1.4866,1.4852,1.4649,1.4506,1.4284,1.4024,1.3792,1.3589,1.3443,1.3126,1.2739,0.0,0.5202,0.5673,0.5887,0.5935,0.6113,0.6653,0.6854,0.7071,0.7398,0.8472,0.9295,0.9556,1.1194,1.277,1.3914,1.5007,1.592,1.658,1.6099,1.6079,1.6787,1.8009,1.8951,1.9539,2.012,2.0376,2.0229,2.1211,2.1222,2.0392,2.1531,2.2146,2.2243,2.2541,2.3039,2.3711,2.3236,2.3157,2.3407,2.4863,2.4696,2.3572,2.3862,2.2532,2.0457,2.0339,1.9875,1.9079,1.7512,0.0,0.0,0.0,0.0,0.0,0.0,0.0,0.0,0.0,0.0,0.0,0.0,0.0,0.0,0.0,0.0,0.0,0.0,0.0,0.0,0.0,0.0,0.0,0.0,1.306,1.3769,1.4114,1.4548,1.4997,1.5441,1.5687,1.5867,1.5985,1.589,1.5819,1.5819,1.5819,1.5871,1.5989,1.6064,1.6056,1.6178,1.6183,1.6122,1.5994,1.5974,1.5697,1.5371,1.5276,1.5059,1.4866,1.4866,1.4866,0.0,1.4866,1.4866,1.4856,1.4743,1.4581,0.0,0.0,0.0,0.0,0.0,1.3178,1.2862,0.0,0.4981,0.5258,0.5278,0.5446,0.5698,0.5986,0.6337,0.6812,0.7605,0.8275,0.8807,0.908,1.041,1.1318,1.157,1.3587,1.4737,1.4426,1.5703,1.6847,1.7695,1.8591,1.9332,1.9887,2.0318,2.0285,1.9577,2.0342,1.9826,1.8033,1.9559,1.9807,1.8908,1.9515,2.0245,2.1061,2.0422,2.0621,2.1425,2.2272,2.3108,2.3926,2.4717,2.4196,2.3046,2.2782,2.2069,2.102,1.9165,0.0,0.0,0.0,0.0,0.0,0.0,0.0,0.0,0.0,0.0,0.0,0.0,0.0,0.0,0.0,0.0,0.0,0.0,0.0,0.0,0.0,0.0,0.0,0.0,1.3825,1.4392,1.5191,1.547,1.5727,1.5908,1.6051,1.6183,1.6183,1.6183,1.6183,1.6183,1.6183,1.6183,1.6183,0.0,0.0,0.0,0.0,1.6183,1.6183,1.5989,1.5851,1.5628,1.5361,1.5148,1.4866,1.4866,1.4866,1.4866,1.4866,1.4866,1.4866,1.4866,1.4685,1.4288,1.409,1.3882,1.3665,1.349,1.3273,0.0,0.0,0.4654,0.5025,0.5133,0.5387,0.5612,0.5698,0.5973,0.6294,0.6499,0.7096,0.7664,0.8067,0.8953,1.0067,1.1308,1.2243,1.3559,1.5428,1.6879,1.7969,1.8637,1.9506,2.0147,2.0501,2.009,1.9712,1.9577,1.8932,1.8419,1.8033,1.8355,1.8413,1.8221,1.8343,1.8466,1.8611,1.8152,1.8043,1.8234,1.8456,2.0104,2.2593,2.4359,2.4212,2.3126,2.3453,2.3439,2.3112,2.2043,2.0645,1.9067,1.7459,1.5335,0.0,0.0,0.0,0.0,0.0,0.0,0.0,0.0,0.0,0.0,0.0,0.0,0.0,0.0,0.0,0.0,0.0,0.0,0.0,1.3995,1.4378,1.4983,1.5645,1.5846,1.5889,1.5927,1.6051,1.6183,1.6183,1.6183,1.6183,1.6183,1.6183,1.6183,1.6183,1.6183,0.0,1.6183,1.6183,1.6183,1.6183,1.6141,1.5933,1.5628,0.0,0.0,1.4866,1.4866,1.4866,1.4866,1.4866,1.4866,1.4866,1.4866,1.4685,1.4288,1.409,1.3882,1.3684,1.3646,1.3391,1.3093,0.4412,0.464,0.4826,0.4876,0.5104,0.5277,0.5335,0.567,0.5977,0.6164,0.6721,0.7221,0.7562,0.7965,0.8665,0.9708,1.0826,1.2566,1.5104,1.6015,1.6882,1.7781,1.8531,1.9013,1.9218,1.8927,1.8483,1.7909,1.7976,1.7453,1.6483,1.6996,1.6931,1.6418,1.6418,1.6418,1.6462,1.6118,1.5904,1.5887,1.655,1.7713,1.9297,2.2007,2.2497,2.1856,2.2955,2.331,2.3187,2.2523,2.1351,2.0004,1.9009,1.7213,1.5251,0.0,0.0,0.0,0.0,0.0,0.0,0.0,0.0,0.0,0.0,0.0,0.0,0.0,0.0,1.611,0.0,0.0,1.5753,1.462,1.4907,1.5389,1.587,1.6026,1.6023,1.6023,1.6117,1.6183,1.6183,1.6183,1.6183,1.6183,1.6183,1.6183,1.6183,1.6183,1.6183,1.6183,1.6183,1.6183,1.6183,1.6183,1.5975,1.5628,1.5628,1.5337,1.4866,1.4866,1.4866,1.4866,1.4866,1.4866,1.4861,1.4762,1.4596,1.4312,1.4322,1.4062,1.3703,1.3811,1.3584,1.3197,0.4643,0.4735,0.4769,0.4741,0.4836,0.4927,0.5002,0.5248,0.5528,0.5832,0.62,0.6606,0.7041,0.7063,0.7375,0.8125,0.9665,1.1692,1.4247,1.4739,1.5485,1.6859,1.7389,1.7691,1.7708,1.7659,1.716,1.6207,1.6973,1.6506,1.4931,1.5769,1.5639,1.4735,1.4866,1.48,1.4721,1.4654,1.4511,1.4413,1.5416,1.5692,1.5836,1.8762,1.9849,2.0027,2.1502,2.2022,2.1948,2.1756,2.1052,2.02,1.9906,1.8715,1.7227,1.6159,1.5515,0.0,0.0,0.0,0.0,0.0,0.0,0.0,0.0,0.0,1.6264,1.6368,1.7275,1.7624,1.6382,1.6581,1.6598,1.5538,1.5505,1.576,1.5965,1.6075,1.6169,1.6127,1.616,1.6183,1.6183,1.6183,1.6183,1.6183,1.6183,1.6183,1.6183,1.6183,1.6183,1.6183,1.6183,1.6183,1.6183,1.6183,1.5994,1.5685,1.5647,1.5361,1.4993,1.495,1.4866,1.4866,1.4866,1.4866,1.4852,1.4649,1.4506,1.4331,1.4548,1.4274,1.3778,1.3991,1.3807,1.341,0.0,0.4901,0.5009,0.4884,0.4877,0.4867,0.4773,0.4524,0.4478,0.4731,0.4559,0.48,0.5776,0.5874,0.6528,0.8084,0.939,1.1086,1.3255,1.437,1.5687,1.7188,1.7719,1.7879,1.7714,1.6863,1.6361,1.6207,1.5351,1.495,1.4866,1.4996,1.473,1.4006,1.4604,1.4539,1.4063,1.4456,1.4511,1.4293,1.4275,1.401,1.3825,1.5025,1.6677,1.8325,1.8902,1.9056,1.9204,2.009,2.03,2.016,1.9803,1.9343,1.8672,1.7264,1.6382,1.5729,1.505,1.4571,1.4497,1.5349,1.5585,1.6053,0.0,0.0,1.8238,1.851,1.9098,1.9292,1.8572,1.8099,1.7621,1.701,1.6353,1.5969,1.6117,1.6169,1.6112,1.5919,1.6065,1.6183,1.6183,1.6183,1.6183,1.6183,1.6183,1.6183,1.6183,1.6183,1.6183,1.6183,1.6183,1.6183,1.6183,1.6183,1.6065,1.5893,1.5713,1.5437,1.5191,1.495,1.4866,1.4866,1.4866,1.4866,1.4852,1.4649,1.4506,1.4331,1.4548,1.4364,1.4,1.4203,1.4014,1.3599,0.0,0.4891,0.4958,0.4897,0.4887,0.4867,0.4714,0.4637,0.4553,0.4452,0.4546,0.4709,0.4906,0.5313,0.6117,0.7491,0.8484,0.963,1.1187,1.2225,1.3245,1.4204,1.4637,1.5011,1.5312,1.505,1.4995,1.5263,1.494,1.4586,1.4338,1.4338,1.394,1.328,1.3543,1.3683,1.3712,1.3955,1.406,1.4128,1.4048,1.3764,1.3421,1.3565,1.4029,1.4767,1.6327,1.686,0.0,1.8036,1.8299,1.8286,1.8852,1.869,1.821,1.7757,1.7455,1.7018,1.6113,1.5074,1.4413,1.5099,1.5704,1.6424,1.7564,1.8222,1.8709,1.9307,1.99,1.9846,1.8401,1.8215,1.7873,0.0,1.6175,1.6079,1.6169,1.6075,1.5961,1.5941,1.5838,1.5867,1.5985,1.6108,1.6183,1.6183,1.6183,1.6183,1.6183,1.6183,1.6183,1.6183,1.6183,1.6183,1.6183,1.6183,1.6075,1.5927,1.5722,1.5446,1.5157,1.496,1.4866,1.4866,1.4866,1.4866,1.4861,1.4776,1.4685,1.4506,1.46,1.4525,1.4369,1.4326,1.4128,1.3816,0.0,0.4891,0.4921,0.487,0.4857,0.4806,0.4679,0.4641,0.4509,0.4076,0.4247,0.4366,0.423,0.4833,0.5683,0.6762,0.741,0.8295,0.9558,1.0399,1.1173,1.1992,1.2314,1.2757,1.3255,1.3388,1.3613,1.4047,1.4188,1.4022,1.3613,1.3613,1.3189,1.2485,1.2878,1.3078,1.3186,1.362,1.386,1.3925,1.3925,1.3674,1.3249,1.2772,1.2295,1.2077,1.3987,1.462,1.4647,1.5594,1.5901,1.6069,1.704,1.7134,1.6985,1.7216,1.733,1.7118,1.6088,1.5061,1.4413,1.4908,1.5662,1.6498,1.7046,1.7827,1.8592,1.9343,1.9889,1.9758,1.8318,1.8283,1.7889,1.6277,1.6065,1.6093,1.6093,1.5961,1.5815,1.5701,1.5611,1.5661,1.5678,1.5933,1.6117,1.6178,1.6183,1.6183,1.6183,1.6183,1.6183,1.6183,1.6183,1.6183,1.6183,1.6183,1.6103,1.5947,1.5756,1.5479,1.5314,1.5054,1.4866,1.4866,1.4866,1.4866,1.4866,1.4866,1.4753,1.4569,1.4569,1.4569,1.4605,1.4388,1.4218,1.4033,0.0,0.0,0.5002,0.4748,0.4697,0.4646,0.4522,0.4226,0.3865,0.3378,0.3105,0.3166,0.3761,0.4311,0.5011,0.5966,0.6361,0.7239,0.8913,0.9522,1.0456,1.1727,1.2061,1.2242,1.2355,1.2363,1.2449,1.256,1.2564,1.2653,1.2816,1.2816,1.2404,1.1667,1.3023,1.3012,1.218,1.3671,1.4081,1.3698,1.3698,1.3452,1.3065,1.2394,1.177,1.1296,1.1891,1.2131,1.2165,1.2656,1.3336,1.3995,1.4091,1.4612,1.5206,1.5254,1.5348,1.5237,1.4475,1.4566,1.4958,1.5277,1.5901,1.6453,1.6691,1.7251,1.7923,1.8619,1.8814,1.8963,1.9231,1.8504,1.7755,1.7234,1.6481,1.5941,1.5941,1.5936,1.5711,1.53,1.5437,1.5479,0.0,1.5626,1.5956,1.6169,1.6183,1.6183,1.6183,1.6183,1.6183,1.6183,1.6183,1.6183,1.6183,1.6183,1.6178,1.6169,1.5758,1.5628,1.5604,1.512,1.4866,1.4866,1.4866,1.4866,1.4866,1.4866,1.4753,1.4569,1.4569,1.4569,1.4605,1.4388,1.4307,1.4241,0.0,0.0,0.0,0.4951,0.4904,0.4823,0.4772,0.466,0.4408,0.3903,0.3726,0.0,0.0,0.0,0.0,0.0,0.6178,0.648,0.7176,0.7293,0.7588,0.8208,0.9052,0.9835,1.0418,1.1077,1.1598,1.209,1.209,1.1933,1.1557,1.1557,1.1153,1.0422,1.0966,1.1204,1.1244,1.2155,1.2777,1.3048,1.3066,1.2994,1.2814,1.2323,1.1829,1.135,0.0,1.0573,1.0512,1.131,1.1696,1.1997,1.293,1.3293,1.3635,1.4631,1.4619,1.4247,1.4429,1.4315,1.4142,1.4219,1.4741,1.542,1.6329,1.6754,1.7077,1.7681,1.7969,1.776,1.6784,1.6699,1.6551,1.5812,1.5702,1.5758,1.6037,1.5947,1.5758,1.5484,1.5385,0.0,0.0,0.0,0.0,1.6026,1.5971,1.6032,1.6174,1.6183,1.6183,1.6183,1.6183,1.6183,1.6183,1.6183,1.6183,1.6178,1.5758,1.5413,1.5139,1.4997,1.4866,1.4866,1.4866,1.4866,1.4866,1.4866,1.4828,1.4739,1.4529,1.4591,1.4789,1.444,1.4312,1.427,0.0,0.0,0.0,0.0,0.0,0.0,0.0,0.0,0.0,0.0,0.0,0.0,0.0,0.0,0.0,0.0,0.0,0.5857,0.6156,0.5995,0.5977,0.624,0.7261,0.8164,0.8807,0.9661,1.0354,1.0941,1.0941,1.0739,1.0379,1.0379,1.0112,0.9585,0.9922,1.0179,1.0497,1.1141,1.1787,1.2329,1.2279,1.2493,1.2744,1.2108,1.1796,0.0,1.051,0.9902,0.9522,0.9842,1.0121,1.0398,1.1208,1.1736,1.228,1.3324,1.3456,1.3367,1.4101,1.3966,1.367,1.4043,1.4326,1.4714,1.5699,1.5777,1.5819,1.643,1.6636,1.6277,1.4966,1.5235,1.535,1.4671,1.495,1.5394,1.589,1.5969,1.5855,1.5651,1.5437,1.5347,0.0,0.0,0.0,1.5912,1.6002,1.6037,1.6174,1.6183,1.6183,1.6183,1.6183,1.6183,1.6183,1.6183,1.6108,1.5956,1.5687,1.5337,1.4866,1.4866,1.4866,1.4866,1.4866,1.4866,1.4866,1.4866,1.4866,1.4889,1.4473,1.4563,1.4819,1.4463,1.4312,1.4293,0.0,0.0,0.0,0.0,0.0,0.0,0.0,0.0,0.0,0.0,0.0,0.0,0.0,0.0,0.0,0.0,0.0,0.0,0.5892,0.5515,0.5415,0.5832,0.667,0.7217,0.7466,0.8236,0.8815,0.9152,0.9152,0.9228,0.9313,0.9313,0.9235,0.9152,0.9774,0.9917,0.9779,1.0495,1.1093,1.1452,1.1336,1.1926,1.2694,1.1868,1.1686,1.1818,1.0862,1.0048,0.9291,0.8525,0.878,0.9411,0.923,1.0132,1.126,1.1546,1.2002,1.2608,1.3471,1.358,1.3698,1.4662,1.4619,1.444,1.4818,1.4449,1.4197,1.4839,1.4838,1.4521,0.0,0.0,1.4315,1.4004,1.4355,1.4855,1.5542,1.5813,1.5865,0.0,0.0,0.0,0.0,0.0,0.0,1.5931,0.0,1.6169,1.6183,1.6183,1.6183,1.6183,1.6183,1.6183,1.6183,1.6174,1.5961,1.5628,1.5618,1.5328,1.4866,1.4866,1.4866,1.4866,1.4866,1.4866,1.4866,1.4866,1.4866,1.4889,1.4473,1.4563,1.4819,1.4463,1.4317,1.4326,0.0,0.0,0.0,0.0,0.0,0.0,0.0,0.0,0.0,0.0,0.0,0.0,0.0,0.0,0.0,0.0,0.0,0.0,0.4859,0.3942,0.3478,0.3692,0.5154,0.594,0.6034,0.744,0.8197,0.8323,0.8323,0.8343,0.8381,0.8381,0.836,0.8326,0.8598,0.8734,0.8751,0.968,0.9991,0.9904,1.1033,1.1558,1.1732,1.1909,1.2125,1.2212,1.1272,1.0947,1.0914,1.066,1.0878,1.1364,1.1569,1.1528,1.1635,1.278,1.3141,1.3225,1.3589,1.4104,1.4529,1.4477,1.4624,1.4723,1.4515,1.435,1.4104,1.3713,1.3581,1.325,0.0,0.0,0.0,1.3582,1.4407,0.0,1.5585,1.5871,0.0,1.567,0.0,1.5961,1.587,1.5928,0.0,0.0,1.5999,1.6013,1.6174,1.6183,1.6183,1.6183,1.6183,1.6183,1.6183,1.6023,1.5884,1.5628,1.5394,1.5182,1.4866,1.4866,1.4866,1.4866,1.4866,1.4866,1.4866,1.4866,1.4866,1.4889,1.4473,1.4563,1.4819,1.4463,1.4411,1.4529,0.0,0.0,0.0,0.0,0.0,0.0,0.0,0.0,0.0,0.0,0.0,0.0,0.0,0.0,0.0,0.0,0.0,0.0,0.0,0.3311,0.2695,0.279,0.4359,0.5254,0.527,0.6797,0.7631,0.7746,0.7746,0.778,0.7845,0.7845,0.7811,0.775,0.7838,0.7924,0.7921,0.842,0.8671,0.0,0.0,1.0204,1.0516,1.1243,1.1525,1.1508,1.1296,1.1508,1.1845,1.1785,1.1921,1.226,1.299,1.3059,1.2988,1.3552,1.364,1.3608,1.3996,1.4444,1.4766,1.4619,1.4558,1.4444,1.4114,1.375,1.3282,1.254,1.2389,1.2124,1.126,1.1907,0.0,0.0,0.0,0.0,1.5347,1.5857,1.6127,0.0,1.6169,0.0,1.6278,1.6297,1.6316,0.0,1.6122,1.6056,1.6174,1.6183,1.6183,1.6183,1.6183,1.6183,1.6183,1.5971,1.5827,1.5628,1.5337,1.5059,1.4866,1.4866,1.4866,1.4866,0.0,1.4866,1.4866,1.4866,1.4866,1.4903,1.4577,1.4648,1.4828,1.4572,1.4529,1.4541,0.0,0.0,0.0,0.0,0.0,0.0,0.0,0.0,0.0,0.0,0.0,0.0,0.0,0.0,0.0,0.0,0.0,0.0,0.0,0.0,0.2751,0.2857,0.4156,0.4988,0.5142,0.6413,0.7177,0.7312,0.7337,0.735,0.7478,0.7478,0.7411,0.7327,0.7372,0.7372,0.7365,0.7272,0.754,0.805,0.8296,0.873,0.9359,0.0,1.0573,1.0423,1.1141,1.16,1.1932,1.2189,1.2506,1.2915,1.3959,1.4472,1.4667,1.4103,1.3889,1.3934,1.4482,1.4588,1.4709,1.479,1.4449,1.3939,1.367,1.298,1.217,1.1605,1.1453,1.125,1.0692,1.1094,1.1742,1.2255,0.0,1.4317,1.5021,1.5739,1.6207,1.6382,1.6476,1.6599,1.6788,1.6637,1.6523,1.6523,1.6311,1.6183,1.6183,1.6183,1.6183,1.6183,1.6183,1.6183,1.6183,1.5942,1.5803,1.5628,1.5309,1.5101,1.4866,1.4866,1.4866,1.4866,0.0,0.0,1.4866,1.4866,1.4866,1.4912,1.4681,1.4733,1.4842,1.4612,1.456,1.4638,0.0,0.0,0.0,0.0,0.0,0.0,0.0,0.0,0.0,0.0,0.6214,0.6085,0.0,0.0,0.0,0.0,0.0,0.0,0.0,0.0,0.0,0.3612,0.4455,0.5206,0.5902,0.6592,0.6937,0.7004,0.6878,0.6831,0.6854,0.6854,0.6841,0.6817,0.7154,0.7326,0.7323,0.7704,0.7627,0.7416,0.8793,0.9055,0.8736,1.0386,0.0,0.0,1.1141,1.0697,1.0191,1.2145,1.3854,1.5127,1.4713,1.5123,1.5589,1.5125,1.4752,1.4496,1.4541,1.4692,1.4851,1.4654,1.4345,1.3863,1.3301,1.2668,0.0,1.1383,1.1118,1.0868,1.0409,1.1113,1.186,1.209,1.3353,1.4426,1.4917,1.5522,1.5928,0.0,1.6429,1.6764,1.6802,0.0,0.0,0.0,0.0,0.0,1.6183,1.6183,1.6183,1.6183,1.6183,1.6183,1.6183,1.5874,1.5666,1.5623,1.5167,1.4903,1.4866,1.4866,1.4866,1.4866,0.0,0.0,1.4866,1.4866,1.4866,1.4828,1.4515,1.46,1.4889,1.4506,1.4586,1.4827,0.0,0.0,0.0,0.0,0.0,0.0,0.0,0.628,0.6451,0.698,0.7182,0.7111,0.6668,0.66,0.6532,0.0,0.0,0.0,0.0,0.0,0.0,0.0,0.5084,0.5686,0.608,0.0,0.0,0.0,0.0,0.0,0.0,0.0,0.0,0.0,0.0,0.0,0.7103,0.7537,0.7625,0.7529,0.8427,0.8541,0.0,0.0,0.0,0.0,1.0455,1.0095,0.9821,1.1258,1.2753,1.4079,1.4264,1.4891,1.5455,1.4925,1.4543,1.4359,1.4508,1.478,1.4912,1.4748,1.4312,1.3651,1.2909,0.0,0.0,1.0542,1.0225,1.005,0.996,1.0532,0.0,1.1676,1.2617,1.3636,1.4492,1.5049,0.0,1.5975,1.6386,1.6679,0.0,0.0,0.0,0.0,0.0,0.0,1.6183,1.6183,1.6183,1.6183,1.6183,1.6127,1.6018,1.5779,1.5503,1.5385,1.56,1.5704,1.5769,1.6289,1.6483,1.6483,0.0,0.0,1.5704,1.5127,1.4866,1.4838,1.4596,1.4662,1.4828,1.4591,1.4671,1.4809,0.0,0.0,0.0,0.0,0.0,0.0,0.0,0.6636,0.6776,0.7346,0.7918,0.7959,0.7271,0.7033,0.6764,0.0,0.0,0.0,0.0,0.0,0.0,0.0,0.0,0.611,0.0,0.0,0.0,0.0,0.0,0.0,0.0,0.0,0.0,0.0,0.0,0.0,0.0,0.7446,0.7745,0.0,0.0,0.0,0.0,0.0,0.0,0.0,0.0,0.9672,0.9705,1.0159,1.0961,1.1967,1.2855,1.4036,1.4939,1.438,1.4199,1.4227,1.4596,1.478,1.4879,1.4856,1.4237,1.3358,1.2556,1.1605,0.0,0.9766,0.9432,0.9348,0.9564,0.9951,1.048,0.0,1.2006,1.2805,1.4076,1.4681,1.5276,0.0,1.6334,0.0,0.0,0.0,0.0,0.0,0.0,0.0,0.0,1.6183,1.6183,1.6183,1.6183,1.6079,1.5931,1.5727,1.5586,1.5562,1.6196,1.6602,1.6866,1.7647,1.7969,1.7969,0.0,0.0,0.0,1.5834,1.5318,1.4907,1.5105,1.5223,1.5224,1.516,1.5357,1.5459,0.0,0.0,0.0,0.0,0.0,0.0,0.0,0.6658,0.7051,0.7519,0.8041,0.8307,0.818,0.7949,0.7203,0.0,0.0,0.0,0.0,0.0,0.0,0.0,0.0,0.0,0.0,0.0,0.0,0.0,0.0,0.0,0.0,0.0,0.0,0.0,0.0,0.0,0.0,0.0,0.0,0.0,0.0,0.0,0.0,0.0,0.0,0.0,0.0,0.0,0.9077,0.9002,0.9349,0.9901,1.0268,1.2257,1.4431,1.4146,0.0,0.0,1.4781,1.472,1.464,1.4823,1.4024,1.3003,1.2545,0.0,1.0419,0.9738,0.9432,0.9348,0.9564,0.9828,1.0298,1.109,1.1907,1.2758,1.3887,1.4714,1.5375,1.5903,0.0,0.0,0.0,0.0,0.0,0.0,0.0,0.0,0.0,1.6183,1.6183,1.6183,1.6183,1.6079,1.5931,1.5727,1.5924,1.6629,1.6522,1.6996,1.784,1.7969,1.7969,1.7969,0.0,0.0,0.0,1.7383,1.6613,1.5024,1.6501,1.6787,1.6421,1.686,1.7302,1.7543,0.0,0.0,0.0,0.0,0.0,0.0,0.6993,0.6948,0.7135,0.8147,0.8321,0.8462,0.8609,0.834,0.7837,0.69,0.0,0.0,0.0,0.0,0.0,0.0,0.0,0.0,0.0,0.0,0.0,0.0,0.0,0.0,0.0,0.0,0.0,0.0,0.0,0.0,0.0,0.0,0.0,0.0,0.0,0.0,0.0,0.0,0.0,0.0,0.0,0.0,0.0,0.0,0.8419,0.8672,0.8546,0.9934,1.1851,1.3077,1.3655,1.3986,1.4435,1.4685,1.4739,1.4696,1.4,1.3084,1.2358,1.1293,1.0216,0.954,0.9145,0.9053,0.9348,0.9417,0.9748,1.0839,1.108,1.159,1.2885,1.3566,1.4222,1.5026,0.0,0.0,0.0,0.0,0.0,0.0,0.0,0.0,0.0,1.6183,1.6183,1.6183,1.6056,1.589,1.5751,1.6146,1.6389,1.6614,1.7815,1.8606,1.8996,1.9571,1.989,1.9826,0.0,0.0,0.0,1.8098,1.7518,1.6824,1.7162,1.6954,1.6544,1.7088,1.7217,1.7093,0.0,0.0,0.0,0.0,0.0,0.6324,0.7378,0.7234,0.735,0.8481,0.8749,0.8898,0.909,0.8906,0.8625,0.821,0.6706,0.0,0.0,0.0,0.0,0.0,0.0,0.0,0.0,0.0,0.0,0.0,0.0,0.0,0.0,0.0,0.0,0.0,0.0,0.0,0.0,0.0,0.0,0.0,0.0,0.0,0.0,0.0,0.0,0.0,0.0,0.0,0.0,0.0,0.0,0.7994,0.7647,0.8392,0.9776,1.1858,1.2923,1.3495,1.3991,1.4388,1.4629,1.4482,1.3821,1.2999,1.2224,1.1123,1.0093,0.9455,0.8992,0.8812,0.9131,0.9183,0.9475,1.0461,1.0631,1.1061,1.2217,1.2909,1.3594,0.0,0.0,0.0,0.0,0.0,0.0,0.0,0.0,0.0,0.0,0.0,1.6117,1.6178,1.5971,1.5969,1.6031,1.6547,1.7036,1.7442,1.8926,1.9769,2.0087,2.0792,2.1109,0.0,0.0,0.0,0.0,1.9124,1.8547,1.7988,1.8096,1.7833,1.7451,1.796,1.8027,1.7929,0.0,0.0,0.0,0.0,0.0,0.0,0.7126,0.7427,0.783,0.844,0.9228,0.9786,0.9791,0.9661,0.9583,0.9579,0.6767,0.0,0.0,0.0,0.0,0.0,0.0,0.0,0.0,0.0,0.7214,0.7415,0.7519,0.0,0.0,0.0,0.0,0.0,0.0,0.0,0.0,0.0,0.0,0.0,0.0,0.0,0.0,0.0,0.0,0.0,0.0,0.0,0.0,0.0,0.0,0.0,0.0,0.7994,0.8646,1.0422,1.2082,1.3433,1.3641,1.3854,1.4019,1.4019,1.3391,1.2606,1.1968,1.1019,1.0093,0.9455,0.8992,0.877,0.8948,0.9319,0.9667,0.9971,1.083,1.1723,1.2297,1.3154,0.0,0.0,0.0,0.0,0.0,0.0,0.0,0.0,0.0,0.0,0.0,0.0,1.5961,1.6174,1.5971,1.6304,1.7099,1.6876,1.7756,1.9577,1.9577,2.0087,2.1109,2.1109,0.0,0.0,0.0,0.0,0.0,2.0666,1.989,1.811,1.9594,1.9908,1.9636,2.0018,2.054,2.0919,0.0,0.0,0.0,0.0,0.0,0.0,0.0,0.7487,0.7765,0.8943,0.8886,0.904,0.9836,0.9418,0.9178,0.9583,0.753,0.0,0.0,0.0,0.0,0.0,0.0,0.0,0.0,0.0,0.753,0.7415,0.7781,0.8073,0.8281,0.7702,0.0,0.0,0.0,0.0,0.0,0.0,0.0,0.0,0.0,0.0,0.0,0.0,0.0,0.0,0.0,0.0,0.0,0.0,0.0,0.0,0.0,0.0,0.0,0.9213,1.0676,1.2186,1.2535,1.2989,1.3263,1.2838,1.2422,1.1992,1.1505,1.0589,0.97,0.9352,0.8992,0.877,0.8943,0.9094,0.9521,1.0447,1.0877,1.1411,0.0,0.0,0.0,0.0,0.0,0.0,0.0,0.0,0.0,0.0,0.0,0.0,0.0,0.0,1.5817,1.5956,1.5616,1.587,1.6871,1.7364,1.8307,1.9641,2.0278,2.0786,2.1109,2.1109,0.0,0.0,0.0,0.0,0.0,2.0982,2.0611,1.9907,2.0361,2.0022,1.9337,2.023,2.0339,2.0151,0.0,0.0,0.0,0.0,0.0,0.0,0.0,0.7671,0.7914,0.899,0.883,0.8966,0.9911,0.9471,0.9296,0.98,0.8379,0.0,0.0,0.0,0.0,0.0,0.0,0.0,0.8069,0.7893,0.7904,0.8141,0.8847,0.9269,0.9534,0.9116,0.9284,0.9921,0.0,0.0,0.0,0.0,0.0,0.0,0.0,0.0,0.0,0.0,0.0,0.0,0.0,0.0,0.0,0.0,0.0,0.0,0.0,0.0,0.0,0.0,1.0144,1.1119,1.1542,1.2124,1.2557,1.2486,1.2155,1.1869,1.1771,1.0751,0.9754,0.957,0.9091,0.8741,0.8878,0.9061,0.9446,1.0187,1.0636,1.1203,0.0,0.0,0.0,0.0,0.0,0.0,0.0,0.0,0.0,0.0,0.0,0.0,0.0,0.0,1.6233,1.6629,1.6104,1.6297,1.7351,1.8224,1.9124,2.0151,2.0792,2.1109,2.1109,0.0,0.0,0.0,0.0,0.0,0.0,2.0989,2.0842,2.0668,2.0555,2.0198,1.9792,2.0427,2.048,2.0278,0.0,0.0,0.0,0.0,0.0,0.0,0.0,0.8034,0.8295,0.8699,0.9053,0.946,0.9928,0.9762,0.9766,1.026,0.0,0.0,0.0,0.0,0.0,0.0,0.0,0.0,0.8636,0.8168,0.8416,0.9384,1.0396,1.09,1.1035,1.1346,1.1393,1.1249,1.1126,0.0,0.0,0.0,0.0,0.0,0.0,0.0,0.0,0.0,0.0,0.0,0.0,0.0,0.0,0.0,0.0,0.0,0.0,0.0,0.0,0.0,0.0,0.0,0.0,1.132,1.1936,1.2613,1.2444,1.2114,1.242,1.1343,0.0,0.9956,0.9309,0.8751,0.876,0.9197,0.955,0.9456,1.0315,1.1184,0.0,0.0,0.0,0.0,0.0,0.0,0.0,0.0,0.0,0.0,0.0,0.0,0.0,0.0,0.0,1.7763,1.7324,1.7522,1.843,1.9245,2.0087,2.1109,2.1109,2.1109,2.1109,0.0,0.0,0.0,0.0,0.0,0.0,2.0851,2.0723,2.0621,2.0422,2.0557,2.0743,2.0764,2.1,2.1229,0.0,0.0,0.0,0.0,0.0,0.0,0.0,0.0,0.0,0.0,0.9165,0.9211,0.963,0.963,0.9705,0.0,0.0,0.0,0.0,0.0,0.0,0.0,0.0,0.0,0.9126,0.9176,0.9154,0.9192,1.0092,1.1002,1.1958,1.154,1.1934,1.2942,1.2716,1.2661,0.0,0.0,0.0,0.0,0.0,0.0,0.0,0.0,0.0,0.0,0.0,0.0,0.0,0.0,0.0,0.0,0.0,0.0,0.0,0.0,1.0461,1.0529,1.1065,0.0,1.1085,1.0914,1.1208,1.1607,0.0,1.113,1.0522,1.0003,0.9622,0.9396,0.9377,0.9371,0.971,1.0825,1.134,1.1874,0.0,0.0,0.0,0.0,0.0,0.0,0.0,0.0,0.0,0.0,0.0,0.0,0.0,0.0,0.0,1.7568,1.8934,1.9844,2.0036,1.973,2.0087,2.1109,2.1109,2.1109,2.1109,0.0,0.0,0.0,0.0,0.0,2.0831,2.1252,2.0965,2.0408,2.1596,2.177,2.1499,2.1673,2.2111,2.2514,0.0,0.0,0.0,0.0,0.0,0.0,0.0,0.0,0.0,0.0,0.0,0.0,0.0,0.0,0.0,0.0,0.0,0.0,0.0,0.0,0.0,0.0,0.0,0.8899,0.9607,0.962,0.9764,1.004,1.1028,1.2148,1.3345,1.3112,1.3512,1.4364,1.3828,1.3368,0.0,0.0,0.0,0.0,0.0,0.0,0.0,0.0,0.0,0.0,1.1498,1.0841,0.0,0.9942,0.9758,0.9648,0.0,0.0,0.0,0.0,1.0925,1.0984,1.1263,1.1373,1.1499,1.1841,1.1841,1.198,1.2662,1.191,1.0931,1.0621,1.0395,1.0195,0.9993,1.0018,1.0336,0.0,1.1635,0.0,0.0,0.0,0.0,0.0,0.0,0.0,0.0,0.0,0.0,0.0,0.0,0.0,0.0,0.0,0.0,0.0,2.0943,2.1398,2.0639,2.0399,2.0722,2.1544,2.1544,2.1734,2.2048,0.0,0.0,0.0,0.0,0.0,2.1149,2.161,2.1509,2.1155,2.2255,2.2447,2.2183,2.2436,2.2793,2.2999,0.0,0.0,0.0,0.0,0.0,0.0,0.0,0.0,0.0,0.0,0.0,0.0,0.0,0.0,0.0,0.0,0.0,0.0,0.0,0.0,0.0,0.0,0.8723,0.9218,1.0042,0.9817,1.0168,1.1099,1.2297,1.3447,1.4533,1.4964,1.5263,1.5357,1.4529,1.3783,0.0,0.0,0.0,0.0,0.0,0.0,0.0,0.0,0.0,0.0,0.0,0.0,0.0,0.9799,0.9694,0.9672,1.0186,0.0,0.0,0.0,0.0,0.0,1.1652,1.199,1.2531,1.329,1.2924,1.2692,1.3841,1.2733,1.1474,1.1353,1.1306,1.1146,1.0819,1.1075,0.0,0.0,0.0,0.0,0.0,0.0,0.0,0.0,0.0,0.0,0.0,0.0,0.0,0.0,0.0,0.0,0.0,0.0,0.0,0.0,2.2724,2.2598,2.1145,2.1285,2.167,2.2237,2.2237,2.2543,2.3106,2.3106,0.0,0.0,0.0,0.0,2.1735,2.2069,2.2229,2.2235,2.2763,2.2972,2.2924,2.3197,2.327,2.3284,0.0,0.0,0.0,0.0,0.0,0.0,0.0,0.0,0.0,0.0,0.0,0.0,0.0,0.0,0.0,0.0,0.0,0.0,0.0,0.0,0.0,0.8592,0.9379,0.9948,1.0265,1.0208,1.0354,1.0669,1.2347,1.3487,1.418,1.5483,1.5828,1.5364,1.4736,1.4272,1.387,1.3173,0.0,0.0,0.0,0.0,0.0,0.0,0.0,0.0,0.0,0.0,0.0,1.0423,1.0002,0.9638,0.9729,0.0,0.0,0.0,0.0,0.0,1.2705,1.3323,1.3429,1.1917,1.2158,1.2716,1.2293,1.2284,1.2158,1.1669,1.204,1.2438,1.242,1.2786,1.3435,0.0,0.0,0.0,0.0,0.0,0.0,0.0,0.0,0.0,0.0,0.0,0.0,0.0,0.0,0.0,0.0,0.0,0.0,0.0,0.0,2.3798,2.3542,2.3043,2.2856,2.2918,2.2918,2.2981,2.3106,2.3106,2.2897,0.0,0.0,2.2408,2.2086,2.2692,2.2789,2.2747,2.3892,2.4146,2.3915,2.3907,2.4117,2.4223,0.0,0.0,0.0,0.0,0.0,0.0,0.0,0.0,0.0,0.0,0.0,0.0,0.0,0.0,0.0,0.0,0.0,0.0,0.0,0.0,0.9084,0.9285,0.987,1.0217,1.0317,1.0173,1.0484,1.1246,1.1954,1.316,1.4757,1.5643,1.5797,1.5364,1.4616,1.4215,1.4046,1.2918,1.2485,0.0,0.0,0.0,0.0,0.0,0.0,0.0,0.0,0.0,0.0,0.0,1.002,0.9899,0.9676,0.0,0.0,0.0,0.0,0.0,1.2297,1.2958,1.3166,1.2288,1.2691,1.3145,1.2745,1.231,1.2108,1.2381,1.2754,1.3188,1.3592,0.0,1.4654,1.5806,0.0,0.0,0.0,0.0,0.0,0.0,0.0,0.0,0.0,0.0,0.0,0.0,0.0,0.0,0.0,0.0,0.0,0.0,0.0,0.0,2.4672,2.4355,2.3984,2.3666,2.3666,2.386,2.4162,2.3978,2.3627,0.0,0.0,2.3126,2.2707,2.3538,2.3828,2.3809,2.4542,2.4777,2.4649,2.4461,2.4243,2.3896,0.0,0.0,0.0,0.0,0.0,0.0,0.0,0.0,0.0,0.0,0.0,0.0,0.0,0.0,0.0,0.0,0.0,0.0,0.0,0.9279,0.9438,0.9738,1.0103,1.0317,1.0376,1.0116,1.0507,1.161,1.1754,1.3088,1.5466,1.5775,1.5705,1.5264,1.4522,1.4155,1.4004,1.2619,1.2314,0.0,0.0,0.0,0.0,0.0,0.0,0.0,0.0,0.0,0.0,0.0,0.0,0.0,0.0,0.0,0.0,1.0602,1.0856,1.1227,1.1913,1.2543,1.2975,1.2908,1.3222,1.3571,1.3636,1.2978,1.2582,1.3563,1.3981,1.433,0.0,1.5404,0.0,0.0,0.0,0.0,0.0,0.0,0.0,0.0,0.0,0.0,0.0,0.0,0.0,0.0,0.0,0.0,0.0,0.0,0.0,0.0,0.0,0.0,2.5111,2.5111,2.4857,2.4355,2.4355,2.461,2.5095,2.4746,2.4338,2.3823,2.4027,2.3866,2.35,2.4296,2.4627,2.473,2.5,2.5056,2.4928,2.4499,2.3943,2.3259,0.0,0.0,0.0,0.0,0.0,0.0,0.0,0.0,0.0,0.0,0.0,0.0,0.0,0.0,0.0,0.0,0.0,0.0,0.0,0.9156,0.9314,0.9345,0.9955,1.0403,1.056,1.0201,1.031,1.0984,1.2078,1.372,1.5836,1.6143,1.5846,1.5028,1.4636,1.4342,1.4004,1.2619,1.2015,1.1969,1.0697,0.0,0.0,0.0,0.0,0.0,0.0,0.0,0.0,0.0,0.0,0.0,0.0,0.0,1.1472,1.1379,1.1292,1.149,1.2461,1.312,1.3449,1.3001,1.3157,1.3592,1.4193,1.4421,1.4752,1.563,1.6163,1.6461,0.0,1.7443,0.0,0.0,0.0,0.0,0.0,0.0,0.0,0.0,0.0,0.0,0.0,0.0,0.0,0.0,0.0,0.0,0.0,0.0,0.0,0.0,0.0,0.0,2.5111,2.5111,2.5111,2.505,2.505,2.505,2.5095,2.4746,2.4579,2.4495,2.4206,2.4237,2.4487,2.4571,2.4778,2.5071,2.5103,2.4905,2.4539,2.3864,2.3379,2.295,0.0,0.0,0.0,0.0,0.0,0.0,0.0,0.0,0.0,0.0,0.0,0.0,0.0,0.0,0.0,0.0,0.0,0.0,0.0,0.9421,0.9676,1.0098,1.0206,1.032,1.0406,1.0045,1.0505,1.1826,1.348,1.4654,1.5288,1.5748,1.5725,1.5204,1.4543,1.4188,1.4046,1.3045,1.2357,1.1884,1.0445,0.0,0.0,0.0,0.0,0.0,0.0,0.0,0.0,0.0,1.0754,1.1057,1.0353,1.076,1.145,1.1342,1.1347,1.1509,1.2289,1.2913,1.3285,1.297,1.3641,1.439,1.4369,1.4424,1.4859,1.6178,1.6497,1.6736,1.7397,0.0,0.0,0.0,0.0,0.0,0.0,0.0,0.0,0.0,0.0,0.0,0.0,0.0,0.0,0.0,0.0,0.0,0.0,0.0,0.0,0.0,0.0,0.0,0.0,2.5111,2.5111,2.5111,2.5111,2.4992,2.477,2.4412,2.4313,2.4305,2.4169,2.4313,2.4579,2.4579,2.4658,2.4754,2.4539,2.4237,2.3904,2.3584,2.3259,2.2911,0.0,0.0,0.0,0.0,0.0,0.0,0.0,0.0,0.0,0.0,0.0,0.0,0.0,0.0,0.0,0.0,0.0,0.0,0.939,0.947,0.9724,1.0258,1.0211,1.0246,1.0408,1.0123,1.06,1.1921,1.4136,1.4962,1.4548,1.5504,1.5765,1.5364,1.4576,1.4275,1.4306,1.3382,1.2571,1.1776,1.0455,1.0298,0.0,0.0,0.0,0.0,0.0,0.0,0.0,0.0,1.1124,1.1576,1.0991,1.1263,1.1784,1.1895,1.1915,1.2003,1.2449,1.3026,1.337,1.2988,1.3831,1.4657,1.4414,1.4846,1.571,1.711,1.7248,1.7283,1.8034,0.0,0.0,0.0,0.0,0.0,0.0,0.0,0.0,0.0,0.0,0.0,0.0,0.0,0.0,0.0,0.0,0.0,0.0,0.0,0.0,0.0,0.0,0.0,0.0,2.4833,2.4778,2.4778,2.4778,2.4706,2.4571,2.4273,2.4169,2.4273,2.4161,2.4313,2.4571,2.446,2.4412,2.4432,2.3904,2.3586,2.329,2.3125,2.2823,2.245,0.0,0.0,0.0,0.0,0.0,0.0,0.0,0.0,0.0,0.0,0.0,0.0,0.0,0.0,0.0,0.0,0.0,0.0,0.8981,0.9169,0.9376,0.9592,0.9838,1.0189,1.0607,1.0395,1.0488,1.088,1.3646,1.4572,1.3745,1.5477,1.5952,1.5371,1.4783,1.4689,1.4917,1.3577,1.2506,1.1626,1.0759,1.0344,1.0169,0.0,0.0,0.0,0.0,0.0,0.0,0.0,1.2058,1.2345,1.2677,1.2706,1.2675,1.3087,1.3117,1.3048,1.3166,1.3641,1.3913,1.3088,1.3538,1.4231,1.4522,1.5948,1.7495,1.8684,1.8698,1.8497,1.8497,1.8497,0.0,0.0,0.0,0.0,0.0,0.0,0.0,0.0,0.0,0.0,0.0,0.0,0.0,0.0,0.0,0.0,0.0,0.0,0.0,0.0,0.0,0.0,0.0,2.4289,2.4114,2.4114,2.4106,2.4289,2.4563,2.4273,2.4305,2.4555,2.4265,2.4313,2.4547,2.4249,2.4098,2.4018,2.3276,2.3006,2.2919,2.222,2.1743,2.1404,0.0,0.0,0.0,0.0,0.0,0.0,0.0,0.0,0.0,0.0,0.0,0.0,0.0,0.0,0.0,0.0,0.0,0.0,0.8798,0.8996,0.9164,0.9371,0.9583,0.9861,1.0175,1.0268,1.0414,1.0689,1.3147,1.4089,1.3576,1.5178,1.5758,1.5378,1.5003,1.4649,1.4322,1.3677,1.2646,1.1404,1.133,1.118,1.085,0.0,0.0,0.0,0.0,0.0,0.0,0.0,0.0,0.0,1.1651,1.2342,1.3217,1.2702,1.2982,1.3393,1.3234,1.3788,1.4219,1.3699,1.4899,1.6213,1.5906,1.6383,1.7325,1.8917,1.8998,1.8791,1.8791,0.0,0.0,0.0,0.0,0.0,0.0,0.0,0.0,0.0,0.0,0.0,0.0,0.0,0.0,0.0,0.0,0.0,0.0,0.0,0.0,0.0,0.0,0.0,0.0,0.0,2.4114,2.4106,2.3808,2.3872,2.4265,2.4161,2.4169,2.4257,2.4153,2.4169,2.4217,2.357,2.303,2.2616,2.2409,2.233,2.2243,2.2091,2.1947,2.1775,0.0,0.0,0.0,0.0,0.0,0.0,0.0,0.0,0.0,0.0,1.0606,1.0236,0.0,0.0,0.0,0.0,0.0,0.0,0.0,0.8779,0.8987,0.9155,0.9366,0.9691,1.0113,1.0331,1.0417,1.0366,1.229,1.3221,1.3172,1.4606,1.5331,1.5391,1.5211,1.4937,1.4583,1.4168,1.306,1.1599,1.1764,1.1393,1.0687,0.0,0.0,0.0,0.0,0.0,0.0,0.0,0.0,0.0,1.1235,1.1764,1.2484,1.2609,1.3126,1.364,1.3861,1.4462,1.4877,1.4412,1.5522,1.6736,1.6876,1.7249,1.7938,0.0,1.9132,1.8958,1.9078,0.0,0.0,0.0,0.0,0.0,0.0,0.0,0.0,0.0,0.0,0.0,0.0,0.0,0.0,0.0,0.0,0.0,0.0,0.0,0.0,0.0,0.0,0.0,0.0,0.0,0.0,2.3634,2.3435,2.3514,2.3848,2.3848,2.3848,2.384,2.3705,2.362,2.3445,2.2823,2.2347,2.1995,2.1806,2.1759,2.1735,2.16,2.1544,2.1513,0.0,0.0,0.0,0.0,0.0,0.0,0.0,0.0,0.0,0.0,1.0513,1.0024,0.0,0.0,0.0,0.0,0.0,0.0,0.0,0.0,0.8779,0.8976,0.9252,0.9653,1.0274,1.045,1.035,0.9966,1.1235,1.208,1.257,1.3863,1.481,1.5398,1.5398,1.5337,1.5197,1.4609,1.3352,1.1843,1.1886,1.115,0.999,0.9605,0.0,0.0,0.0,0.0,0.0,0.0,0.0,0.0,1.1267,1.1055,1.1028,1.2619,1.3293,1.3746,1.4616,1.5304,1.5675,1.531,1.5638,1.6343,1.7441,1.8311,1.8978,1.9299,0.0,1.9045,0.0,0.0,0.0,0.0,0.0,0.0,0.0,0.0,0.0,0.0,0.0,0.0,0.0,0.0,0.0,0.0,0.0,0.0,0.0,0.0,0.0,0.0,0.0,0.0,0.0,0.0,0.0,0.0,2.3014,2.3165,2.3393,2.3457,2.3465,2.3417,2.3085,2.272,2.2363,2.2045,2.1947,2.1884,2.152,2.1349,2.1309,2.0992,2.0925,2.0925,0.0,0.0,0.0,0.0,0.0,0.0,0.0,0.0,0.0,0.0,0.0,0.0,0.0,0.0,0.0,0.0,0.0,0.0,0.0,0.0,0.8633,0.8966,0.953,0.9923,1.0061,0.9904,0.9757,0.9667,1.0877,1.1716,1.2235,1.3554,1.463,1.5398,1.5398,1.4883,1.3939,1.338,1.2125,1.0547,1.1073,1.0825,1.0046,0.96,0.9866,0.0,0.0,0.0,0.0,0.0,0.0,0.0,1.0609,1.0804,1.1112,1.1939,1.2705,1.3394,1.3773,1.4689,1.5571,1.5945,1.6812,1.7652,1.8193,1.8473,1.8738,1.9316,1.9319,0.0,0.0,0.0,0.0,0.0,0.0,0.0,0.0,0.0,0.0,0.0,0.0,0.0,0.0,0.0,0.0,0.0,0.0,0.0,0.0,0.0,0.0,0.0,0.0,0.0,2.3133,2.3054,2.3014,0.0,2.3014,2.2911,2.2736,2.3235,2.3338,2.3093,2.2458,2.1989,2.161,2.1539,2.1393,2.1139,2.106,2.0984,2.0976,2.0948,2.0925,2.0925,0.0,0.0,0.0,0.0,0.0,0.0,0.0,0.0,0.0,0.0,0.0,0.0,0.0,0.0,0.0,0.0,0.0,0.0,0.0,0.8344,0.8633,0.9103,0.9478,0.97,0.9804,0.9559,0.9404,0.9305,1.0001,1.0708,1.1479,1.2883,1.3938,1.4682,1.5193,1.4897,1.3993,1.3581,1.2409,1.0861,1.1518,1.0982,0.9817,0.9493,0.9494,0.9657,0.8975,0.0,0.0,0.0,0.0,0.0,0.0,0.0,0.9964,1.1045,1.184,1.2605,1.3706,1.4716,1.5638,1.6647,0.0,1.8069,1.8424,1.849,1.8577,1.8885,0.0,0.0,0.0,0.0,0.0,0.0,0.0,0.0,0.0,0.0,0.0,0.0,0.0,0.0,0.0,0.0,0.0,0.0,0.0,0.0,0.0,0.0,0.0,0.0,0.0,0.0,2.3014,2.3014,2.3014,2.3014,2.2847,2.2577,2.2243,2.2617,2.2688,2.2474,2.1949,2.1616,2.1388,2.1214,2.104,2.0925,2.0925,2.0925,2.0925,2.0925,2.0925,2.0925,0.0,0.0,0.0,0.0,0.0,0.0,0.0,0.0,0.0,0.0,0.0,0.0,0.0,0.0,0.0,0.0,0.0,0.0,0.0,0.8316,0.868,0.9195,0.9244,0.9348,0.9493,0.9324,0.915,0.8985,0.915,0.9744,1.0713,1.2026,1.3087,1.3863,1.474,1.4777,1.4127,1.3959,1.2918,1.1433,1.186,1.1015,0.9485,0.9215,0.8963,0.8765,0.8262,0.8447,0.8931,0.8869,0.0,0.0,0.0,0.0,0.8671,1.0245,1.0972,1.1682,1.36,1.4716,1.5671,1.7141,1.7702,0.0,1.827,1.8337,1.8337,0.0,0.0,0.0,0.0,0.0,0.0,0.0,0.0,0.0,0.0,0.0,0.0,0.0,0.0,0.0,0.0,0.0,0.0,0.0,0.0,0.0,0.0,0.0,0.0,0.0,0.0,2.3014,2.3014,2.295,2.2919,2.2919,2.2506,2.2148,2.187,2.186,2.1868,2.1854,2.1452,2.1301,2.1285,2.0992,2.0925,2.0925,2.0925,2.0925,2.0925,2.0925,2.0925,2.0925,0.0,0.0,0.0,0.0,0.0,0.0,0.0,0.0,0.0,0.0,1.1558,1.0787,0.9437,0.9228,0.0,0.0,0.0,0.0,0.8101,0.0,0.0,0.8779,0.9133,0.9216,0.907,0.9037,0.9014,0.8985,0.9014,0.9582,1.063,1.1285,1.2283,1.3588,1.3869,1.3561,1.2794,1.2916,1.2084,1.0615,1.0276,0.9795,0.9178,0.8508,0.8353,0.8439,0.8196,0.8145,0.8249,0.8237,0.8221,0.0,0.0,0.0,0.0,0.9868,1.0513,1.1051,1.228,0.0,1.5424,0.0,1.7293,1.7393,0.0,0.0,0.0,0.0,0.0,0.0,0.0,0.0,0.0,0.0,0.0,0.0,0.0,0.0,0.0,0.0,0.0,0.0,0.0,0.0,0.0,0.0,0.0,0.0,0.0,0.0,2.3014,2.3014,2.3014,0.0,2.3014,2.2712,2.2561,2.2545,2.1848,2.1507,2.1452,2.1203,2.1227,2.1444,2.1095,2.0996,2.0937,2.0941,2.0925,2.0925,2.0925,2.0925,2.0925,2.0925,2.0925,2.0925,0.0,0.0,0.0,0.0,0.0,0.0,0.0,0.0,0.0,0.0,0.0,1.0954,0.9757,0.9605,0.0,0.0,0.0,0.0,0.8276,0.8434,0.0,0.8699,0.8656,0.8694,0.8841,0.8505,0.8444,0.8675,0.8675,0.9446,1.0934,1.1617,1.2641,1.3977,1.4815,1.4734,1.3849,1.3445,1.2297,1.0808,1.091,1.0559,0.9876,0.9307,0.9075,0.8959,0.8116,0.7722,0.7617,0.7726,0.7845,0.7946,0.0,0.0,0.0,0.0,0.9239,0.9901,1.1396,1.314,1.4813,0.0,1.6478,1.6934,1.7061,0.0,0.0,0.0,0.0,0.0,0.0,0.0,0.0,0.0,0.0,0.0,0.0,0.0,0.0,0.0,0.0,0.0,0.0,0.0,0.0,0.0,0.0,0.0,0.0,2.2426,2.2426,2.2426,2.2426,0.0,2.2426,2.2267,2.2092,2.1902,2.1539,2.1293,2.1095,2.0996,2.1004,2.1095,2.0937,2.0925,2.0925,2.0925,2.0925,2.0925,2.0925,2.0925,2.0925,2.0925,2.0925,2.0925,0.0,0.0,0.0,0.0,0.0,0.0,0.0,0.0,0.0,0.0,0.0,0.0,1.0334,0.0,0.0,0.0,0.0,0.0,0.8688,0.0,0.0,0.0,0.0,0.8283,0.8538,0.8042,0.7957,0.8321,0.8503,0.9549,1.1379,1.2424,1.3593,1.4913,1.5726,1.5614,1.4635,1.401,1.2877,1.1605,1.1893,1.155,1.0789,1.0313,1.0044,0.9745,0.8467,0.7787,0.754,0.7624,0.7697,0.7693,0.0,0.0,0.0,0.0,0.0,0.8975,0.0,0.0,1.3641,1.4509,1.5561,1.6413,0.0,0.0,0.0,0.0,0.0,0.0,0.0,0.0,0.0,0.0,0.0,0.0,0.0,0.0,0.0,0.0,0.0,0.0,0.0,0.0,0.0,0.0,0.0,0.0,2.2011,2.2011,2.2011,2.2011,2.2011,2.2011,2.2011,2.1924,2.1655,2.1262,2.1262,2.1127,2.0925,2.0925,2.0925,2.0925,2.0925,2.0925,2.0925,2.0925,2.0925,2.0925,2.0925,2.0925,2.0925,2.0925,2.0925,2.0925,0.0,0.0,0.0,0.0,0.0,0.0,0.0,0.0,0.0,0.0,0.0,0.0,1.1203,1.1074,1.0355,0.8701,0.0,0.0,0.0,0.0,0.0,0.0,0.0,0.0,0.8153,0.793,0.7921,0.8134,0.876,1.0015,1.1909,1.365,1.5214,1.6459,1.5886,1.4971,1.3859,1.4008,1.3707,1.3047,1.2512,1.2088,1.1765,1.1037,1.0765,1.0616,0.9511,0.8767,0.8317,0.0,0.0,0.7474,0.0,0.7235,0.7286,0.0,0.0,0.0,0.0,1.07,0.0,1.3389,1.4624,0.0,0.0,0.0,0.0,0.0,0.0,0.0,0.0,0.0,0.0,0.0,0.0,0.0,0.0,0.0,0.0,0.0,0.0,0.0,0.0,0.0,0.0,0.0,0.0,0.0,2.2011,2.2011,2.2011,2.2011,2.2011,2.2011,2.2011,2.164,2.1246,2.0948,2.0948,2.0941,2.0925,2.0925,2.0925,2.0925,2.0925,2.0925,2.0925,2.0925,2.0925,2.0925,2.0925,2.0925,2.0925,2.0925,2.0925,2.0925,0.0,0.0,0.0,0.0,0.0,0.0,0.0,0.0,0.0,0.0,0.0,0.0,0.0,1.0998,1.077,0.9473,0.9859,0.0,0.0,0.0,0.0,0.0,0.0,0.0,0.8115,0.7494,0.7543,0.8294,0.8526,0.978,1.1999,1.3554,1.4844,1.5855,1.6145,1.5973,1.5341,1.4482,1.3748,1.3193,1.2973,1.2933,1.2935,1.2517,1.2488,1.2558,1.1575,0.0,0.0,0.0,0.0,0.8375,0.8366,0.8243,0.8014,0.7502,0.7661,0.8067,0.0,0.0,0.0,1.1734,1.343,1.489,0.0,0.0,0.0,0.0,0.0,0.0,0.0,0.0,0.0,0.0,0.0,0.0,0.0,0.0,0.0,0.0,0.0,0.0,0.0,0.0,0.0,0.0,0.0,0.0,2.129,2.129,2.129,2.129,2.129,2.129,2.129,2.1171,2.1,2.0925,2.0925,2.0925,2.0925,2.0925,2.0925,2.0909,2.0678,2.071,2.0925,2.0925,2.0925,2.0901,2.067,2.0583,2.0551,2.0329,2.0241,2.0241,0.0,0.0,0.0,0.0,0.0,0.0,0.0,0.0,1.2298,1.175,0.0,0.0,0.0,0.0,1.1501,1.0565,1.0515,1.0591,1.0773,1.058,0.0,0.0,0.0,0.0,0.829,0.7468,0.7409,0.8187,0.8592,0.9794,1.1765,1.3147,1.433,1.5264,1.5551,1.5845,1.6052,1.4983,1.4302,1.3935,1.3841,1.3915,1.4053,1.3897,1.3918,1.3944,0.0,0.0,0.0,0.0,0.0,0.0,0.9361,0.89,0.8255,0.7519,0.7538,0.7759,0.7494,0.0,0.0,0.0,0.0,1.3574,0.0,0.0,0.0,0.0,0.0,0.0,0.0,0.0,0.0,0.0,0.0,0.0,0.0,0.0,0.0,0.0,0.0,0.0,0.0,0.0,0.0,0.0,0.0,0.0,2.0925,2.0925,2.0869,2.075,2.0861,2.0861,2.0742,2.0861,2.0925,2.0925,2.0805,2.0742,2.0742,2.0623,2.0567,2.0551,2.0321,2.0416,2.0734,2.0615,2.0567,2.0543,2.0313,2.0218,2.0186,2.0004,1.9917,1.9957,0.0,0.0,0.0,0.0,0.0,0.0,0.0,0.0,1.2621,1.2924,0.0,0.0,0.0,0.0,0.0,1.2007,1.1112,1.0802,1.1394,1.1189,0.0,0.0,0.0,0.0,0.8612,0.7905,0.7614,0.7835,0.8946,1.0073,1.1196,1.2554,1.3788,1.4908,1.4015,1.4392,1.5698,1.5444,1.5344,1.5371,1.5109,1.5008,1.5052,1.5118,1.4978,0.0,1.4093,1.3369,0.0,1.2527,0.0,0.0,1.0213,0.9136,0.7981,0.7645,0.7748,0.7835,0.0,0.0,0.0,0.0,0.0,0.0,0.0,0.0,0.0,0.0,0.0,0.0,0.0,0.0,0.0,0.0,0.0,0.0,0.0,0.0,0.0,0.0,0.0,0.0,0.0,0.0,0.0,0.0,0.0,2.0893,2.0893,2.0893,2.0734,2.0392,2.071,2.0726,2.0377,2.0718,2.0893,2.0885,2.0543,2.0377,2.0369,2.0068,1.9917,1.9917,1.9901,2.0092,2.0337,2.0052,1.9917,1.9917,1.9901,1.9901,1.9893,1.9885,1.9885,1.9974,0.0,0.0,0.0,0.0,0.0,1.3172,1.2726,1.2565,1.2326,0.0,0.0,0.0,1.2272,1.2768,1.31,1.3146,1.2527,1.223,1.2415,1.1949,1.144,1.1014,1.0114,0.9423,0.8911,0.8417,0.8191,0.8233,0.9279,1.0101,1.0804,1.1788,1.2677,1.3407,1.3561,1.3826,1.4173,1.3981,1.447,1.5377,1.4952,1.527,0.0,0.0,0.0,0.0,0.0,1.5297,1.4485,0.0,1.36,1.2206,0.0,1.0161,0.94,0.8767,0.8925,0.9016,0.7809,0.0,0.0,0.0,0.0,0.0,0.0,0.0,0.0,0.0,0.0,0.0,0.0,0.0,0.0,0.0,0.0,0.0,0.0,0.0,0.0,0.0,0.0,0.0,0.0,0.0,0.0,0.0,0.0,2.0154,2.0154,2.0154,2.0106,2.006,2.0106,2.0106,2.006,2.0106,2.0154,2.0154,2.0059,2.006,2.0052,1.9957,1.9917,1.9901,1.9662,1.9614,1.9669,1.9853,1.9917,1.9893,1.9646,1.9558,1.9519,1.9209,1.9113,1.9207,0.0,0.0,0.0,1.462,1.4171,1.3674,1.3215,1.3047,1.2815,0.0,0.0,0.0,1.2946,1.3447,1.3681,1.344,1.2913,1.2549,1.2422,1.2094,1.1764,1.1443,1.0647,1.0084,0.9706,0.9108,0.8851,0.8976,0.9547,1.0079,1.06,1.1115,1.1672,1.2241,1.2581,1.293,1.3319,1.3232,1.3929,1.5062,1.5567,0.0,0.0,1.6891,1.7211,0.0,0.0,0.0,1.6484,1.6341,1.5099,0.0,0.0,0.0,1.0709,0.9894,1.0046,1.0192,0.892,0.9412,1.0128,0.0,0.0,0.0,0.0,0.0,0.0,0.0,0.0,0.0,0.0,0.0,0.0,0.0,0.0,0.0,0.0,0.0,0.0,0.0,0.0,0.0,0.0,0.0,0.0,0.0,1.9609,1.9917,1.9917,1.9917,1.9853,1.971,1.9845,1.9845,1.971,1.9845,1.9917,1.9917,1.9773,1.971,1.9702,1.9503,1.9431,1.9423,1.9233,1.9145,1.9161,1.9352,1.9431,1.9415,1.9225,1.9145,1.9121,1.8907,1.8781,1.8958,0.0,0.0,1.5396,1.5105,1.4589,1.4174,1.399,1.3743,1.358,0.0,1.368,1.3933,1.4596,1.4636,1.4302,1.352,1.2839,1.2345,1.2084,1.198,1.1919,1.1953,1.1153,1.0729,1.0729,0.99,0.9583,0.9805,0.9786,1.0066,1.0546,1.0546,1.0834,1.1384,1.1454,1.199,1.2876,1.3162,1.3781,1.4706,1.6438,1.7066,0.0,0.0,1.8656,1.8509,1.8796,1.8707,1.8401,1.774,1.6263,0.0,0.0,0.0,0.0,1.1042,1.1169,1.1393,1.0345,1.0369,1.0676,0.0,0.0,0.0,1.2155,1.2325,0.0,0.0,0.0,0.0,0.0,0.0,0.0,0.0,0.0,0.0,0.0,0.0,0.0,0.0,0.0,0.0,0.0,0.0,0.0,1.8859,1.945,1.9797,1.9797,1.9797,1.9662,1.932,1.9646,1.9606,1.9359,1.9654,1.9797,1.9749,1.9503,1.9312,1.9304,1.8978,1.8781,1.8781,1.8781,1.8781,1.8781,1.8781,1.8781,1.8781,1.8781,1.8781,1.8781,1.8781,1.8874,1.9142,0.0,1.4706,1.4645,1.4215,1.4057,1.3924,1.3729,1.3447,1.3467,1.3941,1.4202,1.4663,1.5438,1.5364,1.5157,1.4983,1.3953,1.3313,1.326,1.2405,1.2013,1.2204,1.1441,1.101,1.101,1.0637,1.0214,0.9805,1.0231,1.0347,1.02,1.02,1.0543,1.1184,1.1397,1.1885,1.2649,1.3808,0.0,1.4989,1.595,0.0,1.7934,1.8328,1.8744,1.9148,1.9162,1.9192,1.8972,1.8132,1.6939,1.5638,0.0,0.0,0.0,1.2225,1.2392,1.2618,1.1505,1.1739,0.0,0.0,0.0,0.0,0.0,1.1129,0.0,0.0,0.0,0.0,0.0,0.0,0.0,0.0,0.0,0.0,0.0,0.0,0.0,0.0,0.0,0.0,0.0,0.0,1.7144,1.761,1.8504,1.9026,1.9026,1.9026,1.9002,1.8939,1.8994,1.9002,1.8939,1.9002,1.9026,1.9026,1.8962,1.8931,1.8931,1.8859,1.8781,1.8781,1.8781,1.8781,1.8781,1.8781,1.8781,1.8781,1.8781,1.8781,1.8781,1.8781,1.9188,1.9803,1.4637,1.4914,1.5079,1.4851,1.4683,1.4636,1.4685,1.437,1.4295,1.4877,1.5337,1.5665,1.5764,1.5832,1.5598,1.501,1.4289,1.3607,1.2974,1.2418,1.2084,1.2084,1.1693,1.1543,1.1685,1.1482,1.1186,1.0866,1.1026,1.0996,1.0793,1.0645,1.1097,1.2104,1.2076,1.2705,1.3876,1.4201,1.4825,1.5692,1.6931,0.0,1.854,1.9349,1.9804,2.0101,2.0101,1.9946,1.953,1.8592,1.7706,0.0,0.0,1.4726,1.4418,0.0,1.3293,1.348,1.257,0.0,0.0,1.1914,0.0,0.0,0.0,0.0,0.0,0.0,0.0,0.0,0.0,0.0,0.0,0.0,0.0,0.0,0.0,0.0,0.0,0.0,0.0,0.0,0.0,0.0,1.6911,1.766,1.8357,1.8781,1.8781,1.8781,1.8781,1.8781,1.8781,1.8781,1.8781,1.8781,1.8781,1.8781,1.8781,1.8781,1.8781,1.8781,1.8781,1.8781,1.8781,1.8781,1.8781,1.8781,1.8781,1.8781,1.8781,1.8781,1.8827,1.9225,1.9583,2.0076,1.4637,1.5149,1.554,1.5387,1.5423,1.5518,1.5697,1.5374,1.5327,1.5832,1.6326,1.6486,1.6119,1.6246,1.5999,1.5104,1.4609,1.3928,1.2959,1.2632,1.2398,1.2218,1.208,1.2118,1.2472,1.224,1.202,1.189,1.1771,1.1631,1.1513,1.1252,1.1843,1.3085,1.2866,1.3719,1.5273,1.4659,0.0,1.673,0.0,1.862,1.8683,2.014,2.0718,2.0734,2.0869,2.0601,2.0095,1.9149,1.8545,1.7842,1.6195,1.5816,0.0,0.0,0.0,0.0,0.0,0.0,0.0,0.0,0.0,1.2723,0.0,0.0,0.0,1.2415,0.0,0.0,0.0,0.0,0.0,0.0,0.0,0.0,0.0,0.0,0.0,0.0,0.0,0.0,0.0,0.0,1.6878,1.7878,1.8362,1.8704,1.8765,1.8781,1.8781,1.8781,1.8781,1.8781,1.8781,1.8781,1.8874,1.9004,1.8874,1.8966,1.9234,1.892,1.8874,1.9004,1.8874,1.8874,1.9004,1.9004,1.9096,1.9188,1.892,1.8781,1.8874,1.9446,1.9849,2.0303,1.4415,1.4967,1.5012,1.4253,1.516,1.586,1.5419,1.5513,1.5759,1.6209,1.6279,1.6543,1.7005,1.6794,1.6707,1.6891,1.5865,1.519,1.5057,1.3828,1.3206,1.3393,1.2679,1.2518,1.3093,1.2668,1.227,1.1881,1.2017,1.1892,1.158,1.1538,1.2106,1.3111,1.3374,1.4294,1.5627,0.0,1.6492,0.0,1.8279,1.8192,0.0,1.9463,2.0028,2.0067,2.0694,2.0865,2.0703,0.0,1.9408,1.8786,0.0,1.7234,1.6992,0.0,0.0,0.0,0.0,0.0,0.0,0.0,1.3974,0.0,0.0,0.0,1.2442,1.1717,0.0,0.0,0.0,0.0,0.0,0.0,0.0,0.0,0.0,0.0,0.0,0.0,0.0,0.0,0.0,0.0,0.0,1.7331,1.7822,1.8314,1.878,1.8781,1.8781,1.8781,1.8781,1.8781,1.8781,1.8781,1.9142,1.9758,1.9096,1.9463,2.0727,1.9417,1.9142,1.9758,1.9096,1.918,1.9758,1.9758,2.0167,2.0637,1.9325,1.8781,1.8827,1.8874,1.9729,2.0943,1.34,1.3689,1.4009,1.4321,1.462,1.5142,1.6145,1.6668,1.6912,1.6746,1.7164,1.764,1.7991,1.7997,1.8144,1.8515,0.0,1.6899,0.0,0.0,1.4929,1.451,1.4105,1.3935,1.3934,1.3608,1.3154,1.2554,1.22,1.2072,1.2118,1.1913,1.2732,1.43,1.4485,0.0,1.6907,0.0,1.6714,0.0,0.0,0.0,0.0,1.9709,2.048,2.0519,2.0813,2.0925,2.0813,0.0,1.9763,0.0,0.0,0.0,0.0,0.0,0.0,0.0,0.0,0.0,0.0,0.0,0.0,0.0,1.3292,0.0,1.2561,0.0,0.0,0.0,0.0,0.0,0.0,0.0,0.0,0.0,0.0,0.0,0.0,0.0,0.0,0.0,0.0,0.0,0.0,0.0,0.0,1.7671,1.8478,1.867,1.8781,1.8781,1.9225,1.9446,1.9446,1.9866,2.0221,2.0529,2.0221,2.0411,2.0997,2.0365,2.0266,2.0538,2.0229,2.0266,2.0538,2.0538,2.0718,2.0952,2.032,2.0093,2.0138,2.0583,2.1293,2.2148,1.262,1.3029,1.3678,1.4407,1.4623,1.5283,1.7029,1.768,1.786,1.7513,1.8009,1.8556,1.9002,1.9197,1.9531,2.0101,1.9457,1.8585,0.0,0.0,1.6463,1.5755,1.542,1.5076,1.4739,1.4486,1.3979,1.3149,1.277,1.2743,1.3001,1.2624,1.3476,1.5304,1.5415,1.6325,1.779,0.0,1.7339,1.7719,1.8081,1.8284,1.8454,2.0027,2.075,2.0925,2.0925,2.0925,2.0829,2.0218,1.9996,0.0,1.8738,0.0,0.0,0.0,0.0,0.0,1.6568,0.0,0.0,0.0,0.0,0.0,0.0,0.0,0.0,0.0,0.0,0.0,0.0,0.0,0.0,0.0,0.0,0.0,0.0,0.0,0.0,0.0,0.0,0.0,0.0,0.0,0.0,0.0,0.0,0.0,1.8217,1.8612,1.8945,1.9216,1.9852,2.0212,2.0212,2.0718,2.1078,2.1302,2.1087,2.1212,2.1579,2.1177,2.1123,2.1302,2.1078,2.1123,2.1302,2.1302,2.1392,2.1579,2.1579,2.1659,2.1793,2.1926,2.2391,2.3042,1.2522,1.3608,1.4476,1.4162,1.5506,1.6949,1.7934,1.8094,1.8238,1.8685,1.8511,0.0,0.0,0.0,0.0,0.0,0.0,2.0173,1.9819,0.0,1.7421,1.7314,1.6197,1.5519,0.0,1.518,1.4561,1.3464,1.3862,1.415,1.4312,1.3801,1.424,1.5493,1.5952,1.677,1.7838,1.8112,1.9034,2.0218,1.9582,1.9916,2.0742,0.0,2.0321,2.0925,2.0925,0.0,0.0,2.0496,2.0146,0.0,0.0,0.0,0.0,0.0,0.0,0.0,0.0,0.0,0.0,1.6331,0.0,0.0,0.0,0.0,1.4342,0.0,0.0,0.0,0.0,0.0,1.363,1.255,0.0,0.0,0.0,0.0,0.0,0.0,0.0,0.0,0.0,0.0,0.0,0.0,0.0,0.0,1.8113,1.8641,1.9307,2.0237,2.0704,2.0952,2.0952,2.0997,2.1347,2.2059,2.1347,2.1713,2.3003,2.1615,2.1392,2.2015,2.1302,2.1392,2.2059,2.2059,2.2467,2.3047,2.3047,2.3309,2.357,2.2192,2.2426,2.3428,1.3925,1.4873,1.5395,1.4613,1.5304,1.6493,1.7995,1.8504,1.9011,0.0,0.0,0.0,0.0,2.2728,2.298,0.0,0.0,2.2201,2.1674,2.0462,0.0,0.0,0.0,1.7378,0.0,0.0,1.5745,1.561,1.4741,1.4841,1.5814,1.4664,1.4763,1.5909,1.6362,1.6889,0.0,0.0,0.0,0.0,0.0,1.9995,2.0893,0.0,0.0,2.0976,2.1522,2.1369,0.0,2.1383,2.1139,2.0619,2.0504,2.0041,1.9538,1.9538,1.918,0.0,0.0,0.0,1.8278,1.6993,0.0,0.0,0.0,0.0,0.0,0.0,0.0,0.0,0.0,0.0,1.3572,1.2891,1.2479,0.0,0.0,0.0,0.0,0.0,0.0,0.0,0.0,0.0,0.0,0.0,0.0,0.0,0.0,1.838,1.9324,2.0263,2.1228,2.1748,2.1748,2.2157,2.2511,2.2775,2.2511,2.2643,2.3091,2.2608,2.2511,2.274,2.2511,2.2511,2.2775,2.2775,2.2916,2.3135,2.344,2.3847,2.4155,2.3364,2.3727,2.4662,1.518,1.5809,1.6129,1.5358,1.5863,1.6903,1.8441,0.0,0.0,0.0,2.1864,0.0,2.5209,0.0,2.5269,0.0,2.5579,2.4588,2.3662,2.2925,0.0,2.1487,2.0481,0.0,0.0,1.8387,1.7664,1.7458,1.6327,1.6307,1.7267,1.5938,1.58,1.6699,1.6936,1.7219,1.7655,1.8991,1.9352,0.0,0.0,2.0321,0.0,0.0,2.1326,0.0,0.0,2.1971,2.1802,2.218,2.1927,2.1388,2.1251,2.0771,2.0303,2.0303,1.9766,1.9134,1.8812,1.8773,0.0,0.0,1.7173,0.0,1.5747,0.0,0.0,0.0,0.0,0.0,0.0,0.0,1.4026,1.3591,1.2949,1.2022,0.0,0.0,0.0,0.0,0.0,0.0,0.0,0.0,1.0961,1.2543,0.0,0.0,0.0,0.0,1.9287,2.0583,2.1686,2.2315,2.2457,2.2872,2.3091,2.3091,2.3091,2.3091,2.3091,2.3091,2.3091,2.3091,2.3091,2.3091,2.3091,2.3091,2.3178,2.3406,2.3667,2.4186,2.4715,2.4418,2.4775,2.5506,1.6337,1.6477,0.0,0.0,1.7227,0.0,0.0,0.0,2.162,0.0,2.3818,2.4803,2.6809,2.6991,2.7235,2.7973,2.7724,2.7031,2.5847,2.5531,0.0,0.0,2.3157,2.2673,2.2013,2.1114,2.0137,0.0,0.0,1.8455,1.8582,1.7524,1.7315,1.7783,1.7657,0.0,1.8162,1.9392,2.0084,2.0424,2.0825,2.0968,2.107,2.1869,0.0,2.2224,2.2224,2.2677,2.3276,2.2912,2.2561,2.2153,2.1733,2.1325,2.1033,2.1033,2.0529,1.994,1.994,1.9409,1.8706,1.8073,0.0,0.0,0.0,0.0,1.6737,0.0,0.0,0.0,0.0,0.0,0.0,1.4552,1.3672,1.2491,0.0,0.0,0.0,0.0,0.0,0.0,0.0,1.0489,1.0671,1.1923,1.2118,0.0,0.0,0.0,0.0,2.1052,2.2029,2.2682,2.3062,2.3081,2.3091,2.3091,2.3091,2.3091,2.3091,2.3091,2.3091,2.3091,2.3091,2.3091,2.3091,2.3144,2.3406,2.3797,2.3841,2.4433,2.5242,2.5242,2.5506,2.5895,1.7721,1.7993,1.8404,0.0,1.8993,1.9467,0.0,0.0,0.0,0.0,2.5485,2.6492,2.8557,2.8156,2.8059,2.8979,2.8313,0.0,0.0,0.0,0.0,2.5192,2.4333,2.3582,2.3024,2.2026,0.0,2.1296,0.0,1.955,2.0014,1.8357,1.7665,1.78,0.0,1.7809,1.7829,1.9219,2.0069,2.0474,2.1425,2.1776,0.0,0.0,2.3379,2.3877,2.3877,2.3628,2.337,2.3867,2.3549,2.2934,2.2777,2.2309,2.1837,2.1837,2.1302,2.0718,2.0718,2.0175,1.9579,1.9389,1.8588,1.7743,0.0,0.0,0.0,0.0,0.0,0.0,0.0,0.0,0.0,1.4403,1.3112,1.2139,0.0,0.0,0.0,0.0,0.0,0.0,0.0,0.0,1.0812,1.089,0.0,0.0,0.0,0.0,0.0,2.0035,2.1945,2.2838,2.2676,2.2945,2.3091,2.3091,2.3091,2.3091,2.3091,2.3091,2.3091,2.3091,2.3091,2.3091,2.3135,2.3484,2.3711,2.3884,2.4562,2.52,2.5728,2.5728,2.5812,2.5895,1.9497,0.0,0.0,2.1126,0.0,0.0,2.262,0.0,0.0,2.5819,2.6509,0.0,2.9003,2.9222,2.949,3.003,2.9549,0.0,2.8477,0.0,0.0,2.6954,2.6318,2.5666,2.501,2.3858,0.0,2.2555,0.0,2.0292,2.0254,1.8814,1.8068,1.791,0.0,1.8321,1.828,1.97,2.0566,2.1015,2.1778,0.0,0.0,2.3529,2.4134,2.4538,2.4883,2.4735,2.4402,2.4665,2.4307,2.3671,2.3537,2.3033,2.2555,2.2555,2.2024,2.1481,2.1481,2.0934,2.0393,2.0393,1.9538,1.8665,1.8518,1.8145,1.7806,0.0,0.0,0.0,0.0,0.0,0.0,0.0,0.0,0.0,0.0,0.0,0.0,0.0,0.0,0.0,0.0,0.0,0.0,0.0,0.0,0.0,0.0,0.0,0.0,0.0,2.105,2.2067,2.251,2.2701,2.2818,2.2818,2.3013,2.3091,2.3091,2.3091,2.3091,2.3091,2.3091,2.3091,2.3144,2.3624,2.3917,2.4209,2.5158,2.5675,2.5895,2.5895,2.5895,2.5895,2.1248,0.0,0.0,0.0,0.0,0.0,0.0,2.4481,0.0,2.6664,0.0,2.8237,2.9069,3.0205,3.0889,3.0889,0.0,3.0566,2.9795,3.0088,2.9766,2.8594,2.8486,2.8057,2.7197,2.5908,0.0,0.0,0.0,2.08,1.9893,1.8997,1.8383,1.8032,0.0,0.0,0.0,2.0518,2.1309,0.0,2.2205,2.2828,2.3529,2.4332,2.4686,2.4735,2.544,2.5693,2.5625,2.5283,2.4824,2.4355,2.3984,2.3535,2.3091,2.3091,2.2687,2.2236,2.2236,2.1704,2.1123,2.1123,2.0574,1.9954,1.9686,1.888,1.8257,1.8482,1.7765,0.0,0.0,0.0,0.0,0.0,0.0,0.0,0.0,0.0,0.0,0.0,0.0,0.0,0.0,0.0,0.0,0.0,0.0,0.0,0.0,0.0,0.0,0.0,1.9965,0.0,2.2422,0.0,2.2432,2.2432,2.2808,2.3013,2.3013,2.3071,2.3091,2.3091,2.3091,2.3135,2.3232,2.3701,2.4209,2.4754,2.5591,2.5895,2.5895,2.5895,2.5895,2.5895,2.1734,0.0,0.0,0.0,0.0,2.613,2.7357,2.7805,2.8263,2.8939,2.9773,3.0373,3.0547,3.0752,3.0889,3.0889,3.0889,0.0,0.0,0.0,0.0,2.9893,2.9531,2.8945,2.8086,2.6816,2.5518,0.0,2.2568,2.1133,1.9893,1.8997,1.8383,1.8047,0.0,0.0,2.05,2.1158,0.0,2.2192,2.3537,2.4183,2.4381,2.5186,2.5489,2.5489,2.5645,2.5693,2.5674,2.5596,2.504,2.4404,2.4336,2.3769,2.3091,2.3091,2.3003,2.2916,2.2916,2.2422,2.1926,2.1926,2.1347,2.0791,2.0729,2.0569,2.0266,1.974,1.9462,1.9051,1.8141,0.0,0.0,0.0,0.0,0.0,0.0,0.0,0.0,0.0,0.0,0.0,0.0,0.0,0.0,0.0,0.0,0.0,0.0,0.0,0.0,0.0,0.0,0.0,0.0,0.0,0.0,2.2002,2.2422,2.2627,2.2637,2.2935,2.3091,2.3091,2.3091,2.3309,2.3701,2.4166,2.4893,2.5675,2.5853,2.5895,2.5895,2.5895,2.5895,2.5895,0.0,0.0,0.0,0.0,0.0,0.0,0.0,2.9512,0.0,2.9297,2.9609,2.9873,2.9873,3.0478,3.0889,3.0889,3.0889,3.0889,3.0889,3.0889,3.0684,3.0215,2.9795,0.0,2.831,2.7041,2.5742,2.4414,2.2715,2.1211,1.9893,1.8997,1.8383,1.8066,0.0,2.0302,0.0,0.0,0.0,2.2911,2.4057,2.4735,2.5137,2.5538,2.5693,2.5693,2.5693,2.5693,2.5693,2.5693,2.5303,2.4717,2.4492,2.3984,2.3437,2.3159,2.3091,2.3091,2.3091,2.2872,2.2599,2.2599,2.2104,2.157,2.157,2.1257,2.0907,2.0538,2.0484,2.0161,1.9092,1.8473,0.0,0.0,0.0,0.0,0.0,0.0,0.0,0.0,0.0,0.0,0.0,0.0,0.0,0.0,0.0,0.0,0.0,0.0,0.0,0.0,0.0,0.0,0.0,0.0,0.0,2.1553,2.2197,2.251,2.2529,2.2906,2.3222,2.344,2.344,2.3744,2.4209,2.468,2.5285,2.5895,2.5895,2.5895,2.5895,2.5895,2.5895,2.5895,0.0,2.7002,0.0,0.0,2.8496,0.0,2.9512,3.0322,3.0518,2.9473,2.9336,2.9336,2.9336,3.0264,3.0889,3.0889,3.0889,3.0889,3.0889,3.0889,3.0732,3.0361,2.9932,2.9346,2.8584,2.7402,2.6055,0.0,0.0,2.1523,2.0029,1.9231,0.0,0.0,0.0,0.0,0.0,0.0,2.357,2.3843,2.4483,2.5137,2.5693,2.5693,2.5693,2.5693,2.5693,2.5693,2.5693,2.5693,2.5439,2.5057,2.4668,2.4199,2.3721,2.3379,2.3169,2.3091,2.3091,2.3091,2.3091,2.3091,2.2687,2.2325,2.2325,2.1837,2.1401,2.1257,2.1123,2.0793,2.0207,2.0003,0.0,0.0,0.0,0.0,0.0,0.0,0.0,0.0,0.0,0.0,0.0,0.0,0.0,0.0,0.0,0.0,1.367,1.4558,0.0,0.0,0.0,0.0,2.0908,0.0,2.1605,0.0,2.1963,2.2415,2.251,2.29,2.3396,2.3917,2.3841,2.4133,2.4669,2.5158,2.5549,2.5895,2.5895,2.5895,2.5895,2.5895,2.5895,2.5917,0.0,0.0,0.0,0.0,0.0,0.0,0.0,3.0322,3.084,3.0723,3.0703,3.0703,3.0703,3.081,3.0889,3.0889,3.0889,3.0889,3.0889,3.0889,3.0869,3.083,3.0381,2.9922,2.9518,2.8574,2.709,0.0,0.0,2.2549,2.0537,2.0019,0.0,0.0,0.0,0.0,0.0,2.3877,2.4545,2.5001,2.5392,2.5635,2.5693,2.5693,2.5693,2.5693,2.5693,2.5693,2.5693,2.5693,2.5439,2.5106,2.5067,2.4443,2.3779,2.374,2.3447,2.3091,2.3091,2.3091,2.3091,2.3091,2.3047,2.3003,2.3003,2.296,2.2731,2.2104,2.1481,2.0926,2.0734,2.0987,2.0879,0.0,0.0,0.0,0.0,0.0,0.0,0.0,0.0,0.0,0.0,0.0,0.0,0.0,0.0,0.0,0.0,1.4778,0.0,1.793,0.0,1.9939,2.0039,2.1281,0.0,2.0674,2.1523,2.2131,2.2491,2.2926,2.3604,2.4413,2.396,2.4305,2.5158,2.5633,2.5853,2.5895,2.5895,2.5895,2.5895,2.5895,2.5895,2.5961,0.0,0.0,0.0,0.0,0.0,0.0,0.0,3.0664,3.0889,3.0889,3.0889,3.0889,3.0889,3.0889,3.0889,3.0889,3.0889,3.0889,3.0889,3.0889,3.0889,3.0889,3.0449,3.0117,2.9951,2.9111,2.7871,0.0,0.0,2.3594,2.1719,2.1025,0.0,0.0,0.0,2.3213,2.3584,2.4443,2.4912,2.5155,2.5557,2.5693,2.5693,2.5693,2.5693,2.5693,2.5693,2.5693,2.5693,2.5693,2.5567,2.543,2.5204,2.4881,2.4463,2.3935,2.3662,2.3467,2.3169,2.3091,2.3091,2.3091,2.3091,2.3091,2.3091,2.3091,2.3003,2.2775,2.2467,2.223,2.2203,2.1709,2.1224,0.0,0.0,0.0,0.0,0.0,0.0,0.0,0.0,0.0,0.0,0.0,0.0,0.0,0.0,0.0,0.0,0.0,0.0,1.706,0.0,2.0451,2.0623,2.1992,2.2379,2.1724,2.2059,2.2271,2.2431,2.2919,2.3596,2.4524,2.4914,2.5253,2.5633,2.5812,2.5895,2.5895,2.5895,2.5895,2.5895,2.5895,2.5895,2.5972,2.9726,0.0,2.9531,0.0,3.0156,3.0166,3.0791,3.0889,3.0889,3.0889,3.0889,3.0889,3.0889,3.0889,3.0889,3.0889,3.0889,3.0889,3.0889,3.0889,3.0889,3.0889,3.0576,0.0,3.0205,2.9482,2.8545,2.7393,2.6348,0.0,2.3242,0.0,0.0,0.0,2.3848,2.4365,2.4424,2.542,2.5762,2.5684,2.6123,2.6152,2.5928,2.5928,2.5801,2.5693,2.5693,2.5693,2.5693,2.5693,2.5693,2.5635,2.5361,2.5223,2.4969,2.4189,2.3977,2.387,2.3252,2.3309,2.3484,2.3353,2.3396,2.3517,2.3517,2.3396,2.3266,2.3135,2.3091,2.3091,2.3091,2.2262,2.159,0.0,0.0,0.0,0.0,0.0,0.0,0.0,1.7291,1.6289,0.0,0.0,0.0,0.0,0.0,0.0,0.0,0.0,0.0,0.0,0.0,0.0,0.0,0.0,2.3085,2.2488,2.242,2.247,2.2608,2.3372,2.4101,2.4763,2.5534,2.5895,2.5895,2.5895,2.5895,2.5895,2.5895,2.5895,2.5895,2.5895,2.5895,2.5994,3.0107,3.0185,3.0332,3.0801,3.0879,3.0879,3.0889,3.0889,3.0889,3.0889,3.0889,3.0889,3.0889,3.0889,3.0889,3.0889,3.0889,3.0889,3.0889,3.0889,3.0889,0.0,0.0,3.0664,3.0205,2.9785,2.9141,2.8271,0.0,0.0,2.5067,0.0,2.3984,2.4424,2.5274,2.5664,2.5742,2.709,2.7383,2.7031,2.7471,2.7139,2.6387,2.6387,2.6113,2.5693,2.5693,2.5693,2.5693,2.5693,2.5693,2.5693,2.5684,2.543,2.5028,2.4541,2.4429,2.4281,2.335,2.3777,2.437,2.3917,2.4122,2.4498,2.4498,2.4122,2.3667,2.3188,2.3091,2.3091,2.3091,2.274,2.2175,2.1337,0.0,0.0,0.0,0.0,0.0,0.0,1.6897,1.6095,1.6085,0.0,0.0,0.0,0.0,0.0,0.0,0.0,0.0,1.8982,2.0897,0.0,2.1901,2.316,2.3343,2.2488,2.242,2.2626,2.3147,2.4526,2.5168,2.5232,2.5675,2.5895,2.5895,2.5895,2.5895,2.5895,2.5895,2.5895,2.5895,2.5895,2.5895,2.6037,3.1374,3.1279,3.1329,3.1488,3.117,3.0889,3.0889,3.0889,3.0889,3.0889,3.0889,3.0889,3.0889,3.0889,3.0889,0.0,3.0889,3.0889,0.0,3.0889,3.0889,3.0889,3.0889,3.082,3.0674,3.0537,2.9893,2.8721,0.0,0.0,0.0,2.6416,2.6554,2.666,2.7226,2.748,2.751,2.792,2.8008,2.79,2.8037,2.793,2.7656,2.7363,2.7168,2.6982,2.6387,2.6182,2.6182,2.6219,2.6265,2.6304,2.663,2.6433,2.6052,2.5928,2.5701,2.5296,2.4703,2.452,2.4456,2.4327,2.437,2.4498,2.4498,2.437,2.4241,2.4079,2.4026,2.4026,2.4026,2.3773,2.3205,2.2251,0.0,0.0,0.0,0.0,0.0,0.0,0.0,1.7081,0.0,1.6547,0.0,0.0,0.0,0.0,0.0,0.0,0.0,0.0,2.0998,0.0,2.2654,2.374,2.3939,2.3326,2.2955,2.3053,2.3573,2.4687,2.521,2.525,2.5712,2.5895,2.5895,2.5895,2.5895,2.5895,2.5895,2.5895,2.5939,2.6278,2.6398,2.6486,3.1845,3.1787,3.1787,3.1787,3.1286,3.0889,3.0889,3.0889,3.0889,3.0889,3.0889,3.0889,3.0889,3.0889,0.0,3.0889,3.0889,0.0,3.0889,3.0889,3.0889,3.0889,3.0889,3.0889,3.0889,0.0,0.0,2.9658,2.9326,2.876,2.7978,2.793,2.7988,2.8144,2.8408,2.8525,2.8555,2.8867,2.8916,2.8789,2.8945,2.8818,2.8496,2.8232,2.8037,2.7812,2.7119,2.6909,2.6903,2.6742,2.6724,2.687,2.7326,2.7289,2.7016,2.6703,2.651,2.6226,2.5402,2.5246,2.5199,2.4849,2.4893,2.4978,2.4807,2.4754,2.4712,2.4541,2.4701,2.4872,2.4872,2.4585,2.4101,2.3222,0.0,0.0,0.0,0.0,0.0,0.0,0.0,0.0,0.0,1.8105,0.0,0.0,0.0,0.0,0.0,0.0,0.0,1.9749,2.1852,0.0,2.3809,2.4071,2.405,2.3684,2.3416,2.3624,2.429,2.4891,2.5314,2.5459,2.5764,2.5895,2.5895,2.5895,2.5895,2.5895,2.5895,2.5895,2.5961,2.6452,2.6584,2.6715,3.1903,3.1903,0.0,0.0,3.1344,0.0,3.0889,3.0889,3.0889,3.0889,3.0889,3.0889,3.0889,3.0889,3.0889,3.0889,0.0,0.0,0.0,3.0889,3.0889,3.0889,3.0889,0.0,3.0889,3.0469,3.0459,3.0889,3.001,2.9655,2.9648,2.8818,2.8652,2.9062,2.9062,2.9062,2.9111,2.9902,3.0019,2.9697,3.0088,2.9766,2.9053,2.9078,2.8824,2.8423,2.8068,2.7956,2.7925,2.7441,2.7339,2.7508,2.7967,2.8087,2.7908,2.7024,2.7016,2.708,2.5704,2.5978,2.6378,2.5487,2.5591,2.577,2.5338,2.5242,2.5105,2.4669,2.5126,2.5621,2.5621,2.5344,2.4954,2.4327,2.3395,2.2219,2.0688,0.0,0.0,0.0,0.0,0.0,0.0,1.9909,2.0452,0.0,0.0,0.0,0.0,0.0,0.0,2.219,2.3251,2.4186,2.5106,2.4181,2.3694,2.3694,2.376,2.4301,2.5215,2.5248,2.5469,2.5895,2.5895,2.5895,2.5895,2.5895,2.5895,2.5895,2.5895,2.5895,2.5961,2.6442,2.6639,2.6769,0.0,0.0,3.2457,3.2457,3.1624,3.0889,3.0889,3.0889,3.0889,3.0889,3.0889,3.0889,3.0889,3.0889,3.0889,3.0889,3.0889,3.0889,3.0889,3.0889,3.0889,3.0889,3.0889,3.0889,3.0889,3.0781,3.0781,3.0889,3.001,2.9912,3.0566,3.001,2.999,3.043,3.043,3.043,3.0439,3.0644,3.0674,3.0586,3.0693,3.0605,3.0448,3.0548,3.0518,3.0384,3.0153,3.0062,3.0004,2.9595,2.95,2.9427,2.9197,2.9113,2.9026,2.8445,2.8055,2.7679,2.6994,2.6715,2.6464,2.5889,2.5812,2.5853,2.577,2.5717,2.5675,2.5591,2.6093,2.658,2.658,2.6572,2.6323,2.5454,2.4158,2.2717,2.1309,0.0,0.0,0.0,2.0352,2.0801,2.0991,2.1324,2.1129,0.0,0.0,0.0,0.0,0.0,2.197,2.1767,2.3031,2.3835,2.4033,2.3804,2.3694,2.3694,2.4476,2.4956,2.5226,2.5557,2.5786,2.5895,2.5895,2.5895,2.5895,2.5895,2.5895,2.5895,2.5895,2.5895,2.6005,2.6846,2.7151,2.7282,3.3604,3.3084,3.2685,3.2685,3.1682,3.0889,3.0889,3.0889,3.0889,3.0889,3.0889,3.0889,3.0889,3.0889,3.0889,3.0889,3.0889,3.0889,3.0889,3.0889,3.0889,3.0889,3.0889,3.0889,3.0889,3.0889,3.0781,3.0576,3.0303,3.0312,3.0576,3.0537,3.0644,3.0889,3.0889,3.0889,3.0889,3.0401,3.0635,3.1228,3.0509,3.0801,3.171,3.1516,3.1596,3.1778,3.1481,3.1425,3.1347,3.0935,3.0659,3.046,3.0248,2.9838,2.9434,2.9208,2.8746,2.8265,2.7774,2.7304,2.678,2.607,2.5895,2.5895,2.5895,2.5895,2.5895,2.5895,2.6663,2.7307,2.7307,2.7442,2.7213,2.619,2.5121,2.3886,2.2365,2.2108,0.0,2.1699,2.2151,2.2581,2.2782,2.2966,2.2864,2.23,0.0,0.0,2.1922,2.3209,2.3558,2.2597,2.328,2.3804,2.4071,2.4071,2.4181,2.4399,2.4964,2.5295,2.5513,2.5775,2.5895,2.5895,2.5895,2.5895,2.5895,2.5895,2.5895,2.5895,2.5895,2.5895,2.6016,2.6966,2.7315,2.7424,3.3738,3.3275,3.2799,3.2742,3.1797,3.1005,3.0889,3.0889,3.0889,3.0889,3.0889,3.0889,3.0889,3.0889,3.0889,3.0889,3.0889,3.0889,3.0889,3.0772,3.0645,3.0645,3.0645,3.0645,3.0645,3.083,3.0703,3.0303,3.0509,3.0499,3.0312,3.0519,3.0704,3.0889,3.0889,3.0889,3.082,2.9778,3.0208,3.1456,2.9916,3.0606,3.2421,3.2045,3.2295,3.2804,3.2542,3.2488,3.2457,3.203,3.1596,3.1302,3.116,3.0472,2.9685,2.962,2.9241,2.8694,2.8167,2.7587,2.7009,2.6212,2.595,2.5895,2.5895,2.5895,2.5937,2.6021,2.6969,2.7851,2.7931,2.8018,2.7776,2.6711,2.6029,2.509,2.3546,0.0,0.0,2.348,2.3873,2.419,2.4108,2.4402,2.4551,2.4461,2.4869,0.0,0.0,2.4399,2.4727,2.3934,2.3847,2.405,2.4486,2.4563,2.4792,2.5215,2.5281,2.5491,2.5895,2.5895,2.5895,2.5895,2.5895,2.5895,2.5895,2.5895,2.5895,2.5906,2.5983,2.6016,2.6125,2.7075,2.7424,2.7435,3.4244,3.3851,3.3275,3.2799,3.2123,3.1508,3.1005,3.0889,3.0889,3.0889,3.0889,3.0889,3.0889,3.0889,3.0889,3.0889,3.0889,3.0889,3.0889,3.0089,2.9608,2.9608,2.9608,2.9608,2.9608,3.046,3.0859,3.0781,2.965,2.9717,3.0781,2.965,2.9765,3.0889,3.0889,3.0889,3.0811,2.9534,2.9546,3.035,2.9363,2.9939,3.1434,3.2256,3.2924,3.3501,3.3989,3.4137,3.4052,3.3628,3.341,3.3202,3.2405,3.1465,3.0592,3.022,2.9467,2.8694,2.8167,2.7358,2.6649,2.6508,2.6201,2.5895,2.5895,2.5895,2.6063,2.6644,2.7307,2.7971,2.8542,2.8347,2.7885,2.7262,2.6348,2.5251,0.0,0.0,2.5063,2.4001,2.4671,2.499,2.4568,2.4519,2.4337,2.387,2.4307,2.4497,2.4268,2.4465,2.4705,2.4975,2.4574,2.441,2.4486,2.4869,2.515,2.5215,2.559,2.583,2.5895,2.5895,2.5895,2.5895,2.5895,2.5895,2.5895,2.5895,2.5895,2.5939,2.6354,2.6475,2.6595,2.7533,2.7882,2.7893,3.4468,3.3952,3.3378,3.3187,3.2123,3.1344,3.1392,3.1392,3.1286,3.0947,3.117,3.1286,3.0947,3.0889,3.0889,3.0889,3.0889,3.0889,3.0889,3.046,2.9971,2.9422,2.9422,2.9185,2.8641,2.9126,2.9618,3.0098,2.9421,2.9732,3.0889,3.0267,3.0277,3.0889,3.0889,3.0889,3.0811,2.9099,2.9649,3.1398,2.9581,3.0508,3.2969,3.3113,3.3547,3.4132,3.4412,3.4524,3.4491,3.4261,3.401,3.3715,3.3278,3.2481,3.1607,3.1116,2.9915,2.8694,2.8167,2.7674,2.7227,2.6715,2.6463,2.6223,2.5961,2.5895,2.6104,2.6768,2.7389,2.8011,2.8673,2.8671,2.8373,2.7821,2.7078,0.0,0.0,2.5515,2.5732,2.4896,2.5422,2.5743,2.5512,2.5478,2.5328,2.496,2.5182,2.5196,2.4898,2.4898,2.4996,2.5204,2.5007,2.4898,2.4898,2.5327,2.5568,2.5568,2.5797,2.5895,2.5895,2.5895,2.5895,2.5895,2.5895,2.5895,2.5895,2.5895,2.5895,2.595,2.6441,2.6431,2.6354,2.7304,2.7445,2.7238,3.4524,3.3998,3.3593,3.3582,3.2467,3.1634,3.196,3.2018,3.1845,3.1392,3.173,3.1845,3.1344,3.1344,3.1344,3.1344,3.1344,3.1286,3.1112,3.1112,3.0567,2.9422,2.9176,2.882,2.8343,2.8343,2.8701,2.9422,2.9422,2.9971,3.1112,3.0869,3.0986,3.1344,3.1344,3.1228,3.0986,2.931,3.0064,3.2121,3.0122,3.1279,3.4081,3.3719,3.3987,3.4524,3.4524,3.4524,3.4524,3.4524,3.4272,3.3967,3.3967,3.3311,3.2459,3.2077,3.0603,2.9011,2.8375,2.8078,2.7827,2.7097,2.6748,2.6486,2.6147,2.5983,2.6104,2.6768,2.7389,2.8011,2.8673,2.8869,2.8712,2.8197,0.0,0.0,0.0,2.6529,2.6624,2.5941,2.6051,2.6128,2.6012,2.6028,2.5941,2.566,2.5813,2.5679,2.5204,2.5215,2.527,2.5379,2.5338,2.5338,2.5338,2.571,2.5895,2.5895,2.5895,2.5895,2.5895,2.5895,2.5895,2.5895,2.5895,2.5895,2.5895,2.5895,2.5961,2.6125,2.6605,2.6562,2.6332,2.7173,2.7216,2.6878,3.4524,3.4468,3.4233,3.3695,3.3491,3.3218,3.2685,3.2628,3.2628,3.2571,3.2628,3.2638,3.2571,3.2571,3.2571,3.2571,3.2571,3.2352,3.1787,3.173,3.1024,2.9481,2.8582,2.8462,2.9303,2.9303,2.9362,2.9422,2.9422,3.0197,3.173,3.0752,3.1149,3.2571,3.2571,3.2238,3.17,3.0849,3.0784,3.1164,3.0727,3.1574,3.3163,3.3479,3.3987,3.4524,3.4524,3.4524,3.4524,3.4524,3.4502,3.4469,3.4469,3.3803,3.3059,3.3026,3.1607,2.9904,2.9,2.8375,2.798,2.7903,2.7227,2.6584,2.654,2.6223,2.6104,2.6768,2.7389,2.8011,2.8673,2.8869,2.8712,2.8197,0.0,0.0,2.7333,2.8001,2.8205,2.7111,2.6477,2.591,2.5406,2.5327,2.5077,2.4642,2.5015,2.5245,2.5215,2.5215,2.5423,2.583,2.5852,2.5852,2.5852,2.5884,2.5895,2.5895,2.5895,2.5895,2.5895,2.5895,2.5895,2.5895,2.5895,2.5895,2.5895,2.5895,2.6168,2.6584,2.7086,2.7239,2.7272,2.7751,2.7925,2.7762,3.4524,3.4524,3.4412,3.4177,3.3773,3.3378,3.3275,3.3275,3.3094,3.2742,3.3027,3.313,3.2742,3.2685,3.2685,3.2685,3.2685,3.2457,3.1845,3.1787,3.1082,2.9481,2.8522,2.8164,2.8522,2.8522,2.882,2.9422,2.9422,3.0246,3.1787,3.1421,3.1757,3.2685,3.2685,3.2571,3.2275,3.1451,3.1657,3.2586,3.1932,3.2565,3.3928,3.4101,3.4289,3.4524,3.4524,3.4524,3.4524,3.4524,3.4524,3.4524,3.4524,3.4272,3.3846,3.3246,3.1913,3.0493,2.9838,2.9085,2.8418,2.8067,2.75,2.6977,2.6649,2.6256,2.6104,2.6768,2.7085,2.7429,2.8063,2.8542,2.8776,2.8579,0.0,2.8625,2.7903,2.775,2.7384,2.6593,2.6187,2.5905,2.5676,2.6047,2.5998,2.5423,2.5935,2.6076,2.5664,2.5622,2.571,2.5895,2.5895,2.5895,2.5895,2.5895,2.5895,2.5895,2.5895,2.5895,2.5895,2.5895,2.5895,2.5895,2.5895,2.5895,2.5928,2.6223,2.642,2.666,2.7424,2.7358,2.69,2.7369,2.7217,2.666,3.4524,3.4524,3.4524,3.4524,3.4054,3.3717,3.3851,3.3907,3.3727,3.3321,3.3649,3.3706,3.331,3.3264,3.3264,3.3264,3.3264,3.2924,3.2123,3.174,3.1034,2.9912,2.8938,2.8462,2.8462,2.8462,2.876,2.9422,2.9726,3.0606,3.2065,3.2065,3.2524,3.3264,3.3264,3.314,3.297,3.2504,3.2778,3.3582,3.3119,3.3582,3.4524,3.4524,3.4524,3.4524,3.4524,3.4524,3.4524,3.4524,3.4425,3.4327,3.448,3.4524,3.4338,3.3355,3.2263,3.1192,3.0417,2.9609,2.8913,2.8386,2.7905,2.7457,2.7097,2.654,2.6251,2.6713,2.6881,2.7056,2.7429,2.8223,2.8791,2.8791,2.9005,2.9037,2.8693,2.7999,2.7321,2.6697,2.6378,2.6146,2.5906,2.652,2.6727,2.6229,2.6644,2.6603,2.5937,2.5895,2.5895,2.5895,2.5895,2.5895,2.5895,2.5895,2.5895,2.5895,2.5895,2.5895,2.5895,2.5895,2.5895,2.5895,2.5895,2.5895,2.5939,2.6431,2.6671,2.6878,2.7685,2.7598,2.7053,2.7261,2.6998,2.6529,3.4524,3.4524,3.4524,3.4524,3.4524,3.4524,3.4524,3.4524,3.4524,3.4524,3.4524,3.4524,3.4524,3.4524,3.4524,3.4524,3.4524,3.4009,3.2799,3.1566,3.0889,3.0889,2.9912,2.9422,2.9422,2.9422,2.9422,2.9422,3.0401,3.1508,3.2685,3.2685,3.3321,3.4468,3.4524,3.4166,3.3639,3.4233,3.4166,3.3639,3.4289,3.4524,3.4524,3.4524,3.4524,3.4524,3.4524,3.4524,3.4524,3.4524,3.4196,3.3879,3.4371,3.4524,3.4338,3.3366,3.2807,3.2077,3.0624,2.9871,2.9368,2.8924,2.8396,2.7991,2.7991,2.7271,2.6595,2.6584,2.6752,2.6903,2.6891,2.7926,2.8803,2.8803,2.9339,2.9792,2.9792,2.9209,2.8554,2.7891,2.7278,2.6644,2.5979,2.652,2.6903,2.6891,2.6891,2.6603,2.5937,2.5895,2.5895,2.5895,2.5895,2.5895,2.5895,2.5895,2.5895,2.5895,2.5895,2.5895,2.5895,2.5895,2.5895,2.5895,2.5895,2.5895,2.595,2.6431,2.6857,2.737,2.7805,2.7991,2.7936,2.7501,2.7576,2.786,3.4524,3.4524,3.4524,3.4524,3.4524,3.4524,3.4524,3.4524,3.4524,3.4524,3.4524,3.4524,3.4524,3.4524,3.4524,3.4524,3.4524,3.4009,3.2799,3.1566,3.0889,3.0889,3.0587,3.046,3.046,3.046,3.046,3.046,3.0772,3.1286,3.2065,3.2514,3.3094,3.3907,3.43,3.4412,3.4233,3.4401,3.4412,3.4233,3.4412,3.4524,3.4524,3.4524,3.4524,3.4524,3.4524,3.4524,3.4524,3.4524,3.4196,3.3825,3.3967,3.424,3.4458,3.4174,3.3508,3.27,3.1946,3.0887,2.9794,2.9011,2.8396,2.7991,2.7991,2.7511,2.702,2.6649,2.6635,2.6596,2.6254,2.688,2.7493,2.7493,2.7995,2.8554,2.904,2.8514,2.8211,2.8462,2.7943,2.7458,2.7244,2.7418,2.7348,2.6933,2.6437,2.6313,2.6603,2.6146,2.6104,2.6603,2.6146,2.5895,2.5895,2.5895,2.5895,2.5895,2.5895,2.5895,2.5895,2.5895,2.5895,2.5895,2.5895,2.6092,2.6452,2.6922,2.7392,2.7827,2.8353,2.8331,2.798,2.7827,2.7653,2.749,3.4524,3.4524,3.4524,3.4524,3.4524,3.4524,3.4524,3.4524,3.4524,3.4524,3.4524,3.4524,3.4524,3.4524,3.4524,3.4524,3.4065,3.3491,3.2742,3.1566,3.0889,3.0889,3.0889,3.0889,3.0889,3.0889,3.0889,3.0889,3.0889,3.1228,3.1787,3.218,3.281,3.3625,3.3963,3.43,3.4524,3.4524,3.4524,3.4524,3.4524,3.4524,3.4524,3.4524,3.4524,3.4524,3.4524,3.4524,3.4524,3.4524,3.4327,3.401,3.3628,3.3977,3.4524,3.4524,3.3967,3.3246,3.2776,3.1728,3.0537,2.9576,2.8822,2.8331,2.8331,2.7949,2.7424,2.6955,2.6715,2.6474,2.5994,2.6437,2.6891,2.6891,2.7429,2.7931,2.8343,2.8303,2.8263,2.8383,2.8303,2.8091,2.7851,2.7799,2.7539,2.6933,2.652,2.6479,2.6891,2.652,2.6592,2.7237,2.6633,2.6313,2.6313,2.6021,2.5895,2.5895,2.5895,2.5895,2.5895,2.5895,2.5895,2.5895,2.5895,2.6179,2.6617,2.7119,2.7599,2.8045,2.8571,2.8462,2.7969,2.7773,2.7522,2.7327,3.4524,3.4524,3.4524,3.4524,3.4524,3.4524,3.4524,3.4524,3.4524,3.4524,3.4524,3.4524,3.4524,3.4524,3.4524,3.4524,3.3378,3.2685,3.2685,3.1566,3.0889,3.0889,3.0889,3.0889,3.0889,3.0889,3.0889,3.0889,3.0889,3.117,3.173,3.1787,3.242,3.3512,3.3568,3.3963,3.4524,3.4524,3.4524,3.4524,3.4524,3.4524,3.4524,3.4524,3.4524,3.4524,3.4524,3.4524,3.4513,3.4469,3.4491,3.4349,3.3377,3.3737,3.4513,3.4469,3.4174,3.3759,3.3268,3.2448,3.1509,3.0526,2.9576,2.8902,2.8825,2.8418,2.7925,2.7479,2.7009,2.6497,2.6059,2.6429,2.6809,2.6809,2.7267,2.7649,2.773,2.8303,2.8462,2.7891,2.8422,2.8633,2.7971,2.7851,2.7539,2.6933,2.685,2.6873,2.7042,2.6955,2.7219,2.795,2.7342,2.6974,2.6974,2.6385,2.6021,2.5895,2.5895,2.5895,2.5895,2.5895,2.5928,2.5961,2.5961,2.6267,2.6748,2.7206,2.762,2.81,2.8628,2.8462,2.7947,2.75,2.7348,2.7426,3.4524,3.4524,3.4524,3.4524,3.4524,3.4524,3.4524,3.4524,3.4524,3.4524,3.4524,3.4524,3.4524,3.4524,3.4524,3.4524,3.3378,3.2685,3.2685,3.1566,3.0889,3.0889,3.0889,3.0889,3.0889,3.0889,3.0889,3.0889,3.0889,3.0947,3.1112,3.1566,3.219,3.2924,3.3399,3.3963,3.4524,3.4524,3.4524,3.4524,3.4524,3.4524,3.4524,3.4524,3.4524,3.4524,3.4524,3.4524,3.4458,3.4087,3.4207,3.4349,3.3377,3.3737,3.4447,3.4065,3.4152,3.4261,3.377,3.3202,3.2427,3.1083,3.0319,2.9696,2.8978,2.8727,2.8462,2.7981,2.7456,2.702,2.6519,2.6284,2.6104,2.6104,2.6218,2.6509,2.7003,2.7632,2.7971,2.781,2.8882,2.9339,2.8633,2.8091,2.7539,2.6933,2.6396,2.676,2.8215,2.7426,2.7597,2.9157,2.8155,2.7609,2.7609,2.7447,2.6899,2.5895,2.5895,2.5895,2.5895,2.5895,2.6114,2.6431,2.6431,2.6911,2.7696,2.7794,2.8167,2.8661,2.876,2.8462,2.798,2.7882,2.7944,2.8313,3.4524,3.4524,3.4524,3.4524,3.4524,3.4524,3.4524,3.4524,3.4524,3.4524,3.4524,3.4524,3.4524,3.4524,3.4524,3.4524,3.3671,3.298,3.2742,3.1845,3.117,3.0889,3.0889,3.0889,3.0889,3.0889,3.0889,3.0889,3.0889,3.0889,3.0898,3.1436,3.1872,3.2305,3.3095,3.3692,3.411,3.4412,3.4524,3.4524,3.4524,3.4524,3.4524,3.4524,3.4524,3.4524,3.4524,3.4524,3.4447,3.3956,3.4119,3.4392,3.365,3.3759,3.4174,3.4152,3.4163,3.4174,3.4152,3.3792,3.318,3.2175,3.1084,2.9937,2.903,2.8606,2.829,2.778,2.7286,2.6756,2.6292,2.6012,2.585,2.5897,2.5895,2.6146,2.6809,2.7429,2.7931,2.8251,2.917,2.9417,2.8422,2.8011,2.7539,2.6933,2.6271,2.6846,2.8998,2.8281,2.861,3.0408,2.9528,2.8925,2.8674,2.8639,2.8156,2.722,2.693,2.6663,2.6396,2.6396,2.6621,2.7077,2.6756,2.7118,2.7991,2.7991,2.8189,2.8429,2.8716,2.8189,2.7347,2.7565,2.8041,2.8669,3.4524,3.4524,3.4524,3.4524,3.4524,3.4524,3.4524,3.4524,3.4524,3.4524,3.4524,3.4524,3.4524,3.4524,3.4524,3.4524,3.3963,3.3399,3.2867,3.218,3.1566,3.1064,3.0947,3.0889,3.0889,3.0889,3.0889,3.0889,3.0889,3.0889,3.0898,3.125,3.1623,3.1971,3.2847,3.3372,3.3762,3.4289,3.4524,3.4524,3.4524,3.4524,3.4524,3.4524,3.4524,3.4524,3.4524,3.4524,3.4458,3.4054,3.4185,3.4436,3.3945,3.3857,3.3977,3.4305,3.4174,3.401,3.4414,3.4229,3.3781,3.3267,3.1799,3.0223,2.9157,2.8351,2.7751,2.738,2.6888,2.6401,2.5999,2.592,2.5946,2.5881,2.5984,2.6203,2.6655,2.7348,2.7971,2.8435,2.917,2.917,2.8091,2.7971,2.7701,2.7085,2.655,2.7208,2.9476,2.9061,2.9499,3.1195,3.0717,3.0208,2.9768,2.9797,2.9541,2.8988,2.8607,2.8052,2.7348,2.7257,2.7444,2.7858,2.721,2.7371,2.8172,2.8047,2.7991,2.8023,2.8386,2.7741,2.666,2.7205,2.7921,2.8805,3.4524,3.4524,3.4524,3.4524,3.4524,3.4524,3.4524,3.4524,3.4524,3.4524,3.4524,3.4524,3.4524,3.4524,3.4524,3.4524,3.3963,3.3568,3.3501,3.242,3.1787,3.1682,3.117,3.0889,3.0889,3.0889,3.0889,3.0889,3.0889,3.0889,3.0889,3.0947,3.1568,3.2571,3.269,3.3374,3.4401,3.4468,3.4524,3.4524,3.4524,3.4524,3.4524,3.4524,3.4524,3.4524,3.4524,3.4524,3.4513,3.4447,3.4469,3.4436,3.3945,3.4087,3.436,3.3999,3.4152,3.4436,3.4502,3.448,3.4207,3.3343,3.2491,3.1444,2.9735,2.8294,2.7315,2.7206,2.6827,2.646,2.6428,2.6459,2.636,2.587,2.6206,2.6387,2.6087,2.7051,2.7661,2.7208,2.8207,2.8882,2.8673,2.8673,2.8383,2.773,2.7609,2.8155,2.9529,2.9076,2.9368,3.0668,3.0641,3.0523,3.0448,3.092,3.0815,3.0204,3.0667,3.0289,2.912,2.8674,2.8714,2.9122,2.8393,2.8362,2.8802,2.8217,2.7991,2.7958,2.7643,2.7151,2.6712,2.7465,2.8146,2.8929,3.4524,3.4524,3.4524,3.4524,3.4524,3.4524,3.4524,3.4524,3.4524,3.4524,3.4524,3.4524,3.4524,3.4524,3.4345,3.4054,3.4065,3.3681,3.2649,3.241,3.2018,3.1344,3.1064,3.0889,3.0889,3.1228,3.1392,3.1392,3.1064,3.1064,3.1402,3.1299,3.1572,3.2248,3.2771,3.3371,3.3998,3.4345,3.4524,3.4524,3.4524,3.4524,3.4524,3.4524,3.4524,3.4524,3.4524,3.4524,3.4524,3.4524,3.4524,3.448,3.4272,3.4163,3.4076,3.3857,3.3759,3.377,3.4043,3.4119,3.3965,3.3483,3.2538,3.1385,3.0005,2.835,2.703,2.6828,2.6421,2.6067,2.6097,2.6346,2.6477,2.6282,2.6659,2.7094,2.7303,2.7835,2.8262,2.8495,2.9025,2.9209,2.8843,2.8791,2.8673,2.8383,2.8011,2.849,3.0078,2.9588,2.9819,3.0994,3.1047,3.1047,3.1047,3.1587,3.1564,3.0976,3.1901,3.1529,3.0008,2.9767,2.9918,3.0367,2.9691,2.9251,2.9014,2.8757,2.8077,2.7206,2.7293,2.7031,2.668,2.747,2.8151,2.8935]}]]